<?xml version="1.0" encoding="UTF-8" standalone="no" ?>
<gpx xmlns="http://www.topografix.com/GPX/1/1" xmlns:xsi="http://www.w3.org/2001/XMLSchema-instance" xsi:schemaLocation="http://www.topografix.com/GPX/1/1 http://www.topografix.com/GPX/1/1/gpx.xsd" version="1.1" creator="VisuGPX - https://www.visugpx.com">
  <metadata>
    <name>Track 002</name>
    <desc><![CDATA[
boucle longeant le gave de pau.
permet de rouler sur un parcours plat et en pleine nature
jolie rando accessible a beaucoup de pratiquants le vtt
ballade sympa permettant de de bien rouler pour les plus sportifs]]></desc>
  </metadata>
  <trk>
    <name><![CDATA[Track 002]]></name>
    <desc><![CDATA[15 févr. 2011  2:20 pm]]></desc>
    <trkseg>
      <trkpt lat="43.3979" lon="-0.57107">
        <ele>111.8</ele>
        <time>2011-02-15T13:20:54Z</time>
      </trkpt>
      <trkpt lat="43.3979" lon="-0.57107">
        <ele>111.8</ele>
        <time>2011-02-15T13:21:43Z</time>
      </trkpt>
      <trkpt lat="43.3978" lon="-0.57122">
        <ele>111.1</ele>
        <time>2011-02-15T13:23:14Z</time>
      </trkpt>
      <trkpt lat="43.39778" lon="-0.57138">
        <ele>111</ele>
        <time>2011-02-15T13:23:18Z</time>
      </trkpt>
      <trkpt lat="43.39774" lon="-0.57154">
        <ele>111</ele>
        <time>2011-02-15T13:23:21Z</time>
      </trkpt>
      <trkpt lat="43.39768" lon="-0.5717">
        <ele>111</ele>
        <time>2011-02-15T13:23:24Z</time>
      </trkpt>
      <trkpt lat="43.39757" lon="-0.57181">
        <ele>47.908243</ele>
        <time>2011-02-15T13:23:26Z</time>
      </trkpt>
      <trkpt lat="43.39742" lon="-0.57187">
        <ele>97.350569</ele>
        <time>2011-02-15T13:23:29Z</time>
      </trkpt>
      <trkpt lat="43.39726" lon="-0.5719">
        <ele>118.241814</ele>
        <time>2011-02-15T13:23:32Z</time>
      </trkpt>
      <trkpt lat="43.39711" lon="-0.57192">
        <ele>120.002255</ele>
        <time>2011-02-15T13:23:35Z</time>
      </trkpt>
      <trkpt lat="43.39701" lon="-0.57196">
        <ele>115.511831</ele>
        <time>2011-02-15T13:23:37Z</time>
      </trkpt>
      <trkpt lat="43.39692" lon="-0.57199">
        <ele>112.027669</ele>
        <time>2011-02-15T13:23:39Z</time>
      </trkpt>
      <trkpt lat="43.39677" lon="-0.57204">
        <ele>111.081184</ele>
        <time>2011-02-15T13:23:42Z</time>
      </trkpt>
      <trkpt lat="43.39664" lon="-0.57211">
        <ele>111.500319</ele>
        <time>2011-02-15T13:23:45Z</time>
      </trkpt>
      <trkpt lat="43.39655" lon="-0.57216">
        <ele>112.08517</ele>
        <time>2011-02-15T13:23:47Z</time>
      </trkpt>
      <trkpt lat="43.39641" lon="-0.57225">
        <ele>112.405527</ele>
        <time>2011-02-15T13:23:50Z</time>
      </trkpt>
      <trkpt lat="43.39629" lon="-0.57235">
        <ele>112.479756</ele>
        <time>2011-02-15T13:23:53Z</time>
      </trkpt>
      <trkpt lat="43.39616" lon="-0.57244">
        <ele>112.444265</ele>
        <time>2011-02-15T13:23:56Z</time>
      </trkpt>
      <trkpt lat="43.39604" lon="-0.57253">
        <ele>112.396415</ele>
        <time>2011-02-15T13:23:59Z</time>
      </trkpt>
      <trkpt lat="43.39597" lon="-0.57265">
        <ele>112.370547</ele>
        <time>2011-02-15T13:24:02Z</time>
      </trkpt>
      <trkpt lat="43.39602" lon="-0.57282">
        <ele>112.502836</ele>
        <time>2011-02-15T13:24:05Z</time>
      </trkpt>
      <trkpt lat="43.39607" lon="-0.57299">
        <ele>112.865541</ele>
        <time>2011-02-15T13:24:08Z</time>
      </trkpt>
      <trkpt lat="43.39612" lon="-0.57315">
        <ele>113.2387</ele>
        <time>2011-02-15T13:24:11Z</time>
      </trkpt>
      <trkpt lat="43.39618" lon="-0.57333">
        <ele>113.41596</ele>
        <time>2011-02-15T13:24:14Z</time>
      </trkpt>
      <trkpt lat="43.39623" lon="-0.57351">
        <ele>113.304749</ele>
        <time>2011-02-15T13:24:17Z</time>
      </trkpt>
      <trkpt lat="43.39628" lon="-0.5737">
        <ele>112.914615</ele>
        <time>2011-02-15T13:24:20Z</time>
      </trkpt>
      <trkpt lat="43.3963" lon="-0.5739">
        <ele>112.514737</ele>
        <time>2011-02-15T13:24:23Z</time>
      </trkpt>
      <trkpt lat="43.39633" lon="-0.57408">
        <ele>112.325185</ele>
        <time>2011-02-15T13:24:26Z</time>
      </trkpt>
      <trkpt lat="43.39634" lon="-0.57426">
        <ele>112.296578</ele>
        <time>2011-02-15T13:24:29Z</time>
      </trkpt>
      <trkpt lat="43.39635" lon="-0.57444">
        <ele>112.329073</ele>
        <time>2011-02-15T13:24:32Z</time>
      </trkpt>
      <trkpt lat="43.39636" lon="-0.57461">
        <ele>112.499789</ele>
        <time>2011-02-15T13:24:35Z</time>
      </trkpt>
      <trkpt lat="43.39638" lon="-0.57478">
        <ele>112.874806</ele>
        <time>2011-02-15T13:24:38Z</time>
      </trkpt>
      <trkpt lat="43.39639" lon="-0.57491">
        <ele>113.246316</ele>
        <time>2011-02-15T13:24:40Z</time>
      </trkpt>
      <trkpt lat="43.39642" lon="-0.57509">
        <ele>113.418857</ele>
        <time>2011-02-15T13:24:43Z</time>
      </trkpt>
      <trkpt lat="43.39646" lon="-0.5752">
        <ele>113.580907</ele>
        <time>2011-02-15T13:24:45Z</time>
      </trkpt>
      <trkpt lat="43.39654" lon="-0.57536">
        <ele>113.909513</ele>
        <time>2011-02-15T13:24:48Z</time>
      </trkpt>
      <trkpt lat="43.39662" lon="-0.57552">
        <ele>114.248575</ele>
        <time>2011-02-15T13:24:51Z</time>
      </trkpt>
      <trkpt lat="43.39664" lon="-0.57566">
        <ele>114.409911</ele>
        <time>2011-02-15T13:24:53Z</time>
      </trkpt>
      <trkpt lat="43.39658" lon="-0.57584">
        <ele>114.296443</ele>
        <time>2011-02-15T13:24:56Z</time>
      </trkpt>
      <trkpt lat="43.39646" lon="-0.57591">
        <ele>113.770977</ele>
        <time>2011-02-15T13:24:59Z</time>
      </trkpt>
      <trkpt lat="43.39634" lon="-0.57588">
        <ele>113.013994</ele>
        <time>2011-02-15T13:25:02Z</time>
      </trkpt>
      <trkpt lat="43.39623" lon="-0.57582">
        <ele>112.318104</ele>
        <time>2011-02-15T13:25:05Z</time>
      </trkpt>
      <trkpt lat="43.39611" lon="-0.57585">
        <ele>111.616297</ele>
        <time>2011-02-15T13:25:08Z</time>
      </trkpt>
      <trkpt lat="43.396" lon="-0.57595">
        <ele>110.892642</ele>
        <time>2011-02-15T13:25:11Z</time>
      </trkpt>
      <trkpt lat="43.39589" lon="-0.57606">
        <ele>110.410244</ele>
        <time>2011-02-15T13:25:14Z</time>
      </trkpt>
      <trkpt lat="43.39582" lon="-0.57615">
        <ele>110.253667</ele>
        <time>2011-02-15T13:25:16Z</time>
      </trkpt>
      <trkpt lat="43.39575" lon="-0.57623">
        <ele>110.273351</ele>
        <time>2011-02-15T13:25:18Z</time>
      </trkpt>
      <trkpt lat="43.39565" lon="-0.57635">
        <ele>110.332725</ele>
        <time>2011-02-15T13:25:21Z</time>
      </trkpt>
      <trkpt lat="43.39556" lon="-0.57644">
        <ele>110.371714</ele>
        <time>2011-02-15T13:25:23Z</time>
      </trkpt>
      <trkpt lat="43.39547" lon="-0.57651">
        <ele>110.384093</ele>
        <time>2011-02-15T13:25:25Z</time>
      </trkpt>
      <trkpt lat="43.39533" lon="-0.57663">
        <ele>110.382293</ele>
        <time>2011-02-15T13:25:28Z</time>
      </trkpt>
      <trkpt lat="43.39523" lon="-0.57672">
        <ele>110.51552</ele>
        <time>2011-02-15T13:25:30Z</time>
      </trkpt>
      <trkpt lat="43.39508" lon="-0.57687">
        <ele>110.872073</ele>
        <time>2011-02-15T13:25:33Z</time>
      </trkpt>
      <trkpt lat="43.39493" lon="-0.57702">
        <ele>111.240336</ele>
        <time>2011-02-15T13:25:36Z</time>
      </trkpt>
      <trkpt lat="43.39477" lon="-0.57718">
        <ele>111.415669</ele>
        <time>2011-02-15T13:25:39Z</time>
      </trkpt>
      <trkpt lat="43.39467" lon="-0.57729">
        <ele>111.44257</ele>
        <time>2011-02-15T13:25:41Z</time>
      </trkpt>
      <trkpt lat="43.39451" lon="-0.57725">
        <ele>111.274617</ele>
        <time>2011-02-15T13:25:44Z</time>
      </trkpt>
      <trkpt lat="43.39443" lon="-0.57706">
        <ele>110.884623</ele>
        <time>2011-02-15T13:25:47Z</time>
      </trkpt>
      <trkpt lat="43.39439" lon="-0.57685">
        <ele>110.501019</ele>
        <time>2011-02-15T13:25:50Z</time>
      </trkpt>
      <trkpt lat="43.39435" lon="-0.57661">
        <ele>110.32368</ele>
        <time>2011-02-15T13:25:53Z</time>
      </trkpt>
      <trkpt lat="43.39433" lon="-0.57644">
        <ele>110.437772</ele>
        <time>2011-02-15T13:25:55Z</time>
      </trkpt>
      <trkpt lat="43.39429" lon="-0.57617">
        <ele>110.830058</ele>
        <time>2011-02-15T13:25:58Z</time>
      </trkpt>
      <trkpt lat="43.39426" lon="-0.576">
        <ele>111.230754</ele>
        <time>2011-02-15T13:26:00Z</time>
      </trkpt>
      <trkpt lat="43.39426" lon="-0.57586">
        <ele>111.420339</ele>
        <time>2011-02-15T13:26:02Z</time>
      </trkpt>
      <trkpt lat="43.39428" lon="-0.57572">
        <ele>111.586886</ele>
        <time>2011-02-15T13:26:06Z</time>
      </trkpt>
      <trkpt lat="43.39446" lon="-0.57563">
        <ele>111.775916</ele>
        <time>2011-02-15T13:26:09Z</time>
      </trkpt>
      <trkpt lat="43.39465" lon="-0.57554">
        <ele>111.75288</ele>
        <time>2011-02-15T13:26:12Z</time>
      </trkpt>
      <trkpt lat="43.39482" lon="-0.57544">
        <ele>111.543581</ele>
        <time>2011-02-15T13:26:15Z</time>
      </trkpt>
      <trkpt lat="43.39498" lon="-0.57532">
        <ele>111.392773</ele>
        <time>2011-02-15T13:26:18Z</time>
      </trkpt>
      <trkpt lat="43.3951" lon="-0.57515">
        <ele>111.339033</ele>
        <time>2011-02-15T13:26:21Z</time>
      </trkpt>
      <trkpt lat="43.39509" lon="-0.57491">
        <ele>111.341605</ele>
        <time>2011-02-15T13:26:24Z</time>
      </trkpt>
      <trkpt lat="43.39501" lon="-0.57471">
        <ele>111.358836</ele>
        <time>2011-02-15T13:26:27Z</time>
      </trkpt>
      <trkpt lat="43.39495" lon="-0.57457">
        <ele>111.23293</ele>
        <time>2011-02-15T13:26:29Z</time>
      </trkpt>
      <trkpt lat="43.39485" lon="-0.57437">
        <ele>110.877477</ele>
        <time>2011-02-15T13:26:32Z</time>
      </trkpt>
      <trkpt lat="43.39476" lon="-0.57416">
        <ele>110.507941</ele>
        <time>2011-02-15T13:26:35Z</time>
      </trkpt>
      <trkpt lat="43.39468" lon="-0.57395">
        <ele>110.19317</ele>
        <time>2011-02-15T13:26:38Z</time>
      </trkpt>
      <trkpt lat="43.3946" lon="-0.57373">
        <ele>109.805824</ele>
        <time>2011-02-15T13:26:41Z</time>
      </trkpt>
      <trkpt lat="43.39451" lon="-0.57352">
        <ele>109.466092</ele>
        <time>2011-02-15T13:26:44Z</time>
      </trkpt>
      <trkpt lat="43.39442" lon="-0.57332">
        <ele>109.320988</ele>
        <time>2011-02-15T13:26:47Z</time>
      </trkpt>
      <trkpt lat="43.39432" lon="-0.57312">
        <ele>109.308683</ele>
        <time>2011-02-15T13:26:50Z</time>
      </trkpt>
      <trkpt lat="43.39422" lon="-0.57293">
        <ele>109.340797</ele>
        <time>2011-02-15T13:26:53Z</time>
      </trkpt>
      <trkpt lat="43.39413" lon="-0.57275">
        <ele>109.368475</ele>
        <time>2011-02-15T13:26:56Z</time>
      </trkpt>
      <trkpt lat="43.39403" lon="-0.57257">
        <ele>109.380157</ele>
        <time>2011-02-15T13:26:59Z</time>
      </trkpt>
      <trkpt lat="43.39397" lon="-0.57247">
        <ele>109.381065</ele>
        <time>2011-02-15T13:27:01Z</time>
      </trkpt>
      <trkpt lat="43.39393" lon="-0.57235">
        <ele>109.378416</ele>
        <time>2011-02-15T13:27:03Z</time>
      </trkpt>
      <trkpt lat="43.39386" lon="-0.57216">
        <ele>109.376166</ele>
        <time>2011-02-15T13:27:06Z</time>
      </trkpt>
      <trkpt lat="43.39377" lon="-0.572">
        <ele>109.375235</ele>
        <time>2011-02-15T13:27:09Z</time>
      </trkpt>
      <trkpt lat="43.39368" lon="-0.57193">
        <ele>109.375182</ele>
        <time>2011-02-15T13:27:11Z</time>
      </trkpt>
      <trkpt lat="43.39353" lon="-0.57184">
        <ele>109.513599</ele>
        <time>2011-02-15T13:27:14Z</time>
      </trkpt>
      <trkpt lat="43.39337" lon="-0.5718">
        <ele>110.01187</ele>
        <time>2011-02-15T13:27:17Z</time>
      </trkpt>
      <trkpt lat="43.39325" lon="-0.5718">
        <ele>110.741276</ele>
        <time>2011-02-15T13:27:19Z</time>
      </trkpt>
      <trkpt lat="43.39314" lon="-0.57181">
        <ele>111.285981</ele>
        <time>2011-02-15T13:27:21Z</time>
      </trkpt>
      <trkpt lat="43.39303" lon="-0.57183">
        <ele>111.487776</ele>
        <time>2011-02-15T13:27:23Z</time>
      </trkpt>
      <trkpt lat="43.39286" lon="-0.57186">
        <ele>111.622459</ele>
        <time>2011-02-15T13:27:26Z</time>
      </trkpt>
      <trkpt lat="43.39268" lon="-0.57187">
        <ele>111.922154</ele>
        <time>2011-02-15T13:27:29Z</time>
      </trkpt>
      <trkpt lat="43.39257" lon="-0.57186">
        <ele>112.247299</ele>
        <time>2011-02-15T13:27:31Z</time>
      </trkpt>
      <trkpt lat="43.3924" lon="-0.57185">
        <ele>112.406439</ele>
        <time>2011-02-15T13:27:34Z</time>
      </trkpt>
      <trkpt lat="43.39229" lon="-0.57183">
        <ele>112.571627</ele>
        <time>2011-02-15T13:27:36Z</time>
      </trkpt>
      <trkpt lat="43.39212" lon="-0.57179">
        <ele>113.044582</ele>
        <time>2011-02-15T13:27:39Z</time>
      </trkpt>
      <trkpt lat="43.39194" lon="-0.57174">
        <ele>113.747258</ele>
        <time>2011-02-15T13:27:42Z</time>
      </trkpt>
      <trkpt lat="43.39177" lon="-0.57167">
        <ele>114.279061</ele>
        <time>2011-02-15T13:27:45Z</time>
      </trkpt>
      <trkpt lat="43.3916" lon="-0.57161">
        <ele>114.478757</ele>
        <time>2011-02-15T13:27:48Z</time>
      </trkpt>
      <trkpt lat="43.39143" lon="-0.57157">
        <ele>114.477392</ele>
        <time>2011-02-15T13:27:51Z</time>
      </trkpt>
      <trkpt lat="43.39125" lon="-0.57156">
        <ele>114.419434</ele>
        <time>2011-02-15T13:27:54Z</time>
      </trkpt>
      <trkpt lat="43.39108" lon="-0.57156">
        <ele>114.238006</ele>
        <time>2011-02-15T13:27:57Z</time>
      </trkpt>
      <trkpt lat="43.39091" lon="-0.57156">
        <ele>113.862061</ele>
        <time>2011-02-15T13:28:00Z</time>
      </trkpt>
      <trkpt lat="43.39075" lon="-0.57154">
        <ele>113.492845</ele>
        <time>2011-02-15T13:28:03Z</time>
      </trkpt>
      <trkpt lat="43.39064" lon="-0.57151">
        <ele>113.184108</ele>
        <time>2011-02-15T13:28:05Z</time>
      </trkpt>
      <trkpt lat="43.39053" lon="-0.5715">
        <ele>112.801131</ele>
        <time>2011-02-15T13:28:07Z</time>
      </trkpt>
      <trkpt lat="43.39037" lon="-0.5715">
        <ele>112.462924</ele>
        <time>2011-02-15T13:28:10Z</time>
      </trkpt>
      <trkpt lat="43.39027" lon="-0.57149">
        <ele>112.317722</ele>
        <time>2011-02-15T13:28:12Z</time>
      </trkpt>
      <trkpt lat="43.39012" lon="-0.57143">
        <ele>112.443046</ele>
        <time>2011-02-15T13:28:15Z</time>
      </trkpt>
      <trkpt lat="43.38997" lon="-0.57133">
        <ele>112.972753</ele>
        <time>2011-02-15T13:28:18Z</time>
      </trkpt>
      <trkpt lat="43.38981" lon="-0.57122">
        <ele>113.729481</ele>
        <time>2011-02-15T13:28:21Z</time>
      </trkpt>
      <trkpt lat="43.38965" lon="-0.5711">
        <ele>114.423927</ele>
        <time>2011-02-15T13:28:24Z</time>
      </trkpt>
      <trkpt lat="43.38954" lon="-0.57102">
        <ele>115.124664</ele>
        <time>2011-02-15T13:28:26Z</time>
      </trkpt>
      <trkpt lat="43.38939" lon="-0.57089">
        <ele>115.847876</ele>
        <time>2011-02-15T13:28:29Z</time>
      </trkpt>
      <trkpt lat="43.38924" lon="-0.57077">
        <ele>116.330226</ele>
        <time>2011-02-15T13:28:32Z</time>
      </trkpt>
      <trkpt lat="43.38914" lon="-0.57068">
        <ele>116.486878</ele>
        <time>2011-02-15T13:28:34Z</time>
      </trkpt>
      <trkpt lat="43.38899" lon="-0.57056">
        <ele>116.467228</ele>
        <time>2011-02-15T13:28:37Z</time>
      </trkpt>
      <trkpt lat="43.3889" lon="-0.57048">
        <ele>116.269612</ele>
        <time>2011-02-15T13:28:39Z</time>
      </trkpt>
      <trkpt lat="43.38875" lon="-0.57036">
        <ele>115.732426</ele>
        <time>2011-02-15T13:28:42Z</time>
      </trkpt>
      <trkpt lat="43.38859" lon="-0.57023">
        <ele>114.990611</ele>
        <time>2011-02-15T13:28:45Z</time>
      </trkpt>
      <trkpt lat="43.38849" lon="-0.57016">
        <ele>114.44765</ele>
        <time>2011-02-15T13:28:47Z</time>
      </trkpt>
      <trkpt lat="43.38832" lon="-0.57012">
        <ele>114.250689</ele>
        <time>2011-02-15T13:28:50Z</time>
      </trkpt>
      <trkpt lat="43.38816" lon="-0.57015">
        <ele>114.257246</ele>
        <time>2011-02-15T13:28:53Z</time>
      </trkpt>
      <trkpt lat="43.38801" lon="-0.57022">
        <ele>114.180119</ele>
        <time>2011-02-15T13:28:56Z</time>
      </trkpt>
      <trkpt lat="43.38786" lon="-0.57032">
        <ele>113.864304</ele>
        <time>2011-02-15T13:28:59Z</time>
      </trkpt>
      <trkpt lat="43.38772" lon="-0.57044">
        <ele>113.510638</ele>
        <time>2011-02-15T13:29:02Z</time>
      </trkpt>
      <trkpt lat="43.38757" lon="-0.57042">
        <ele>113.334633</ele>
        <time>2011-02-15T13:29:05Z</time>
      </trkpt>
      <trkpt lat="43.38741" lon="-0.57032">
        <ele>113.302972</ele>
        <time>2011-02-15T13:29:08Z</time>
      </trkpt>
      <trkpt lat="43.38726" lon="-0.57022">
        <ele>113.191061</ele>
        <time>2011-02-15T13:29:11Z</time>
      </trkpt>
      <trkpt lat="43.38712" lon="-0.57008">
        <ele>112.859884</ele>
        <time>2011-02-15T13:29:14Z</time>
      </trkpt>
      <trkpt lat="43.38704" lon="-0.56998">
        <ele>112.504508</ele>
        <time>2011-02-15T13:29:16Z</time>
      </trkpt>
      <trkpt lat="43.38692" lon="-0.56979">
        <ele>112.331618</ele>
        <time>2011-02-15T13:29:19Z</time>
      </trkpt>
      <trkpt lat="43.38684" lon="-0.56967">
        <ele>112.302865</ele>
        <time>2011-02-15T13:29:21Z</time>
      </trkpt>
      <trkpt lat="43.38673" lon="-0.56947">
        <ele>112.330505</ele>
        <time>2011-02-15T13:29:24Z</time>
      </trkpt>
      <trkpt lat="43.3866" lon="-0.56929">
        <ele>112.359484</ele>
        <time>2011-02-15T13:29:27Z</time>
      </trkpt>
      <trkpt lat="43.38651" lon="-0.56918">
        <ele>112.373405</ele>
        <time>2011-02-15T13:29:29Z</time>
      </trkpt>
      <trkpt lat="43.38637" lon="-0.56901">
        <ele>112.375624</ele>
        <time>2011-02-15T13:29:32Z</time>
      </trkpt>
      <trkpt lat="43.38628" lon="-0.56891">
        <ele>112.373332</ele>
        <time>2011-02-15T13:29:34Z</time>
      </trkpt>
      <trkpt lat="43.38618" lon="-0.56881">
        <ele>112.370979</ele>
        <time>2011-02-15T13:29:36Z</time>
      </trkpt>
      <trkpt lat="43.38604" lon="-0.56865">
        <ele>112.369863</ele>
        <time>2011-02-15T13:29:39Z</time>
      </trkpt>
      <trkpt lat="43.38589" lon="-0.5685">
        <ele>112.369693</ele>
        <time>2011-02-15T13:29:42Z</time>
      </trkpt>
      <trkpt lat="43.38575" lon="-0.56835">
        <ele>112.36988</ele>
        <time>2011-02-15T13:29:45Z</time>
      </trkpt>
      <trkpt lat="43.38566" lon="-0.56826">
        <ele>112.231887</ele>
        <time>2011-02-15T13:29:47Z</time>
      </trkpt>
      <trkpt lat="43.38551" lon="-0.56811">
        <ele>111.87208</ele>
        <time>2011-02-15T13:29:50Z</time>
      </trkpt>
      <trkpt lat="43.38537" lon="-0.56796">
        <ele>111.502653</ele>
        <time>2011-02-15T13:29:53Z</time>
      </trkpt>
      <trkpt lat="43.38523" lon="-0.56781">
        <ele>111.327367</ele>
        <time>2011-02-15T13:29:56Z</time>
      </trkpt>
      <trkpt lat="43.38513" lon="-0.56771">
        <ele>111.300813</ele>
        <time>2011-02-15T13:29:58Z</time>
      </trkpt>
      <trkpt lat="43.38504" lon="-0.56761">
        <ele>111.330788</ele>
        <time>2011-02-15T13:30:00Z</time>
      </trkpt>
      <trkpt lat="43.38489" lon="-0.56746">
        <ele>111.360893</ele>
        <time>2011-02-15T13:30:03Z</time>
      </trkpt>
      <trkpt lat="43.38474" lon="-0.56732">
        <ele>111.513159</ele>
        <time>2011-02-15T13:30:06Z</time>
      </trkpt>
      <trkpt lat="43.38459" lon="-0.56718">
        <ele>111.875052</ele>
        <time>2011-02-15T13:30:09Z</time>
      </trkpt>
      <trkpt lat="43.38443" lon="-0.56706">
        <ele>112.241972</ele>
        <time>2011-02-15T13:30:12Z</time>
      </trkpt>
      <trkpt lat="43.38427" lon="-0.56694">
        <ele>112.414779</ele>
        <time>2011-02-15T13:30:15Z</time>
      </trkpt>
      <trkpt lat="43.38412" lon="-0.56682">
        <ele>112.578354</ele>
        <time>2011-02-15T13:30:18Z</time>
      </trkpt>
      <trkpt lat="43.38402" lon="-0.56675">
        <ele>113.046264</ele>
        <time>2011-02-15T13:30:20Z</time>
      </trkpt>
      <trkpt lat="43.38392" lon="-0.56668">
        <ele>113.745656</ele>
        <time>2011-02-15T13:30:22Z</time>
      </trkpt>
      <trkpt lat="43.38378" lon="-0.56656">
        <ele>114.276429</ele>
        <time>2011-02-15T13:30:25Z</time>
      </trkpt>
      <trkpt lat="43.38363" lon="-0.56643">
        <ele>114.476279</ele>
        <time>2011-02-15T13:30:28Z</time>
      </trkpt>
      <trkpt lat="43.38351" lon="-0.56627">
        <ele>114.475322</ele>
        <time>2011-02-15T13:30:31Z</time>
      </trkpt>
      <trkpt lat="43.38341" lon="-0.5661">
        <ele>114.417644</ele>
        <time>2011-02-15T13:30:34Z</time>
      </trkpt>
      <trkpt lat="43.38334" lon="-0.56596">
        <ele>114.374535</ele>
        <time>2011-02-15T13:30:36Z</time>
      </trkpt>
      <trkpt lat="43.38323" lon="-0.56576">
        <ele>114.358551</ele>
        <time>2011-02-15T13:30:39Z</time>
      </trkpt>
      <trkpt lat="43.38312" lon="-0.56557">
        <ele>114.358814</ele>
        <time>2011-02-15T13:30:42Z</time>
      </trkpt>
      <trkpt lat="43.38306" lon="-0.56546">
        <ele>114.363569</ele>
        <time>2011-02-15T13:30:44Z</time>
      </trkpt>
      <trkpt lat="43.38298" lon="-0.56527">
        <ele>114.367078</ele>
        <time>2011-02-15T13:30:47Z</time>
      </trkpt>
      <trkpt lat="43.3829" lon="-0.5651">
        <ele>114.368371</ele>
        <time>2011-02-15T13:30:50Z</time>
      </trkpt>
      <trkpt lat="43.38285" lon="-0.56498">
        <ele>114.368347</ele>
        <time>2011-02-15T13:30:52Z</time>
      </trkpt>
      <trkpt lat="43.38276" lon="-0.56483">
        <ele>114.367959</ele>
        <time>2011-02-15T13:30:55Z</time>
      </trkpt>
      <trkpt lat="43.38269" lon="-0.56471">
        <ele>114.367672</ele>
        <time>2011-02-15T13:30:57Z</time>
      </trkpt>
      <trkpt lat="43.38257" lon="-0.56453">
        <ele>114.367569</ele>
        <time>2011-02-15T13:31:00Z</time>
      </trkpt>
      <trkpt lat="43.38245" lon="-0.56433">
        <ele>114.367581</ele>
        <time>2011-02-15T13:31:03Z</time>
      </trkpt>
      <trkpt lat="43.38238" lon="-0.5642">
        <ele>114.367632</ele>
        <time>2011-02-15T13:31:05Z</time>
      </trkpt>
      <trkpt lat="43.38229" lon="-0.56397">
        <ele>114.229516</ele>
        <time>2011-02-15T13:31:08Z</time>
      </trkpt>
      <trkpt lat="43.38223" lon="-0.56385">
        <ele>114.00786</ele>
        <time>2011-02-15T13:31:11Z</time>
      </trkpt>
      <trkpt lat="43.38216" lon="-0.56358">
        <ele>113.998355</ele>
        <time>2011-02-15T13:31:14Z</time>
      </trkpt>
      <trkpt lat="43.3821" lon="-0.56332">
        <ele>114.33072</ele>
        <time>2011-02-15T13:31:17Z</time>
      </trkpt>
      <trkpt lat="43.3821" lon="-0.56308">
        <ele>114.839338</ele>
        <time>2011-02-15T13:31:20Z</time>
      </trkpt>
      <trkpt lat="43.38211" lon="-0.56291">
        <ele>115.265292</ele>
        <time>2011-02-15T13:31:22Z</time>
      </trkpt>
      <trkpt lat="43.38213" lon="-0.56274">
        <ele>115.440717</ele>
        <time>2011-02-15T13:31:24Z</time>
      </trkpt>
      <trkpt lat="43.38215" lon="-0.56257">
        <ele>115.58949</ele>
        <time>2011-02-15T13:31:26Z</time>
      </trkpt>
      <trkpt lat="43.38213" lon="-0.56232">
        <ele>116.045583</ele>
        <time>2011-02-15T13:31:29Z</time>
      </trkpt>
      <trkpt lat="43.38207" lon="-0.5621">
        <ele>116.740362</ele>
        <time>2011-02-15T13:31:32Z</time>
      </trkpt>
      <trkpt lat="43.38202" lon="-0.56196">
        <ele>117.271072</ele>
        <time>2011-02-15T13:31:34Z</time>
      </trkpt>
      <trkpt lat="43.38194" lon="-0.56177">
        <ele>117.472227</ele>
        <time>2011-02-15T13:31:37Z</time>
      </trkpt>
      <trkpt lat="43.3819" lon="-0.56165">
        <ele>117.472315</ele>
        <time>2011-02-15T13:31:39Z</time>
      </trkpt>
      <trkpt lat="43.38182" lon="-0.56147">
        <ele>117.553272</ele>
        <time>2011-02-15T13:31:42Z</time>
      </trkpt>
      <trkpt lat="43.38178" lon="-0.56135">
        <ele>117.870129</ele>
        <time>2011-02-15T13:31:44Z</time>
      </trkpt>
      <trkpt lat="43.38171" lon="-0.56121">
        <ele>118.22352</ele>
        <time>2011-02-15T13:31:47Z</time>
      </trkpt>
      <trkpt lat="43.38162" lon="-0.56105">
        <ele>118.537171</ele>
        <time>2011-02-15T13:31:50Z</time>
      </trkpt>
      <trkpt lat="43.38149" lon="-0.56082">
        <ele>118.928337</ele>
        <time>2011-02-15T13:31:53Z</time>
      </trkpt>
      <trkpt lat="43.38135" lon="-0.56062">
        <ele>119.271304</ele>
        <time>2011-02-15T13:31:56Z</time>
      </trkpt>
      <trkpt lat="43.38128" lon="-0.56049">
        <ele>119.417762</ele>
        <time>2011-02-15T13:31:58Z</time>
      </trkpt>
      <trkpt lat="43.38117" lon="-0.56031">
        <ele>119.568362</ele>
        <time>2011-02-15T13:32:01Z</time>
      </trkpt>
      <trkpt lat="43.38111" lon="-0.56018">
        <ele>119.895874</ele>
        <time>2011-02-15T13:32:03Z</time>
      </trkpt>
      <trkpt lat="43.38101" lon="-0.55999">
        <ele>120.237425</ele>
        <time>2011-02-15T13:32:06Z</time>
      </trkpt>
      <trkpt lat="43.38094" lon="-0.55986">
        <ele>120.400945</ele>
        <time>2011-02-15T13:32:08Z</time>
      </trkpt>
      <trkpt lat="43.38084" lon="-0.55968">
        <ele>120.426591</ele>
        <time>2011-02-15T13:32:11Z</time>
      </trkpt>
      <trkpt lat="43.38087" lon="-0.55952">
        <ele>120.261119</ele>
        <time>2011-02-15T13:32:14Z</time>
      </trkpt>
      <trkpt lat="43.38076" lon="-0.55932">
        <ele>119.873416</ele>
        <time>2011-02-15T13:32:17Z</time>
      </trkpt>
      <trkpt lat="43.38065" lon="-0.55904">
        <ele>119.352679</ele>
        <time>2011-02-15T13:32:20Z</time>
      </trkpt>
      <trkpt lat="43.38061" lon="-0.55884">
        <ele>118.677417</ele>
        <time>2011-02-15T13:32:22Z</time>
      </trkpt>
      <trkpt lat="43.38057" lon="-0.55867">
        <ele>117.785701</ele>
        <time>2011-02-15T13:32:24Z</time>
      </trkpt>
      <trkpt lat="43.38046" lon="-0.55844">
        <ele>116.913414</ele>
        <time>2011-02-15T13:32:27Z</time>
      </trkpt>
      <trkpt lat="43.38035" lon="-0.55823">
        <ele>116.235218</ele>
        <time>2011-02-15T13:32:30Z</time>
      </trkpt>
      <trkpt lat="43.38026" lon="-0.55802">
        <ele>115.71782</ele>
        <time>2011-02-15T13:32:33Z</time>
      </trkpt>
      <trkpt lat="43.38017" lon="-0.55781">
        <ele>115.38382</ele>
        <time>2011-02-15T13:32:36Z</time>
      </trkpt>
      <trkpt lat="43.38013" lon="-0.55765">
        <ele>115.141902</ele>
        <time>2011-02-15T13:32:38Z</time>
      </trkpt>
      <trkpt lat="43.38006" lon="-0.55741">
        <ele>114.66101</ele>
        <time>2011-02-15T13:32:41Z</time>
      </trkpt>
      <trkpt lat="43.37999" lon="-0.55718">
        <ele>113.836011</ele>
        <time>2011-02-15T13:32:44Z</time>
      </trkpt>
      <trkpt lat="43.37994" lon="-0.55694">
        <ele>112.958509</ele>
        <time>2011-02-15T13:32:47Z</time>
      </trkpt>
      <trkpt lat="43.37995" lon="-0.5567">
        <ele>112.257402</ele>
        <time>2011-02-15T13:32:50Z</time>
      </trkpt>
      <trkpt lat="43.37998" lon="-0.55646">
        <ele>111.724293</ele>
        <time>2011-02-15T13:32:53Z</time>
      </trkpt>
      <trkpt lat="43.38001" lon="-0.5563">
        <ele>111.385034</ele>
        <time>2011-02-15T13:32:55Z</time>
      </trkpt>
      <trkpt lat="43.38002" lon="-0.55606">
        <ele>111.281818</ele>
        <time>2011-02-15T13:32:58Z</time>
      </trkpt>
      <trkpt lat="43.38003" lon="-0.5559">
        <ele>111.439056</ele>
        <time>2011-02-15T13:33:00Z</time>
      </trkpt>
      <trkpt lat="43.38003" lon="-0.55565">
        <ele>111.842723</ele>
        <time>2011-02-15T13:33:03Z</time>
      </trkpt>
      <trkpt lat="43.38004" lon="-0.55541">
        <ele>112.239687</ele>
        <time>2011-02-15T13:33:06Z</time>
      </trkpt>
      <trkpt lat="43.38013" lon="-0.55521">
        <ele>112.423216</ele>
        <time>2011-02-15T13:33:09Z</time>
      </trkpt>
      <trkpt lat="43.38021" lon="-0.55513">
        <ele>112.586336</ele>
        <time>2011-02-15T13:33:11Z</time>
      </trkpt>
      <trkpt lat="43.38029" lon="-0.55496">
        <ele>113.050913</ele>
        <time>2011-02-15T13:33:14Z</time>
      </trkpt>
      <trkpt lat="43.38032" lon="-0.55482">
        <ele>113.747996</ele>
        <time>2011-02-15T13:33:16Z</time>
      </trkpt>
      <trkpt lat="43.38035" lon="-0.5546">
        <ele>114.416214</ele>
        <time>2011-02-15T13:33:19Z</time>
      </trkpt>
      <trkpt lat="43.38038" lon="-0.55437">
        <ele>114.976106</ele>
        <time>2011-02-15T13:33:22Z</time>
      </trkpt>
      <trkpt lat="43.38038" lon="-0.55421">
        <ele>115.344985</ele>
        <time>2011-02-15T13:33:24Z</time>
      </trkpt>
      <trkpt lat="43.38037" lon="-0.55397">
        <ele>115.462943</ele>
        <time>2011-02-15T13:33:27Z</time>
      </trkpt>
      <trkpt lat="43.38033" lon="-0.55383">
        <ele>115.446604</ele>
        <time>2011-02-15T13:33:29Z</time>
      </trkpt>
      <trkpt lat="43.38027" lon="-0.55362">
        <ele>115.538859</ele>
        <time>2011-02-15T13:33:32Z</time>
      </trkpt>
      <trkpt lat="43.38016" lon="-0.55342">
        <ele>115.868804</ele>
        <time>2011-02-15T13:33:35Z</time>
      </trkpt>
      <trkpt lat="43.38" lon="-0.5533">
        <ele>116.228793</ele>
        <time>2011-02-15T13:33:38Z</time>
      </trkpt>
      <trkpt lat="43.37982" lon="-0.55333">
        <ele>116.405536</ele>
        <time>2011-02-15T13:33:41Z</time>
      </trkpt>
      <trkpt lat="43.37966" lon="-0.55342">
        <ele>116.435911</ele>
        <time>2011-02-15T13:33:44Z</time>
      </trkpt>
      <trkpt lat="43.3795" lon="-0.55353">
        <ele>116.40841</ele>
        <time>2011-02-15T13:33:47Z</time>
      </trkpt>
      <trkpt lat="43.37935" lon="-0.55362">
        <ele>116.379075</ele>
        <time>2011-02-15T13:33:50Z</time>
      </trkpt>
      <trkpt lat="43.37924" lon="-0.55358">
        <ele>116.22666</ele>
        <time>2011-02-15T13:33:52Z</time>
      </trkpt>
      <trkpt lat="43.37917" lon="-0.55344">
        <ele>115.864381</ele>
        <time>2011-02-15T13:33:54Z</time>
      </trkpt>
      <trkpt lat="43.37909" lon="-0.55322">
        <ele>115.35898</ele>
        <time>2011-02-15T13:33:57Z</time>
      </trkpt>
      <trkpt lat="43.37901" lon="-0.55299">
        <ele>114.826135</ele>
        <time>2011-02-15T13:34:00Z</time>
      </trkpt>
      <trkpt lat="43.37892" lon="-0.55277">
        <ele>114.431265</ele>
        <time>2011-02-15T13:34:03Z</time>
      </trkpt>
      <trkpt lat="43.37886" lon="-0.55262">
        <ele>114.286156</ele>
        <time>2011-02-15T13:34:05Z</time>
      </trkpt>
      <trkpt lat="43.37876" lon="-0.5524">
        <ele>114.289552</ele>
        <time>2011-02-15T13:34:08Z</time>
      </trkpt>
      <trkpt lat="43.37866" lon="-0.55219">
        <ele>114.333472</ele>
        <time>2011-02-15T13:34:11Z</time>
      </trkpt>
      <trkpt lat="43.37857" lon="-0.55197">
        <ele>114.365557</ele>
        <time>2011-02-15T13:34:14Z</time>
      </trkpt>
      <trkpt lat="43.37851" lon="-0.55184">
        <ele>114.377191</ele>
        <time>2011-02-15T13:34:16Z</time>
      </trkpt>
      <trkpt lat="43.37844" lon="-0.55171">
        <ele>114.514978</ele>
        <time>2011-02-15T13:34:18Z</time>
      </trkpt>
      <trkpt lat="43.37837" lon="-0.55159">
        <ele>114.87126</ele>
        <time>2011-02-15T13:34:20Z</time>
      </trkpt>
      <trkpt lat="43.37827" lon="-0.55139">
        <ele>115.37629</ele>
        <time>2011-02-15T13:34:23Z</time>
      </trkpt>
      <trkpt lat="43.37822" lon="-0.55124">
        <ele>115.910552</ele>
        <time>2011-02-15T13:34:25Z</time>
      </trkpt>
      <trkpt lat="43.37818" lon="-0.55109">
        <ele>116.306589</ele>
        <time>2011-02-15T13:34:27Z</time>
      </trkpt>
      <trkpt lat="43.37815" lon="-0.55094">
        <ele>116.452182</ele>
        <time>2011-02-15T13:34:29Z</time>
      </trkpt>
      <trkpt lat="43.3781" lon="-0.55072">
        <ele>116.448836</ele>
        <time>2011-02-15T13:34:32Z</time>
      </trkpt>
      <trkpt lat="43.378" lon="-0.55057">
        <ele>116.404853</ele>
        <time>2011-02-15T13:34:35Z</time>
      </trkpt>
      <trkpt lat="43.37784" lon="-0.55061">
        <ele>116.372751</ele>
        <time>2011-02-15T13:34:38Z</time>
      </trkpt>
      <trkpt lat="43.37769" lon="-0.55068">
        <ele>116.361165</ele>
        <time>2011-02-15T13:34:41Z</time>
      </trkpt>
      <trkpt lat="43.37754" lon="-0.55074">
        <ele>116.499763</ele>
        <time>2011-02-15T13:34:44Z</time>
      </trkpt>
      <trkpt lat="43.3774" lon="-0.55084">
        <ele>116.863214</ele>
        <time>2011-02-15T13:34:47Z</time>
      </trkpt>
      <trkpt lat="43.37731" lon="-0.55102">
        <ele>117.23517</ele>
        <time>2011-02-15T13:34:50Z</time>
      </trkpt>
      <trkpt lat="43.37724" lon="-0.55123">
        <ele>117.4113</ele>
        <time>2011-02-15T13:34:53Z</time>
      </trkpt>
      <trkpt lat="43.37719" lon="-0.55137">
        <ele>117.437742</ele>
        <time>2011-02-15T13:34:55Z</time>
      </trkpt>
      <trkpt lat="43.37715" lon="-0.55152">
        <ele>117.407415</ele>
        <time>2011-02-15T13:34:57Z</time>
      </trkpt>
      <trkpt lat="43.37711" lon="-0.55175">
        <ele>117.23886</ele>
        <time>2011-02-15T13:35:00Z</time>
      </trkpt>
      <trkpt lat="43.37708" lon="-0.55199">
        <ele>116.864718</ele>
        <time>2011-02-15T13:35:03Z</time>
      </trkpt>
      <trkpt lat="43.37703" lon="-0.55222">
        <ele>116.355003</ele>
        <time>2011-02-15T13:35:06Z</time>
      </trkpt>
      <trkpt lat="43.37694" lon="-0.55242">
        <ele>115.822301</ele>
        <time>2011-02-15T13:35:09Z</time>
      </trkpt>
      <trkpt lat="43.37682" lon="-0.55258">
        <ele>115.42877</ele>
        <time>2011-02-15T13:35:12Z</time>
      </trkpt>
      <trkpt lat="43.37672" lon="-0.55278">
        <ele>115.284627</ele>
        <time>2011-02-15T13:35:15Z</time>
      </trkpt>
      <trkpt lat="43.37666" lon="-0.553">
        <ele>115.426471</ele>
        <time>2011-02-15T13:35:18Z</time>
      </trkpt>
      <trkpt lat="43.37662" lon="-0.55321">
        <ele>115.830075</ele>
        <time>2011-02-15T13:35:21Z</time>
      </trkpt>
      <trkpt lat="43.37658" lon="-0.55343">
        <ele>116.369414</ele>
        <time>2011-02-15T13:35:24Z</time>
      </trkpt>
      <trkpt lat="43.37655" lon="-0.55365">
        <ele>116.915894</ele>
        <time>2011-02-15T13:35:27Z</time>
      </trkpt>
      <trkpt lat="43.37656" lon="-0.55381">
        <ele>117.311318</ele>
        <time>2011-02-15T13:35:29Z</time>
      </trkpt>
      <trkpt lat="43.37659" lon="-0.55397">
        <ele>117.591135</ele>
        <time>2011-02-15T13:35:31Z</time>
      </trkpt>
      <trkpt lat="43.37662" lon="-0.55412">
        <ele>118.082961</ele>
        <time>2011-02-15T13:35:33Z</time>
      </trkpt>
      <trkpt lat="43.37666" lon="-0.55435">
        <ele>118.767144</ele>
        <time>2011-02-15T13:35:36Z</time>
      </trkpt>
      <trkpt lat="43.37668" lon="-0.55459">
        <ele>119.279641</ele>
        <time>2011-02-15T13:35:39Z</time>
      </trkpt>
      <trkpt lat="43.37662" lon="-0.55477">
        <ele>119.470084</ele>
        <time>2011-02-15T13:35:42Z</time>
      </trkpt>
      <trkpt lat="43.37651" lon="-0.5547">
        <ele>119.467258</ele>
        <time>2011-02-15T13:35:45Z</time>
      </trkpt>
      <trkpt lat="43.37643" lon="-0.5545">
        <ele>119.410846</ele>
        <time>2011-02-15T13:35:48Z</time>
      </trkpt>
      <trkpt lat="43.37635" lon="-0.55435">
        <ele>119.369192</ele>
        <time>2011-02-15T13:35:51Z</time>
      </trkpt>
      <trkpt lat="43.37627" lon="-0.55417">
        <ele>119.077552</ele>
        <time>2011-02-15T13:35:54Z</time>
      </trkpt>
      <trkpt lat="43.37621" lon="-0.55404">
        <ele>117.943595</ele>
        <time>2011-02-15T13:35:56Z</time>
      </trkpt>
      <trkpt lat="43.37615" lon="-0.55385">
        <ele>115.991516</ele>
        <time>2011-02-15T13:35:59Z</time>
      </trkpt>
      <trkpt lat="43.37612" lon="-0.55362">
        <ele>114.176218</ele>
        <time>2011-02-15T13:36:02Z</time>
      </trkpt>
      <trkpt lat="43.3761" lon="-0.5534">
        <ele>113.229203</ele>
        <time>2011-02-15T13:36:05Z</time>
      </trkpt>
      <trkpt lat="43.37609" lon="-0.55326">
        <ele>113.034298</ele>
        <time>2011-02-15T13:36:07Z</time>
      </trkpt>
      <trkpt lat="43.37606" lon="-0.55312">
        <ele>113.157581</ele>
        <time>2011-02-15T13:36:09Z</time>
      </trkpt>
      <trkpt lat="43.37599" lon="-0.55287">
        <ele>113.305853</ele>
        <time>2011-02-15T13:36:12Z</time>
      </trkpt>
      <trkpt lat="43.37596" lon="-0.5527">
        <ele>113.382241</ele>
        <time>2011-02-15T13:36:14Z</time>
      </trkpt>
      <trkpt lat="43.37591" lon="-0.55251">
        <ele>113.397436</ele>
        <time>2011-02-15T13:36:16Z</time>
      </trkpt>
      <trkpt lat="43.37587" lon="-0.55232">
        <ele>113.248955</ele>
        <time>2011-02-15T13:36:18Z</time>
      </trkpt>
      <trkpt lat="43.37584" lon="-0.55207">
        <ele>112.877035</ele>
        <time>2011-02-15T13:36:21Z</time>
      </trkpt>
      <trkpt lat="43.37583" lon="-0.55193">
        <ele>112.363352</ele>
        <time>2011-02-15T13:36:23Z</time>
      </trkpt>
      <trkpt lat="43.37582" lon="-0.5517">
        <ele>111.827106</ele>
        <time>2011-02-15T13:36:26Z</time>
      </trkpt>
      <trkpt lat="43.37581" lon="-0.55155">
        <ele>111.432077</ele>
        <time>2011-02-15T13:36:28Z</time>
      </trkpt>
      <trkpt lat="43.37581" lon="-0.5514">
        <ele>111.287812</ele>
        <time>2011-02-15T13:36:30Z</time>
      </trkpt>
      <trkpt lat="43.37582" lon="-0.55118">
        <ele>111.291897</ele>
        <time>2011-02-15T13:36:33Z</time>
      </trkpt>
      <trkpt lat="43.37582" lon="-0.55104">
        <ele>111.336097</ele>
        <time>2011-02-15T13:36:35Z</time>
      </trkpt>
      <trkpt lat="43.37581" lon="-0.55082">
        <ele>111.368194</ele>
        <time>2011-02-15T13:36:38Z</time>
      </trkpt>
      <trkpt lat="43.37572" lon="-0.55062">
        <ele>111.379773</ele>
        <time>2011-02-15T13:36:41Z</time>
      </trkpt>
      <trkpt lat="43.37564" lon="-0.55042">
        <ele>111.379374</ele>
        <time>2011-02-15T13:36:44Z</time>
      </trkpt>
      <trkpt lat="43.37559" lon="-0.5502">
        <ele>111.513986</ele>
        <time>2011-02-15T13:36:47Z</time>
      </trkpt>
      <trkpt lat="43.37556" lon="-0.55006">
        <ele>112.009516</ele>
        <time>2011-02-15T13:36:49Z</time>
      </trkpt>
      <trkpt lat="43.37554" lon="-0.54984">
        <ele>112.73797</ele>
        <time>2011-02-15T13:36:52Z</time>
      </trkpt>
      <trkpt lat="43.37552" lon="-0.5497">
        <ele>113.282745</ele>
        <time>2011-02-15T13:36:54Z</time>
      </trkpt>
      <trkpt lat="43.37548" lon="-0.54949">
        <ele>113.484848</ele>
        <time>2011-02-15T13:36:57Z</time>
      </trkpt>
      <trkpt lat="43.37545" lon="-0.54928">
        <ele>113.481603</ele>
        <time>2011-02-15T13:37:00Z</time>
      </trkpt>
      <trkpt lat="43.37543" lon="-0.54907">
        <ele>113.283445</ele>
        <time>2011-02-15T13:37:03Z</time>
      </trkpt>
      <trkpt lat="43.37542" lon="-0.54885">
        <ele>112.879439</ele>
        <time>2011-02-15T13:37:06Z</time>
      </trkpt>
      <trkpt lat="43.37541" lon="-0.54862">
        <ele>112.493935</ele>
        <time>2011-02-15T13:37:09Z</time>
      </trkpt>
      <trkpt lat="43.37539" lon="-0.54847">
        <ele>112.319144</ele>
        <time>2011-02-15T13:37:11Z</time>
      </trkpt>
      <trkpt lat="43.37536" lon="-0.54823">
        <ele>112.297561</ele>
        <time>2011-02-15T13:37:14Z</time>
      </trkpt>
      <trkpt lat="43.37534" lon="-0.548">
        <ele>112.331163</ele>
        <time>2011-02-15T13:37:17Z</time>
      </trkpt>
      <trkpt lat="43.37532" lon="-0.54785">
        <ele>112.362624</ele>
        <time>2011-02-15T13:37:19Z</time>
      </trkpt>
      <trkpt lat="43.37532" lon="-0.54771">
        <ele>112.376766</ele>
        <time>2011-02-15T13:37:21Z</time>
      </trkpt>
      <trkpt lat="43.37532" lon="-0.5475">
        <ele>112.378475</ele>
        <time>2011-02-15T13:37:24Z</time>
      </trkpt>
      <trkpt lat="43.3753" lon="-0.54737">
        <ele>112.375735</ele>
        <time>2011-02-15T13:37:26Z</time>
      </trkpt>
      <trkpt lat="43.37525" lon="-0.54717">
        <ele>112.235057</ele>
        <time>2011-02-15T13:37:29Z</time>
      </trkpt>
      <trkpt lat="43.37518" lon="-0.547">
        <ele>111.874153</ele>
        <time>2011-02-15T13:37:32Z</time>
      </trkpt>
      <trkpt lat="43.37509" lon="-0.54684">
        <ele>111.504726</ele>
        <time>2011-02-15T13:37:35Z</time>
      </trkpt>
      <trkpt lat="43.37502" lon="-0.54675">
        <ele>111.329778</ele>
        <time>2011-02-15T13:37:37Z</time>
      </trkpt>
      <trkpt lat="43.37489" lon="-0.54663">
        <ele>111.303491</ele>
        <time>2011-02-15T13:37:40Z</time>
      </trkpt>
      <trkpt lat="43.37479" lon="-0.54656">
        <ele>111.333572</ele>
        <time>2011-02-15T13:37:42Z</time>
      </trkpt>
      <trkpt lat="43.37469" lon="-0.54649">
        <ele>111.363687</ele>
        <time>2011-02-15T13:37:44Z</time>
      </trkpt>
      <trkpt lat="43.37452" lon="-0.54644">
        <ele>111.515926</ele>
        <time>2011-02-15T13:37:47Z</time>
      </trkpt>
      <trkpt lat="43.37437" lon="-0.54638">
        <ele>111.877784</ele>
        <time>2011-02-15T13:37:50Z</time>
      </trkpt>
      <trkpt lat="43.37425" lon="-0.54625">
        <ele>112.244676</ele>
        <time>2011-02-15T13:37:53Z</time>
      </trkpt>
      <trkpt lat="43.3742" lon="-0.54613">
        <ele>112.417465</ele>
        <time>2011-02-15T13:37:55Z</time>
      </trkpt>
      <trkpt lat="43.37415" lon="-0.54599">
        <ele>112.442861</ele>
        <time>2011-02-15T13:37:57Z</time>
      </trkpt>
      <trkpt lat="43.37408" lon="-0.54578">
        <ele>112.412726</ele>
        <time>2011-02-15T13:38:00Z</time>
      </trkpt>
      <trkpt lat="43.37401" lon="-0.54559">
        <ele>112.521002</ele>
        <time>2011-02-15T13:38:03Z</time>
      </trkpt>
      <trkpt lat="43.37397" lon="-0.54538">
        <ele>112.86699</ele>
        <time>2011-02-15T13:38:06Z</time>
      </trkpt>
      <trkpt lat="43.37389" lon="-0.5452">
        <ele>113.234497</ele>
        <time>2011-02-15T13:38:09Z</time>
      </trkpt>
      <trkpt lat="43.37375" lon="-0.54509">
        <ele>113.550467</ele>
        <time>2011-02-15T13:38:12Z</time>
      </trkpt>
      <trkpt lat="43.3736" lon="-0.545">
        <ele>113.939363</ele>
        <time>2011-02-15T13:38:15Z</time>
      </trkpt>
      <trkpt lat="43.37348" lon="-0.54489">
        <ele>114.279968</ele>
        <time>2011-02-15T13:38:18Z</time>
      </trkpt>
      <trkpt lat="43.37335" lon="-0.54476">
        <ele>114.425293</ele>
        <time>2011-02-15T13:38:21Z</time>
      </trkpt>
      <trkpt lat="43.37323" lon="-0.54461">
        <ele>114.437526</ele>
        <time>2011-02-15T13:38:24Z</time>
      </trkpt>
      <trkpt lat="43.37315" lon="-0.54451">
        <ele>114.405313</ele>
        <time>2011-02-15T13:38:26Z</time>
      </trkpt>
      <trkpt lat="43.37303" lon="-0.54434">
        <ele>114.377593</ele>
        <time>2011-02-15T13:38:29Z</time>
      </trkpt>
      <trkpt lat="43.37292" lon="-0.54417">
        <ele>114.227744</ele>
        <time>2011-02-15T13:38:32Z</time>
      </trkpt>
      <trkpt lat="43.37285" lon="-0.54408">
        <ele>113.866976</ele>
        <time>2011-02-15T13:38:34Z</time>
      </trkpt>
      <trkpt lat="43.37275" lon="-0.54393">
        <ele>113.500211</ele>
        <time>2011-02-15T13:38:37Z</time>
      </trkpt>
      <trkpt lat="43.37269" lon="-0.54382">
        <ele>113.327207</ele>
        <time>2011-02-15T13:38:39Z</time>
      </trkpt>
      <trkpt lat="43.37259" lon="-0.54366">
        <ele>113.439791</ele>
        <time>2011-02-15T13:38:42Z</time>
      </trkpt>
      <trkpt lat="43.37252" lon="-0.54355">
        <ele>113.967909</ele>
        <time>2011-02-15T13:38:44Z</time>
      </trkpt>
      <trkpt lat="43.3724" lon="-0.5434">
        <ele>114.727127</ele>
        <time>2011-02-15T13:38:47Z</time>
      </trkpt>
      <trkpt lat="43.3723" lon="-0.54323">
        <ele>115.423922</ele>
        <time>2011-02-15T13:38:50Z</time>
      </trkpt>
      <trkpt lat="43.37219" lon="-0.54306">
        <ele>116.125739</ele>
        <time>2011-02-15T13:38:53Z</time>
      </trkpt>
      <trkpt lat="43.37209" lon="-0.5429">
        <ele>116.849117</ele>
        <time>2011-02-15T13:38:56Z</time>
      </trkpt>
      <trkpt lat="43.37203" lon="-0.54277">
        <ele>117.331292</ele>
        <time>2011-02-15T13:38:58Z</time>
      </trkpt>
      <trkpt lat="43.372" lon="-0.54263">
        <ele>117.625947</ele>
        <time>2011-02-15T13:39:00Z</time>
      </trkpt>
      <trkpt lat="43.37196" lon="-0.54242">
        <ele>117.966129</ele>
        <time>2011-02-15T13:39:03Z</time>
      </trkpt>
      <trkpt lat="43.37194" lon="-0.54229">
        <ele>118.276172</ele>
        <time>2011-02-15T13:39:05Z</time>
      </trkpt>
      <trkpt lat="43.3719" lon="-0.54215">
        <ele>118.41241</ele>
        <time>2011-02-15T13:39:07Z</time>
      </trkpt>
      <trkpt lat="43.37186" lon="-0.54195">
        <ele>118.426539</ele>
        <time>2011-02-15T13:39:10Z</time>
      </trkpt>
      <trkpt lat="43.37181" lon="-0.54176">
        <ele>118.398354</ele>
        <time>2011-02-15T13:39:13Z</time>
      </trkpt>
      <trkpt lat="43.37177" lon="-0.54156">
        <ele>118.373126</ele>
        <time>2011-02-15T13:39:16Z</time>
      </trkpt>
      <trkpt lat="43.37175" lon="-0.54143">
        <ele>118.224035</ele>
        <time>2011-02-15T13:39:18Z</time>
      </trkpt>
      <trkpt lat="43.37171" lon="-0.54123">
        <ele>117.863193</ele>
        <time>2011-02-15T13:39:21Z</time>
      </trkpt>
      <trkpt lat="43.37168" lon="-0.54103">
        <ele>117.496193</ele>
        <time>2011-02-15T13:39:24Z</time>
      </trkpt>
      <trkpt lat="43.37165" lon="-0.5409">
        <ele>117.323034</ele>
        <time>2011-02-15T13:39:26Z</time>
      </trkpt>
      <trkpt lat="43.37162" lon="-0.54071">
        <ele>117.297417</ele>
        <time>2011-02-15T13:39:29Z</time>
      </trkpt>
      <trkpt lat="43.37159" lon="-0.54053">
        <ele>117.32754</ele>
        <time>2011-02-15T13:39:32Z</time>
      </trkpt>
      <trkpt lat="43.37156" lon="-0.54034">
        <ele>117.35753</ele>
        <time>2011-02-15T13:39:35Z</time>
      </trkpt>
      <trkpt lat="43.37157" lon="-0.54014">
        <ele>117.371534</ele>
        <time>2011-02-15T13:39:38Z</time>
      </trkpt>
      <trkpt lat="43.37159" lon="-0.54001">
        <ele>117.373551</ele>
        <time>2011-02-15T13:39:40Z</time>
      </trkpt>
      <trkpt lat="43.37152" lon="-0.53982">
        <ele>117.371087</ele>
        <time>2011-02-15T13:39:43Z</time>
      </trkpt>
      <trkpt lat="43.37144" lon="-0.5397">
        <ele>117.368659</ele>
        <time>2011-02-15T13:39:45Z</time>
      </trkpt>
      <trkpt lat="43.37139" lon="-0.53947">
        <ele>117.367543</ele>
        <time>2011-02-15T13:39:48Z</time>
      </trkpt>
      <trkpt lat="43.37139" lon="-0.53924">
        <ele>117.367415</ele>
        <time>2011-02-15T13:39:51Z</time>
      </trkpt>
      <trkpt lat="43.37142" lon="-0.53904">
        <ele>117.367653</ele>
        <time>2011-02-15T13:39:54Z</time>
      </trkpt>
      <trkpt lat="43.37146" lon="-0.53885">
        <ele>117.367874</ele>
        <time>2011-02-15T13:39:57Z</time>
      </trkpt>
      <trkpt lat="43.37152" lon="-0.53867">
        <ele>117.367973</ele>
        <time>2011-02-15T13:40:00Z</time>
      </trkpt>
      <trkpt lat="43.37158" lon="-0.53848">
        <ele>117.091658</ele>
        <time>2011-02-15T13:40:03Z</time>
      </trkpt>
      <trkpt lat="43.37163" lon="-0.53834">
        <ele>116.095613</ele>
        <time>2011-02-15T13:40:05Z</time>
      </trkpt>
      <trkpt lat="43.37171" lon="-0.53817">
        <ele>114.637089</ele>
        <time>2011-02-15T13:40:08Z</time>
      </trkpt>
      <trkpt lat="43.3718" lon="-0.53802">
        <ele>113.40964</ele>
        <time>2011-02-15T13:40:11Z</time>
      </trkpt>
      <trkpt lat="43.37189" lon="-0.5379">
        <ele>112.646305</ele>
        <time>2011-02-15T13:40:14Z</time>
      </trkpt>
      <trkpt lat="43.37199" lon="-0.53777">
        <ele>112.283911</ele>
        <time>2011-02-15T13:40:17Z</time>
      </trkpt>
      <trkpt lat="43.37206" lon="-0.53768">
        <ele>112.228907</ele>
        <time>2011-02-15T13:40:19Z</time>
      </trkpt>
      <trkpt lat="43.37212" lon="-0.53756">
        <ele>112.290821</ele>
        <time>2011-02-15T13:40:21Z</time>
      </trkpt>
      <trkpt lat="43.37221" lon="-0.53737">
        <ele>112.49125</ele>
        <time>2011-02-15T13:40:24Z</time>
      </trkpt>
      <trkpt lat="43.37229" lon="-0.53717">
        <ele>113.156695</ele>
        <time>2011-02-15T13:40:27Z</time>
      </trkpt>
      <trkpt lat="43.37236" lon="-0.53697">
        <ele>114.526525</ele>
        <time>2011-02-15T13:40:30Z</time>
      </trkpt>
      <trkpt lat="43.37233" lon="-0.53674">
        <ele>116.431718</ele>
        <time>2011-02-15T13:40:33Z</time>
      </trkpt>
      <trkpt lat="43.37229" lon="-0.53653">
        <ele>118.400621</ele>
        <time>2011-02-15T13:40:36Z</time>
      </trkpt>
      <trkpt lat="43.37223" lon="-0.53633">
        <ele>119.870735</ele>
        <time>2011-02-15T13:40:39Z</time>
      </trkpt>
      <trkpt lat="43.37212" lon="-0.53614">
        <ele>120.553452</ele>
        <time>2011-02-15T13:40:42Z</time>
      </trkpt>
      <trkpt lat="43.37201" lon="-0.53598">
        <ele>120.648001</ele>
        <time>2011-02-15T13:40:45Z</time>
      </trkpt>
      <trkpt lat="43.37189" lon="-0.53581">
        <ele>120.524605</ele>
        <time>2011-02-15T13:40:48Z</time>
      </trkpt>
      <trkpt lat="43.37181" lon="-0.5357">
        <ele>120.681253</ele>
        <time>2011-02-15T13:40:50Z</time>
      </trkpt>
      <trkpt lat="43.37172" lon="-0.53552">
        <ele>121.34619</ele>
        <time>2011-02-15T13:40:53Z</time>
      </trkpt>
      <trkpt lat="43.37165" lon="-0.53531">
        <ele>122.077931</ele>
        <time>2011-02-15T13:40:56Z</time>
      </trkpt>
      <trkpt lat="43.37161" lon="-0.53518">
        <ele>122.438736</ele>
        <time>2011-02-15T13:40:59Z</time>
      </trkpt>
      <trkpt lat="43.37154" lon="-0.53503">
        <ele>122.501578</ele>
        <time>2011-02-15T13:41:02Z</time>
      </trkpt>
      <trkpt lat="43.37146" lon="-0.53488">
        <ele>122.446048</ele>
        <time>2011-02-15T13:41:05Z</time>
      </trkpt>
      <trkpt lat="43.37137" lon="-0.53473">
        <ele>122.386393</ele>
        <time>2011-02-15T13:41:08Z</time>
      </trkpt>
      <trkpt lat="43.3713" lon="-0.53463">
        <ele>122.357359</ele>
        <time>2011-02-15T13:41:10Z</time>
      </trkpt>
      <trkpt lat="43.37122" lon="-0.5345">
        <ele>122.352525</ele>
        <time>2011-02-15T13:41:13Z</time>
      </trkpt>
      <trkpt lat="43.37115" lon="-0.5344">
        <ele>122.495348</ele>
        <time>2011-02-15T13:41:15Z</time>
      </trkpt>
      <trkpt lat="43.37109" lon="-0.5343">
        <ele>122.860118</ele>
        <time>2011-02-15T13:41:17Z</time>
      </trkpt>
      <trkpt lat="43.37098" lon="-0.53413">
        <ele>123.2319</ele>
        <time>2011-02-15T13:41:20Z</time>
      </trkpt>
      <trkpt lat="43.37098" lon="-0.53413">
        <ele>123.407539</ele>
        <time>2011-02-15T13:41:21Z</time>
      </trkpt>
      <trkpt lat="43.37084" lon="-0.53389">
        <ele>123.571863</ele>
        <time>2011-02-15T13:41:25Z</time>
      </trkpt>
      <trkpt lat="43.37077" lon="-0.53372">
        <ele>123.901376</ele>
        <time>2011-02-15T13:41:28Z</time>
      </trkpt>
      <trkpt lat="43.37071" lon="-0.53356">
        <ele>124.3787</ele>
        <time>2011-02-15T13:41:31Z</time>
      </trkpt>
      <trkpt lat="43.37066" lon="-0.53343">
        <ele>125.452451</ele>
        <time>2011-02-15T13:41:33Z</time>
      </trkpt>
      <trkpt lat="43.3706" lon="-0.53324">
        <ele>127.28601</ele>
        <time>2011-02-15T13:41:36Z</time>
      </trkpt>
      <trkpt lat="43.37051" lon="-0.53319">
        <ele>128.911563</ele>
        <time>2011-02-15T13:41:38Z</time>
      </trkpt>
      <trkpt lat="43.37042" lon="-0.53318">
        <ele>129.611503</ele>
        <time>2011-02-15T13:41:40Z</time>
      </trkpt>
      <trkpt lat="43.37029" lon="-0.53322">
        <ele>129.536514</ele>
        <time>2011-02-15T13:41:43Z</time>
      </trkpt>
      <trkpt lat="43.37019" lon="-0.53333">
        <ele>128.886559</ele>
        <time>2011-02-15T13:41:46Z</time>
      </trkpt>
      <trkpt lat="43.37015" lon="-0.53349">
        <ele>127.886842</ele>
        <time>2011-02-15T13:41:49Z</time>
      </trkpt>
      <trkpt lat="43.37017" lon="-0.53361">
        <ele>126.787911</ele>
        <time>2011-02-15T13:41:51Z</time>
      </trkpt>
      <trkpt lat="43.37017" lon="-0.53374">
        <ele>125.852194</ele>
        <time>2011-02-15T13:41:53Z</time>
      </trkpt>
      <trkpt lat="43.37017" lon="-0.53392">
        <ele>125.185281</ele>
        <time>2011-02-15T13:41:56Z</time>
      </trkpt>
      <trkpt lat="43.37007" lon="-0.53408">
        <ele>124.694371</ele>
        <time>2011-02-15T13:41:59Z</time>
      </trkpt>
      <trkpt lat="43.36999" lon="-0.53418">
        <ele>124.377039</ele>
        <time>2011-02-15T13:42:01Z</time>
      </trkpt>
      <trkpt lat="43.36989" lon="-0.53432">
        <ele>124.278229</ele>
        <time>2011-02-15T13:42:04Z</time>
      </trkpt>
      <trkpt lat="43.36982" lon="-0.53442">
        <ele>124.294246</ele>
        <time>2011-02-15T13:42:06Z</time>
      </trkpt>
      <trkpt lat="43.36971" lon="-0.53453">
        <ele>124.196248</ele>
        <time>2011-02-15T13:42:09Z</time>
      </trkpt>
      <trkpt lat="43.36963" lon="-0.53459">
        <ele>123.862068</ele>
        <time>2011-02-15T13:42:11Z</time>
      </trkpt>
      <trkpt lat="43.3695" lon="-0.53462">
        <ele>123.50054</ele>
        <time>2011-02-15T13:42:14Z</time>
      </trkpt>
      <trkpt lat="43.36937" lon="-0.53467">
        <ele>123.461994</ele>
        <time>2011-02-15T13:42:17Z</time>
      </trkpt>
      <trkpt lat="43.36926" lon="-0.53472">
        <ele>123.791875</ele>
        <time>2011-02-15T13:42:20Z</time>
      </trkpt>
      <trkpt lat="43.36916" lon="-0.53472">
        <ele>124.050874</ele>
        <time>2011-02-15T13:42:23Z</time>
      </trkpt>
      <trkpt lat="43.36904" lon="-0.5346">
        <ele>123.895703</ele>
        <time>2011-02-15T13:42:26Z</time>
      </trkpt>
      <trkpt lat="43.36896" lon="-0.53445">
        <ele>123.567067</ele>
        <time>2011-02-15T13:42:29Z</time>
      </trkpt>
      <trkpt lat="43.36891" lon="-0.5343">
        <ele>123.364112</ele>
        <time>2011-02-15T13:42:32Z</time>
      </trkpt>
      <trkpt lat="43.36888" lon="-0.53416">
        <ele>123.305072</ele>
        <time>2011-02-15T13:42:35Z</time>
      </trkpt>
      <trkpt lat="43.36882" lon="-0.53402">
        <ele>123.318468</ele>
        <time>2011-02-15T13:42:38Z</time>
      </trkpt>
      <trkpt lat="43.36874" lon="-0.53389">
        <ele>123.345354</ele>
        <time>2011-02-15T13:42:41Z</time>
      </trkpt>
      <trkpt lat="43.36867" lon="-0.53376">
        <ele>123.361755</ele>
        <time>2011-02-15T13:42:44Z</time>
      </trkpt>
      <trkpt lat="43.3686" lon="-0.53361">
        <ele>123.366435</ele>
        <time>2011-02-15T13:42:47Z</time>
      </trkpt>
      <trkpt lat="43.36847" lon="-0.53352">
        <ele>123.365295</ele>
        <time>2011-02-15T13:42:50Z</time>
      </trkpt>
      <trkpt lat="43.36833" lon="-0.53345">
        <ele>123.501296</ele>
        <time>2011-02-15T13:42:53Z</time>
      </trkpt>
      <trkpt lat="43.36819" lon="-0.53341">
        <ele>123.859877</ele>
        <time>2011-02-15T13:42:56Z</time>
      </trkpt>
      <trkpt lat="43.36806" lon="-0.53338">
        <ele>124.228942</ele>
        <time>2011-02-15T13:42:59Z</time>
      </trkpt>
      <trkpt lat="43.36794" lon="-0.53328">
        <ele>124.404299</ele>
        <time>2011-02-15T13:43:02Z</time>
      </trkpt>
      <trkpt lat="43.36787" lon="-0.53317">
        <ele>124.431006</ele>
        <time>2011-02-15T13:43:04Z</time>
      </trkpt>
      <trkpt lat="43.36782" lon="-0.53299">
        <ele>124.401126</ele>
        <time>2011-02-15T13:43:07Z</time>
      </trkpt>
      <trkpt lat="43.36779" lon="-0.53286">
        <ele>124.371048</ele>
        <time>2011-02-15T13:43:09Z</time>
      </trkpt>
      <trkpt lat="43.36777" lon="-0.53267">
        <ele>124.495107</ele>
        <time>2011-02-15T13:43:12Z</time>
      </trkpt>
      <trkpt lat="43.36775" lon="-0.53247">
        <ele>124.852924</ele>
        <time>2011-02-15T13:43:15Z</time>
      </trkpt>
      <trkpt lat="43.36772" lon="-0.53227">
        <ele>125.224807</ele>
        <time>2011-02-15T13:43:18Z</time>
      </trkpt>
      <trkpt lat="43.3677" lon="-0.53213">
        <ele>125.402501</ele>
        <time>2011-02-15T13:43:20Z</time>
      </trkpt>
      <trkpt lat="43.36768" lon="-0.53192">
        <ele>125.29201</ele>
        <time>2011-02-15T13:43:23Z</time>
      </trkpt>
      <trkpt lat="43.36766" lon="-0.53171">
        <ele>124.764187</ele>
        <time>2011-02-15T13:43:26Z</time>
      </trkpt>
      <trkpt lat="43.36766" lon="-0.53151">
        <ele>123.866483</ele>
        <time>2011-02-15T13:43:29Z</time>
      </trkpt>
      <trkpt lat="43.36768" lon="-0.53129">
        <ele>122.947704</ele>
        <time>2011-02-15T13:43:32Z</time>
      </trkpt>
      <trkpt lat="43.36766" lon="-0.53107">
        <ele>122.374409</ele>
        <time>2011-02-15T13:43:35Z</time>
      </trkpt>
      <trkpt lat="43.36756" lon="-0.53088">
        <ele>122.066939</ele>
        <time>2011-02-15T13:43:38Z</time>
      </trkpt>
      <trkpt lat="43.36749" lon="-0.53077">
        <ele>121.743176</ele>
        <time>2011-02-15T13:43:40Z</time>
      </trkpt>
      <trkpt lat="43.36742" lon="-0.53066">
        <ele>121.449194</ele>
        <time>2011-02-15T13:43:42Z</time>
      </trkpt>
      <trkpt lat="43.36733" lon="-0.53048">
        <ele>121.320377</ele>
        <time>2011-02-15T13:43:45Z</time>
      </trkpt>
      <trkpt lat="43.36724" lon="-0.53031">
        <ele>121.307273</ele>
        <time>2011-02-15T13:43:48Z</time>
      </trkpt>
      <trkpt lat="43.36716" lon="-0.53014">
        <ele>121.334123</ele>
        <time>2011-02-15T13:43:51Z</time>
      </trkpt>
      <trkpt lat="43.36708" lon="-0.53">
        <ele>121.358052</ele>
        <time>2011-02-15T13:43:54Z</time>
      </trkpt>
      <trkpt lat="43.36701" lon="-0.52989">
        <ele>121.368405</ele>
        <time>2011-02-15T13:43:56Z</time>
      </trkpt>
      <trkpt lat="43.3669" lon="-0.52972">
        <ele>121.507562</ele>
        <time>2011-02-15T13:43:59Z</time>
      </trkpt>
      <trkpt lat="43.36683" lon="-0.52961">
        <ele>121.86525</ele>
        <time>2011-02-15T13:44:01Z</time>
      </trkpt>
      <trkpt lat="43.36673" lon="-0.52944">
        <ele>122.370934</ele>
        <time>2011-02-15T13:44:04Z</time>
      </trkpt>
      <trkpt lat="43.36666" lon="-0.52933">
        <ele>122.905269</ele>
        <time>2011-02-15T13:44:06Z</time>
      </trkpt>
      <trkpt lat="43.36659" lon="-0.52923">
        <ele>123.301173</ele>
        <time>2011-02-15T13:44:08Z</time>
      </trkpt>
      <trkpt lat="43.36649" lon="-0.52906">
        <ele>123.446642</ele>
        <time>2011-02-15T13:44:11Z</time>
      </trkpt>
      <trkpt lat="43.36639" lon="-0.52889">
        <ele>123.443236</ele>
        <time>2011-02-15T13:44:14Z</time>
      </trkpt>
      <trkpt lat="43.36632" lon="-0.52878">
        <ele>123.399237</ele>
        <time>2011-02-15T13:44:16Z</time>
      </trkpt>
      <trkpt lat="43.36623" lon="-0.52861">
        <ele>123.367128</ele>
        <time>2011-02-15T13:44:19Z</time>
      </trkpt>
      <trkpt lat="43.36617" lon="-0.52849">
        <ele>123.355524</ele>
        <time>2011-02-15T13:44:21Z</time>
      </trkpt>
      <trkpt lat="43.36613" lon="-0.52836">
        <ele>123.355948</ele>
        <time>2011-02-15T13:44:23Z</time>
      </trkpt>
      <trkpt lat="43.36608" lon="-0.52816">
        <ele>123.359573</ele>
        <time>2011-02-15T13:44:26Z</time>
      </trkpt>
      <trkpt lat="43.36602" lon="-0.52797">
        <ele>123.362178</ele>
        <time>2011-02-15T13:44:29Z</time>
      </trkpt>
      <trkpt lat="43.36596" lon="-0.52777">
        <ele>123.363104</ele>
        <time>2011-02-15T13:44:32Z</time>
      </trkpt>
      <trkpt lat="43.3659" lon="-0.52756">
        <ele>123.2249</ele>
        <time>2011-02-15T13:44:35Z</time>
      </trkpt>
      <trkpt lat="43.36586" lon="-0.52734">
        <ele>122.864757</ele>
        <time>2011-02-15T13:44:38Z</time>
      </trkpt>
      <trkpt lat="43.36582" lon="-0.52713">
        <ele>122.35699</ele>
        <time>2011-02-15T13:44:41Z</time>
      </trkpt>
      <trkpt lat="43.3658" lon="-0.52699">
        <ele>121.821814</ele>
        <time>2011-02-15T13:44:43Z</time>
      </trkpt>
      <trkpt lat="43.36577" lon="-0.52678">
        <ele>121.287717</ele>
        <time>2011-02-15T13:44:46Z</time>
      </trkpt>
      <trkpt lat="43.36577" lon="-0.52664">
        <ele>120.506282</ele>
        <time>2011-02-15T13:44:48Z</time>
      </trkpt>
      <trkpt lat="43.36575" lon="-0.52643">
        <ele>119.420758</ele>
        <time>2011-02-15T13:44:51Z</time>
      </trkpt>
      <trkpt lat="43.3657" lon="-0.52622">
        <ele>118.550801</ele>
        <time>2011-02-15T13:44:54Z</time>
      </trkpt>
      <trkpt lat="43.36564" lon="-0.52604">
        <ele>118.205912</ele>
        <time>2011-02-15T13:44:57Z</time>
      </trkpt>
      <trkpt lat="43.36556" lon="-0.52588">
        <ele>118.194438</ele>
        <time>2011-02-15T13:45:00Z</time>
      </trkpt>
      <trkpt lat="43.36546" lon="-0.52575">
        <ele>118.284085</ele>
        <time>2011-02-15T13:45:03Z</time>
      </trkpt>
      <trkpt lat="43.36534" lon="-0.52566">
        <ele>118.354787</ele>
        <time>2011-02-15T13:45:06Z</time>
      </trkpt>
      <trkpt lat="43.36521" lon="-0.52556">
        <ele>118.382437</ele>
        <time>2011-02-15T13:45:09Z</time>
      </trkpt>
      <trkpt lat="43.36512" lon="-0.52549">
        <ele>118.383103</ele>
        <time>2011-02-15T13:45:11Z</time>
      </trkpt>
      <trkpt lat="43.36499" lon="-0.52538">
        <ele>118.513904</ele>
        <time>2011-02-15T13:45:14Z</time>
      </trkpt>
      <trkpt lat="43.36488" lon="-0.52533">
        <ele>118.868041</ele>
        <time>2011-02-15T13:45:17Z</time>
      </trkpt>
      <trkpt lat="43.3648" lon="-0.52544">
        <ele>119.23524</ele>
        <time>2011-02-15T13:45:20Z</time>
      </trkpt>
      <trkpt lat="43.36474" lon="-0.52554">
        <ele>119.410459</ele>
        <time>2011-02-15T13:45:22Z</time>
      </trkpt>
      <trkpt lat="43.36458" lon="-0.52558">
        <ele>119.437591</ele>
        <time>2011-02-15T13:45:25Z</time>
      </trkpt>
      <trkpt lat="43.36447" lon="-0.52554">
        <ele>119.408052</ele>
        <time>2011-02-15T13:45:28Z</time>
      </trkpt>
      <trkpt lat="43.36438" lon="-0.52545">
        <ele>119.2399</ele>
        <time>2011-02-15T13:45:31Z</time>
      </trkpt>
      <trkpt lat="43.36429" lon="-0.52536">
        <ele>118.727665</ele>
        <time>2011-02-15T13:45:34Z</time>
      </trkpt>
      <trkpt lat="43.36421" lon="-0.52525">
        <ele>117.996189</ele>
        <time>2011-02-15T13:45:37Z</time>
      </trkpt>
      <trkpt lat="43.36412" lon="-0.52513">
        <ele>117.453893</ele>
        <time>2011-02-15T13:45:40Z</time>
      </trkpt>
      <trkpt lat="43.36404" lon="-0.52506">
        <ele>117.254515</ele>
        <time>2011-02-15T13:45:42Z</time>
      </trkpt>
      <trkpt lat="43.3639" lon="-0.525">
        <ele>117.259101</ele>
        <time>2011-02-15T13:45:45Z</time>
      </trkpt>
      <trkpt lat="43.36376" lon="-0.52496">
        <ele>117.319357</ele>
        <time>2011-02-15T13:45:48Z</time>
      </trkpt>
      <trkpt lat="43.36362" lon="-0.52493">
        <ele>117.36336</ele>
        <time>2011-02-15T13:45:51Z</time>
      </trkpt>
      <trkpt lat="43.36353" lon="-0.5249">
        <ele>117.379281</ele>
        <time>2011-02-15T13:45:53Z</time>
      </trkpt>
      <trkpt lat="43.36344" lon="-0.52488">
        <ele>117.378716</ele>
        <time>2011-02-15T13:45:55Z</time>
      </trkpt>
      <trkpt lat="43.3633" lon="-0.52484">
        <ele>117.511903</ele>
        <time>2011-02-15T13:45:58Z</time>
      </trkpt>
      <trkpt lat="43.36321" lon="-0.52481">
        <ele>117.868155</ele>
        <time>2011-02-15T13:46:00Z</time>
      </trkpt>
      <trkpt lat="43.36307" lon="-0.52477">
        <ele>118.236259</ele>
        <time>2011-02-15T13:46:03Z</time>
      </trkpt>
      <trkpt lat="43.36297" lon="-0.52474">
        <ele>118.549728</ele>
        <time>2011-02-15T13:46:05Z</time>
      </trkpt>
      <trkpt lat="43.36287" lon="-0.52472">
        <ele>118.936525</ele>
        <time>2011-02-15T13:46:07Z</time>
      </trkpt>
      <trkpt lat="43.36273" lon="-0.52467">
        <ele>119.414403</ele>
        <time>2011-02-15T13:46:10Z</time>
      </trkpt>
      <trkpt lat="43.36259" lon="-0.52461">
        <ele>120.057683</ele>
        <time>2011-02-15T13:46:13Z</time>
      </trkpt>
      <trkpt lat="43.3625" lon="-0.52457">
        <ele>120.799391</ele>
        <time>2011-02-15T13:46:15Z</time>
      </trkpt>
      <trkpt lat="43.36235" lon="-0.52451">
        <ele>121.450189</ele>
        <time>2011-02-15T13:46:18Z</time>
      </trkpt>
      <trkpt lat="43.36221" lon="-0.52442">
        <ele>122.122372</ele>
        <time>2011-02-15T13:46:21Z</time>
      </trkpt>
      <trkpt lat="43.36212" lon="-0.52435">
        <ele>122.836536</ele>
        <time>2011-02-15T13:46:23Z</time>
      </trkpt>
      <trkpt lat="43.36199" lon="-0.52423">
        <ele>123.32022</ele>
        <time>2011-02-15T13:46:26Z</time>
      </trkpt>
      <trkpt lat="43.36187" lon="-0.52408">
        <ele>123.618624</ele>
        <time>2011-02-15T13:46:29Z</time>
      </trkpt>
      <trkpt lat="43.36175" lon="-0.52392">
        <ele>123.961162</ele>
        <time>2011-02-15T13:46:32Z</time>
      </trkpt>
      <trkpt lat="43.36164" lon="-0.52375">
        <ele>124.271885</ele>
        <time>2011-02-15T13:46:35Z</time>
      </trkpt>
      <trkpt lat="43.36154" lon="-0.52356">
        <ele>124.54612</ele>
        <time>2011-02-15T13:46:38Z</time>
      </trkpt>
      <trkpt lat="43.36145" lon="-0.52337">
        <ele>125.057964</ele>
        <time>2011-02-15T13:46:41Z</time>
      </trkpt>
      <trkpt lat="43.36137" lon="-0.52318">
        <ele>125.758879</ele>
        <time>2011-02-15T13:46:44Z</time>
      </trkpt>
      <trkpt lat="43.36131" lon="-0.52305">
        <ele>126.278287</ele>
        <time>2011-02-15T13:46:46Z</time>
      </trkpt>
      <trkpt lat="43.36126" lon="-0.52292">
        <ele>126.46916</ele>
        <time>2011-02-15T13:46:48Z</time>
      </trkpt>
      <trkpt lat="43.36117" lon="-0.52272">
        <ele>126.464703</ele>
        <time>2011-02-15T13:46:51Z</time>
      </trkpt>
      <trkpt lat="43.36111" lon="-0.52259">
        <ele>126.268812</ele>
        <time>2011-02-15T13:46:53Z</time>
      </trkpt>
      <trkpt lat="43.36102" lon="-0.5224">
        <ele>125.866829</ele>
        <time>2011-02-15T13:46:56Z</time>
      </trkpt>
      <trkpt lat="43.36092" lon="-0.52221">
        <ele>125.482208</ele>
        <time>2011-02-15T13:46:59Z</time>
      </trkpt>
      <trkpt lat="43.36082" lon="-0.52201">
        <ele>125.445692</ele>
        <time>2011-02-15T13:47:02Z</time>
      </trkpt>
      <trkpt lat="43.36072" lon="-0.52181">
        <ele>125.783805</ele>
        <time>2011-02-15T13:47:05Z</time>
      </trkpt>
      <trkpt lat="43.36063" lon="-0.5216">
        <ele>126.18665</ele>
        <time>2011-02-15T13:47:08Z</time>
      </trkpt>
      <trkpt lat="43.36055" lon="-0.52139">
        <ele>126.393249</ele>
        <time>2011-02-15T13:47:11Z</time>
      </trkpt>
      <trkpt lat="43.36047" lon="-0.52119">
        <ele>126.433826</ele>
        <time>2011-02-15T13:47:14Z</time>
      </trkpt>
      <trkpt lat="43.36042" lon="-0.52106">
        <ele>126.267321</ele>
        <time>2011-02-15T13:47:16Z</time>
      </trkpt>
      <trkpt lat="43.36034" lon="-0.52087">
        <ele>125.874614</ele>
        <time>2011-02-15T13:47:19Z</time>
      </trkpt>
      <trkpt lat="43.36029" lon="-0.52074">
        <ele>125.488591</ele>
        <time>2011-02-15T13:47:21Z</time>
      </trkpt>
      <trkpt lat="43.36023" lon="-0.52055">
        <ele>125.31019</ele>
        <time>2011-02-15T13:47:24Z</time>
      </trkpt>
      <trkpt lat="43.36018" lon="-0.52043">
        <ele>125.286016</ele>
        <time>2011-02-15T13:47:26Z</time>
      </trkpt>
      <trkpt lat="43.36011" lon="-0.52027">
        <ele>125.318678</ele>
        <time>2011-02-15T13:47:29Z</time>
      </trkpt>
      <trkpt lat="43.36006" lon="-0.52016">
        <ele>125.350142</ele>
        <time>2011-02-15T13:47:31Z</time>
      </trkpt>
      <trkpt lat="43.36001" lon="-0.52005">
        <ele>125.36452</ele>
        <time>2011-02-15T13:47:33Z</time>
      </trkpt>
      <trkpt lat="43.35996" lon="-0.51994">
        <ele>125.3664</ele>
        <time>2011-02-15T13:47:35Z</time>
      </trkpt>
      <trkpt lat="43.35988" lon="-0.51979">
        <ele>125.363743</ele>
        <time>2011-02-15T13:47:38Z</time>
      </trkpt>
      <trkpt lat="43.35981" lon="-0.51962">
        <ele>125.361217</ele>
        <time>2011-02-15T13:47:41Z</time>
      </trkpt>
      <trkpt lat="43.35973" lon="-0.51946">
        <ele>125.360083</ele>
        <time>2011-02-15T13:47:44Z</time>
      </trkpt>
      <trkpt lat="43.35965" lon="-0.51931">
        <ele>125.359959</ele>
        <time>2011-02-15T13:47:47Z</time>
      </trkpt>
      <trkpt lat="43.35957" lon="-0.51915">
        <ele>125.360198</ele>
        <time>2011-02-15T13:47:50Z</time>
      </trkpt>
      <trkpt lat="43.35949" lon="-0.519">
        <ele>125.360425</ele>
        <time>2011-02-15T13:47:53Z</time>
      </trkpt>
      <trkpt lat="43.3594" lon="-0.51884">
        <ele>125.360537</ele>
        <time>2011-02-15T13:47:56Z</time>
      </trkpt>
      <trkpt lat="43.35931" lon="-0.51869">
        <ele>125.360567</ele>
        <time>2011-02-15T13:47:59Z</time>
      </trkpt>
      <trkpt lat="43.35923" lon="-0.51853">
        <ele>125.360569</ele>
        <time>2011-02-15T13:48:02Z</time>
      </trkpt>
      <trkpt lat="43.35914" lon="-0.51837">
        <ele>125.49875</ele>
        <time>2011-02-15T13:48:05Z</time>
      </trkpt>
      <trkpt lat="43.35908" lon="-0.51826">
        <ele>125.858651</ele>
        <time>2011-02-15T13:48:07Z</time>
      </trkpt>
      <trkpt lat="43.35903" lon="-0.51815">
        <ele>126.228099</ele>
        <time>2011-02-15T13:48:09Z</time>
      </trkpt>
      <trkpt lat="43.35894" lon="-0.51799">
        <ele>126.541553</ele>
        <time>2011-02-15T13:48:12Z</time>
      </trkpt>
      <trkpt lat="43.35889" lon="-0.51788">
        <ele>126.927991</ele>
        <time>2011-02-15T13:48:14Z</time>
      </trkpt>
      <trkpt lat="43.35881" lon="-0.51771">
        <ele>127.267454</ele>
        <time>2011-02-15T13:48:17Z</time>
      </trkpt>
      <trkpt lat="43.35873" lon="-0.51754">
        <ele>127.412622</ele>
        <time>2011-02-15T13:48:20Z</time>
      </trkpt>
      <trkpt lat="43.35865" lon="-0.51738">
        <ele>127.425072</ele>
        <time>2011-02-15T13:48:23Z</time>
      </trkpt>
      <trkpt lat="43.35856" lon="-0.51721">
        <ele>127.393081</ele>
        <time>2011-02-15T13:48:26Z</time>
      </trkpt>
      <trkpt lat="43.35848" lon="-0.51704">
        <ele>127.503666</ele>
        <time>2011-02-15T13:48:29Z</time>
      </trkpt>
      <trkpt lat="43.3584" lon="-0.51687">
        <ele>127.851936</ele>
        <time>2011-02-15T13:48:32Z</time>
      </trkpt>
      <trkpt lat="43.3583" lon="-0.51671">
        <ele>128.220503</ele>
        <time>2011-02-15T13:48:35Z</time>
      </trkpt>
      <trkpt lat="43.35823" lon="-0.51662">
        <ele>128.398434</ele>
        <time>2011-02-15T13:48:37Z</time>
      </trkpt>
      <trkpt lat="43.35814" lon="-0.51654">
        <ele>128.565408</ele>
        <time>2011-02-15T13:48:39Z</time>
      </trkpt>
      <trkpt lat="43.358" lon="-0.51643">
        <ele>129.03444</ele>
        <time>2011-02-15T13:48:42Z</time>
      </trkpt>
      <trkpt lat="43.35785" lon="-0.51631">
        <ele>129.733729</ele>
        <time>2011-02-15T13:48:45Z</time>
      </trkpt>
      <trkpt lat="43.35771" lon="-0.51619">
        <ele>130.264115</ele>
        <time>2011-02-15T13:48:48Z</time>
      </trkpt>
      <trkpt lat="43.35757" lon="-0.51606">
        <ele>130.601874</ele>
        <time>2011-02-15T13:48:51Z</time>
      </trkpt>
      <trkpt lat="43.35743" lon="-0.51594">
        <ele>130.960699</ele>
        <time>2011-02-15T13:48:54Z</time>
      </trkpt>
      <trkpt lat="43.35731" lon="-0.51582">
        <ele>131.272457</ele>
        <time>2011-02-15T13:48:57Z</time>
      </trkpt>
      <trkpt lat="43.35719" lon="-0.51571">
        <ele>131.404656</ele>
        <time>2011-02-15T13:49:00Z</time>
      </trkpt>
      <trkpt lat="43.35707" lon="-0.51558">
        <ele>131.415245</ele>
        <time>2011-02-15T13:49:03Z</time>
      </trkpt>
      <trkpt lat="43.35696" lon="-0.51548">
        <ele>131.523712</ele>
        <time>2011-02-15T13:49:06Z</time>
      </trkpt>
      <trkpt lat="43.35685" lon="-0.51538">
        <ele>131.858224</ele>
        <time>2011-02-15T13:49:09Z</time>
      </trkpt>
      <trkpt lat="43.35677" lon="-0.51531">
        <ele>132.21703</ele>
        <time>2011-02-15T13:49:11Z</time>
      </trkpt>
      <trkpt lat="43.35666" lon="-0.5152">
        <ele>132.529703</ele>
        <time>2011-02-15T13:49:14Z</time>
      </trkpt>
      <trkpt lat="43.35658" lon="-0.51514">
        <ele>132.918565</ele>
        <time>2011-02-15T13:49:16Z</time>
      </trkpt>
      <trkpt lat="43.3565" lon="-0.51507">
        <ele>133.260058</ele>
        <time>2011-02-15T13:49:18Z</time>
      </trkpt>
      <trkpt lat="43.35637" lon="-0.51496">
        <ele>133.406053</ele>
        <time>2011-02-15T13:49:21Z</time>
      </trkpt>
      <trkpt lat="43.35622" lon="-0.51484">
        <ele>133.418538</ele>
        <time>2011-02-15T13:49:24Z</time>
      </trkpt>
      <trkpt lat="43.35613" lon="-0.51477">
        <ele>133.386329</ele>
        <time>2011-02-15T13:49:26Z</time>
      </trkpt>
      <trkpt lat="43.35599" lon="-0.51465">
        <ele>133.496712</ele>
        <time>2011-02-15T13:49:29Z</time>
      </trkpt>
      <trkpt lat="43.3559" lon="-0.51458">
        <ele>133.706685</ele>
        <time>2011-02-15T13:49:31Z</time>
      </trkpt>
      <trkpt lat="43.35581" lon="-0.5145">
        <ele>133.853489</ele>
        <time>2011-02-15T13:49:33Z</time>
      </trkpt>
      <trkpt lat="43.35567" lon="-0.51437">
        <ele>134.021848</ele>
        <time>2011-02-15T13:49:36Z</time>
      </trkpt>
      <trkpt lat="43.35554" lon="-0.51423">
        <ele>134.244783</ele>
        <time>2011-02-15T13:49:39Z</time>
      </trkpt>
      <trkpt lat="43.35544" lon="-0.51407">
        <ele>134.364449</ele>
        <time>2011-02-15T13:49:42Z</time>
      </trkpt>
      <trkpt lat="43.35534" lon="-0.51389">
        <ele>134.390908</ele>
        <time>2011-02-15T13:49:45Z</time>
      </trkpt>
      <trkpt lat="43.35529" lon="-0.51377">
        <ele>134.238531</ele>
        <time>2011-02-15T13:49:47Z</time>
      </trkpt>
      <trkpt lat="43.35522" lon="-0.51358">
        <ele>133.860426</ele>
        <time>2011-02-15T13:49:50Z</time>
      </trkpt>
      <trkpt lat="43.35514" lon="-0.51338">
        <ele>133.343176</ele>
        <time>2011-02-15T13:49:53Z</time>
      </trkpt>
      <trkpt lat="43.35508" lon="-0.51325">
        <ele>132.805988</ele>
        <time>2011-02-15T13:49:55Z</time>
      </trkpt>
      <trkpt lat="43.35503" lon="-0.51312">
        <ele>132.411249</ele>
        <time>2011-02-15T13:49:57Z</time>
      </trkpt>
      <trkpt lat="43.35497" lon="-0.51293">
        <ele>132.267463</ele>
        <time>2011-02-15T13:50:00Z</time>
      </trkpt>
      <trkpt lat="43.35491" lon="-0.51273">
        <ele>132.2718</ele>
        <time>2011-02-15T13:50:03Z</time>
      </trkpt>
      <trkpt lat="43.35483" lon="-0.51254">
        <ele>132.177871</ele>
        <time>2011-02-15T13:50:06Z</time>
      </trkpt>
      <trkpt lat="43.35472" lon="-0.51238">
        <ele>131.850057</ele>
        <time>2011-02-15T13:50:09Z</time>
      </trkpt>
      <trkpt lat="43.35466" lon="-0.51228">
        <ele>131.492147</ele>
        <time>2011-02-15T13:50:11Z</time>
      </trkpt>
      <trkpt lat="43.35457" lon="-0.51211">
        <ele>131.178234</ele>
        <time>2011-02-15T13:50:14Z</time>
      </trkpt>
      <trkpt lat="43.35447" lon="-0.51197">
        <ele>130.650016</ele>
        <time>2011-02-15T13:50:17Z</time>
      </trkpt>
      <trkpt lat="43.3544" lon="-0.51181">
        <ele>129.809936</ele>
        <time>2011-02-15T13:50:20Z</time>
      </trkpt>
      <trkpt lat="43.35433" lon="-0.51165">
        <ele>128.93457</ele>
        <time>2011-02-15T13:50:23Z</time>
      </trkpt>
      <trkpt lat="43.35425" lon="-0.5115">
        <ele>128.377504</ele>
        <time>2011-02-15T13:50:26Z</time>
      </trkpt>
      <trkpt lat="43.3542" lon="-0.51139">
        <ele>128.208017</ele>
        <time>2011-02-15T13:50:28Z</time>
      </trkpt>
      <trkpt lat="43.35414" lon="-0.51128">
        <ele>128.239293</ele>
        <time>2011-02-15T13:50:30Z</time>
      </trkpt>
      <trkpt lat="43.35409" lon="-0.51116">
        <ele>128.311109</ele>
        <time>2011-02-15T13:50:32Z</time>
      </trkpt>
      <trkpt lat="43.354" lon="-0.51099">
        <ele>128.356205</ele>
        <time>2011-02-15T13:50:35Z</time>
      </trkpt>
      <trkpt lat="43.35389" lon="-0.51082">
        <ele>128.231491</ele>
        <time>2011-02-15T13:50:38Z</time>
      </trkpt>
      <trkpt lat="43.35378" lon="-0.51065">
        <ele>127.868902</ele>
        <time>2011-02-15T13:50:41Z</time>
      </trkpt>
      <trkpt lat="43.35369" lon="-0.51047">
        <ele>127.493619</ele>
        <time>2011-02-15T13:50:44Z</time>
      </trkpt>
      <trkpt lat="43.3536" lon="-0.51029">
        <ele>127.314725</ele>
        <time>2011-02-15T13:50:47Z</time>
      </trkpt>
      <trkpt lat="43.35351" lon="-0.51011">
        <ele>127.148959</ele>
        <time>2011-02-15T13:50:50Z</time>
      </trkpt>
      <trkpt lat="43.35342" lon="-0.50995">
        <ele>126.819315</ele>
        <time>2011-02-15T13:50:53Z</time>
      </trkpt>
      <trkpt lat="43.35332" lon="-0.50979">
        <ele>126.480498</ele>
        <time>2011-02-15T13:50:56Z</time>
      </trkpt>
      <trkpt lat="43.35322" lon="-0.50965">
        <ele>126.319634</ele>
        <time>2011-02-15T13:50:59Z</time>
      </trkpt>
      <trkpt lat="43.35313" lon="-0.5095">
        <ele>126.295198</ele>
        <time>2011-02-15T13:51:02Z</time>
      </trkpt>
      <trkpt lat="43.3531" lon="-0.50938">
        <ele>126.184493</ele>
        <time>2011-02-15T13:51:04Z</time>
      </trkpt>
      <trkpt lat="43.35307" lon="-0.50926">
        <ele>125.852249</ele>
        <time>2011-02-15T13:51:06Z</time>
      </trkpt>
      <trkpt lat="43.35303" lon="-0.50914">
        <ele>125.495793</ele>
        <time>2011-02-15T13:51:08Z</time>
      </trkpt>
      <trkpt lat="43.35297" lon="-0.50895">
        <ele>125.322413</ele>
        <time>2011-02-15T13:51:11Z</time>
      </trkpt>
      <trkpt lat="43.3529" lon="-0.50877">
        <ele>125.293604</ele>
        <time>2011-02-15T13:51:14Z</time>
      </trkpt>
      <trkpt lat="43.35285" lon="-0.5086">
        <ele>125.321349</ele>
        <time>2011-02-15T13:51:17Z</time>
      </trkpt>
      <trkpt lat="43.35279" lon="-0.50842">
        <ele>125.350431</ele>
        <time>2011-02-15T13:51:20Z</time>
      </trkpt>
      <trkpt lat="43.35276" lon="-0.5083">
        <ele>125.364398</ele>
        <time>2011-02-15T13:51:22Z</time>
      </trkpt>
      <trkpt lat="43.35271" lon="-0.50813">
        <ele>125.366619</ele>
        <time>2011-02-15T13:51:25Z</time>
      </trkpt>
      <trkpt lat="43.35266" lon="-0.50796">
        <ele>125.364317</ele>
        <time>2011-02-15T13:51:28Z</time>
      </trkpt>
      <trkpt lat="43.35262" lon="-0.5078">
        <ele>125.361963</ele>
        <time>2011-02-15T13:51:31Z</time>
      </trkpt>
      <trkpt lat="43.35258" lon="-0.50766">
        <ele>125.222712</ele>
        <time>2011-02-15T13:51:34Z</time>
      </trkpt>
      <trkpt lat="43.35255" lon="-0.50753">
        <ele>124.862748</ele>
        <time>2011-02-15T13:51:38Z</time>
      </trkpt>
      <trkpt lat="43.3525" lon="-0.5074">
        <ele>124.63176</ele>
        <time>2011-02-15T13:51:45Z</time>
      </trkpt>
      <trkpt lat="43.3524" lon="-0.50726">
        <ele>124.816598</ele>
        <time>2011-02-15T13:51:49Z</time>
      </trkpt>
      <trkpt lat="43.35229" lon="-0.50719">
        <ele>125.297773</ele>
        <time>2011-02-15T13:51:52Z</time>
      </trkpt>
      <trkpt lat="43.35217" lon="-0.50711">
        <ele>126.001124</ele>
        <time>2011-02-15T13:51:55Z</time>
      </trkpt>
      <trkpt lat="43.35209" lon="-0.50703">
        <ele>126.787089</ele>
        <time>2011-02-15T13:51:57Z</time>
      </trkpt>
      <trkpt lat="43.35202" lon="-0.50686">
        <ele>127.315885</ele>
        <time>2011-02-15T13:52:00Z</time>
      </trkpt>
      <trkpt lat="43.352" lon="-0.50668">
        <ele>127.489592</ele>
        <time>2011-02-15T13:52:03Z</time>
      </trkpt>
      <trkpt lat="43.352" lon="-0.50651">
        <ele>127.469556</ele>
        <time>2011-02-15T13:52:06Z</time>
      </trkpt>
      <trkpt lat="43.35198" lon="-0.50634">
        <ele>127.404997</ele>
        <time>2011-02-15T13:52:09Z</time>
      </trkpt>
      <trkpt lat="43.35193" lon="-0.50618">
        <ele>127.362151</ele>
        <time>2011-02-15T13:52:12Z</time>
      </trkpt>
      <trkpt lat="43.35184" lon="-0.50601">
        <ele>127.348326</ele>
        <time>2011-02-15T13:52:15Z</time>
      </trkpt>
      <trkpt lat="43.35173" lon="-0.50585">
        <ele>127.350161</ele>
        <time>2011-02-15T13:52:18Z</time>
      </trkpt>
      <trkpt lat="43.35162" lon="-0.5057">
        <ele>127.355504</ele>
        <time>2011-02-15T13:52:21Z</time>
      </trkpt>
      <trkpt lat="43.35154" lon="-0.50561">
        <ele>127.35902</ele>
        <time>2011-02-15T13:52:23Z</time>
      </trkpt>
      <trkpt lat="43.35142" lon="-0.5055">
        <ele>127.360168</ele>
        <time>2011-02-15T13:52:26Z</time>
      </trkpt>
      <trkpt lat="43.35133" lon="-0.50544">
        <ele>127.360042</ele>
        <time>2011-02-15T13:52:28Z</time>
      </trkpt>
      <trkpt lat="43.3512" lon="-0.50538">
        <ele>127.359621</ele>
        <time>2011-02-15T13:52:31Z</time>
      </trkpt>
      <trkpt lat="43.3511" lon="-0.50535">
        <ele>127.359338</ele>
        <time>2011-02-15T13:52:33Z</time>
      </trkpt>
      <trkpt lat="43.35101" lon="-0.50533">
        <ele>127.359243</ele>
        <time>2011-02-15T13:52:35Z</time>
      </trkpt>
      <trkpt lat="43.35087" lon="-0.50529">
        <ele>127.35925</ele>
        <time>2011-02-15T13:52:38Z</time>
      </trkpt>
      <trkpt lat="43.3507" lon="-0.50523">
        <ele>127.359283</ele>
        <time>2011-02-15T13:52:41Z</time>
      </trkpt>
      <trkpt lat="43.35052" lon="-0.50513">
        <ele>127.497467</ele>
        <time>2011-02-15T13:52:44Z</time>
      </trkpt>
      <trkpt lat="43.35036" lon="-0.50499">
        <ele>127.995479</ele>
        <time>2011-02-15T13:52:47Z</time>
      </trkpt>
      <trkpt lat="43.35022" lon="-0.50485">
        <ele>128.724701</ele>
        <time>2011-02-15T13:52:50Z</time>
      </trkpt>
      <trkpt lat="43.35012" lon="-0.50476">
        <ele>129.269312</ele>
        <time>2011-02-15T13:52:52Z</time>
      </trkpt>
      <trkpt lat="43.35004" lon="-0.50466">
        <ele>129.471069</ele>
        <time>2011-02-15T13:52:54Z</time>
      </trkpt>
      <trkpt lat="43.34992" lon="-0.5045">
        <ele>129.467609</ele>
        <time>2011-02-15T13:52:57Z</time>
      </trkpt>
      <trkpt lat="43.3498" lon="-0.50435">
        <ele>129.407516</ele>
        <time>2011-02-15T13:53:00Z</time>
      </trkpt>
      <trkpt lat="43.34972" lon="-0.50426">
        <ele>129.363308</ele>
        <time>2011-02-15T13:53:02Z</time>
      </trkpt>
      <trkpt lat="43.34958" lon="-0.50414">
        <ele>129.347185</ele>
        <time>2011-02-15T13:53:05Z</time>
      </trkpt>
      <trkpt lat="43.34948" lon="-0.50408">
        <ele>129.347655</ele>
        <time>2011-02-15T13:53:07Z</time>
      </trkpt>
      <trkpt lat="43.34932" lon="-0.50401">
        <ele>129.214424</ele>
        <time>2011-02-15T13:53:10Z</time>
      </trkpt>
      <trkpt lat="43.34918" lon="-0.50389">
        <ele>128.858116</ele>
        <time>2011-02-15T13:53:13Z</time>
      </trkpt>
      <trkpt lat="43.34906" lon="-0.50374">
        <ele>128.489958</ele>
        <time>2011-02-15T13:53:16Z</time>
      </trkpt>
      <trkpt lat="43.34899" lon="-0.50364">
        <ele>128.314621</ele>
        <time>2011-02-15T13:53:18Z</time>
      </trkpt>
      <trkpt lat="43.34894" lon="-0.50353">
        <ele>128.287655</ele>
        <time>2011-02-15T13:53:20Z</time>
      </trkpt>
      <trkpt lat="43.34886" lon="-0.50335">
        <ele>128.317328</ele>
        <time>2011-02-15T13:53:23Z</time>
      </trkpt>
      <trkpt lat="43.34878" lon="-0.50316">
        <ele>128.347323</ele>
        <time>2011-02-15T13:53:26Z</time>
      </trkpt>
      <trkpt lat="43.3487" lon="-0.50307">
        <ele>128.361424</ele>
        <time>2011-02-15T13:53:28Z</time>
      </trkpt>
      <trkpt lat="43.34859" lon="-0.50304">
        <ele>128.363482</ele>
        <time>2011-02-15T13:53:30Z</time>
      </trkpt>
      <trkpt lat="43.34844" lon="-0.503">
        <ele>128.361014</ele>
        <time>2011-02-15T13:53:33Z</time>
      </trkpt>
      <trkpt lat="43.34829" lon="-0.50297">
        <ele>128.358573</ele>
        <time>2011-02-15T13:53:36Z</time>
      </trkpt>
      <trkpt lat="43.34814" lon="-0.50291">
        <ele>128.35744</ele>
        <time>2011-02-15T13:53:39Z</time>
      </trkpt>
      <trkpt lat="43.34801" lon="-0.5028">
        <ele>128.357263</ele>
        <time>2011-02-15T13:53:42Z</time>
      </trkpt>
      <trkpt lat="43.34789" lon="-0.50268">
        <ele>128.357411</ele>
        <time>2011-02-15T13:53:45Z</time>
      </trkpt>
      <trkpt lat="43.34778" lon="-0.5026">
        <ele>128.357548</ele>
        <time>2011-02-15T13:53:48Z</time>
      </trkpt>
      <trkpt lat="43.34767" lon="-0.50253">
        <ele>128.357607</ele>
        <time>2011-02-15T13:53:51Z</time>
      </trkpt>
      <trkpt lat="43.34756" lon="-0.50246">
        <ele>128.357614</ele>
        <time>2011-02-15T13:53:54Z</time>
      </trkpt>
      <trkpt lat="43.34745" lon="-0.50238">
        <ele>128.495771</ele>
        <time>2011-02-15T13:53:57Z</time>
      </trkpt>
      <trkpt lat="43.34735" lon="-0.50226">
        <ele>128.855625</ele>
        <time>2011-02-15T13:54:00Z</time>
      </trkpt>
      <trkpt lat="43.34728" lon="-0.50217">
        <ele>129.225034</ele>
        <time>2011-02-15T13:54:02Z</time>
      </trkpt>
      <trkpt lat="43.34717" lon="-0.50206">
        <ele>129.538462</ele>
        <time>2011-02-15T13:54:05Z</time>
      </trkpt>
      <trkpt lat="43.34705" lon="-0.50197">
        <ele>129.924863</ele>
        <time>2011-02-15T13:54:08Z</time>
      </trkpt>
      <trkpt lat="43.34694" lon="-0.50188">
        <ele>130.264286</ele>
        <time>2011-02-15T13:54:11Z</time>
      </trkpt>
      <trkpt lat="43.34686" lon="-0.50182">
        <ele>130.409426</ele>
        <time>2011-02-15T13:54:13Z</time>
      </trkpt>
      <trkpt lat="43.34674" lon="-0.50173">
        <ele>130.421856</ele>
        <time>2011-02-15T13:54:16Z</time>
      </trkpt>
      <trkpt lat="43.34663" lon="-0.50165">
        <ele>130.389846</ele>
        <time>2011-02-15T13:54:19Z</time>
      </trkpt>
      <trkpt lat="43.34652" lon="-0.50158">
        <ele>130.362232</ele>
        <time>2011-02-15T13:54:22Z</time>
      </trkpt>
      <trkpt lat="43.34641" lon="-0.50153">
        <ele>130.350588</ele>
        <time>2011-02-15T13:54:25Z</time>
      </trkpt>
      <trkpt lat="43.34629" lon="-0.50149">
        <ele>130.487854</ele>
        <time>2011-02-15T13:54:28Z</time>
      </trkpt>
      <trkpt lat="43.34618" lon="-0.50145">
        <ele>130.850334</ele>
        <time>2011-02-15T13:54:31Z</time>
      </trkpt>
      <trkpt lat="43.34605" lon="-0.5014">
        <ele>131.221951</ele>
        <time>2011-02-15T13:54:34Z</time>
      </trkpt>
      <trkpt lat="43.34596" lon="-0.50136">
        <ele>131.398116</ele>
        <time>2011-02-15T13:54:36Z</time>
      </trkpt>
      <trkpt lat="43.34583" lon="-0.50131">
        <ele>131.424699</ele>
        <time>2011-02-15T13:54:39Z</time>
      </trkpt>
      <trkpt lat="43.34571" lon="-0.50119">
        <ele>131.394481</ele>
        <time>2011-02-15T13:54:42Z</time>
      </trkpt>
      <trkpt lat="43.34564" lon="-0.5011">
        <ele>131.364168</ele>
        <time>2011-02-15T13:54:44Z</time>
      </trkpt>
      <trkpt lat="43.34554" lon="-0.50097">
        <ele>131.349978</ele>
        <time>2011-02-15T13:54:47Z</time>
      </trkpt>
      <trkpt lat="43.34547" lon="-0.50089">
        <ele>131.347944</ele>
        <time>2011-02-15T13:54:49Z</time>
      </trkpt>
      <trkpt lat="43.34537" lon="-0.50076">
        <ele>131.488625</ele>
        <time>2011-02-15T13:54:52Z</time>
      </trkpt>
      <trkpt lat="43.3453" lon="-0.50061">
        <ele>131.850958</ele>
        <time>2011-02-15T13:54:55Z</time>
      </trkpt>
      <trkpt lat="43.34522" lon="-0.50047">
        <ele>132.221504</ele>
        <time>2011-02-15T13:54:58Z</time>
      </trkpt>
      <trkpt lat="43.34514" lon="-0.50036">
        <ele>132.396907</ele>
        <time>2011-02-15T13:55:01Z</time>
      </trkpt>
      <trkpt lat="43.34507" lon="-0.50025">
        <ele>132.423231</ele>
        <time>2011-02-15T13:55:04Z</time>
      </trkpt>
      <trkpt lat="43.345" lon="-0.50013">
        <ele>132.393055</ele>
        <time>2011-02-15T13:55:07Z</time>
      </trkpt>
      <trkpt lat="43.34491" lon="-0.50001">
        <ele>132.362869</ele>
        <time>2011-02-15T13:55:10Z</time>
      </trkpt>
      <trkpt lat="43.34481" lon="-0.4999">
        <ele>132.486948</ele>
        <time>2011-02-15T13:55:13Z</time>
      </trkpt>
      <trkpt lat="43.3447" lon="-0.49979">
        <ele>132.844842</ele>
        <time>2011-02-15T13:55:16Z</time>
      </trkpt>
      <trkpt lat="43.34459" lon="-0.49969">
        <ele>133.354971</ele>
        <time>2011-02-15T13:55:19Z</time>
      </trkpt>
      <trkpt lat="43.34451" lon="-0.4996">
        <ele>133.892583</ele>
        <time>2011-02-15T13:55:22Z</time>
      </trkpt>
      <trkpt lat="43.3446" lon="-0.4997">
        <ele>134.289678</ele>
        <time>2011-02-15T13:55:30Z</time>
      </trkpt>
      <trkpt lat="43.34469" lon="-0.49983">
        <ele>134.435104</ele>
        <time>2011-02-15T13:55:33Z</time>
      </trkpt>
      <trkpt lat="43.34476" lon="-0.49991">
        <ele>134.43132</ele>
        <time>2011-02-15T13:55:35Z</time>
      </trkpt>
      <trkpt lat="43.34486" lon="-0.50003">
        <ele>134.525216</ele>
        <time>2011-02-15T13:55:38Z</time>
      </trkpt>
      <trkpt lat="43.34495" lon="-0.50017">
        <ele>134.85288</ele>
        <time>2011-02-15T13:55:41Z</time>
      </trkpt>
      <trkpt lat="43.34502" lon="-0.50031">
        <ele>135.210696</ele>
        <time>2011-02-15T13:55:44Z</time>
      </trkpt>
      <trkpt lat="43.34511" lon="-0.50045">
        <ele>135.52458</ele>
        <time>2011-02-15T13:55:47Z</time>
      </trkpt>
      <trkpt lat="43.34517" lon="-0.50055">
        <ele>135.914646</ele>
        <time>2011-02-15T13:55:49Z</time>
      </trkpt>
      <trkpt lat="43.34523" lon="-0.50066">
        <ele>136.394882</ele>
        <time>2011-02-15T13:55:51Z</time>
      </trkpt>
      <trkpt lat="43.3453" lon="-0.50083">
        <ele>136.900844</ele>
        <time>2011-02-15T13:55:54Z</time>
      </trkpt>
      <trkpt lat="43.3454" lon="-0.50096">
        <ele>137.282655</ele>
        <time>2011-02-15T13:55:57Z</time>
      </trkpt>
      <trkpt lat="43.3455" lon="-0.50109">
        <ele>137.56378</ele>
        <time>2011-02-15T13:56:00Z</time>
      </trkpt>
      <trkpt lat="43.34561" lon="-0.50123">
        <ele>138.060545</ele>
        <time>2011-02-15T13:56:03Z</time>
      </trkpt>
      <trkpt lat="43.34571" lon="-0.50126">
        <ele>138.748151</ele>
        <time>2011-02-15T13:56:05Z</time>
      </trkpt>
      <trkpt lat="43.34585" lon="-0.50132">
        <ele>139.261844</ele>
        <time>2011-02-15T13:56:08Z</time>
      </trkpt>
      <trkpt lat="43.34599" lon="-0.50138">
        <ele>139.45221</ele>
        <time>2011-02-15T13:56:11Z</time>
      </trkpt>
      <trkpt lat="43.34608" lon="-0.50143">
        <ele>139.449001</ele>
        <time>2011-02-15T13:56:13Z</time>
      </trkpt>
      <trkpt lat="43.34623" lon="-0.50149">
        <ele>139.392363</ele>
        <time>2011-02-15T13:56:16Z</time>
      </trkpt>
      <trkpt lat="43.34632" lon="-0.50154">
        <ele>139.350708</ele>
        <time>2011-02-15T13:56:18Z</time>
      </trkpt>
      <trkpt lat="43.34643" lon="-0.50166">
        <ele>139.335543</ele>
        <time>2011-02-15T13:56:21Z</time>
      </trkpt>
      <trkpt lat="43.34638" lon="-0.50182">
        <ele>139.474203</ele>
        <time>2011-02-15T13:56:25Z</time>
      </trkpt>
      <trkpt lat="43.34632" lon="-0.50198">
        <ele>139.838791</ele>
        <time>2011-02-15T13:56:28Z</time>
      </trkpt>
      <trkpt lat="43.34626" lon="-0.50208">
        <ele>140.211623</ele>
        <time>2011-02-15T13:56:30Z</time>
      </trkpt>
      <trkpt lat="43.34616" lon="-0.5022">
        <ele>140.388101</ele>
        <time>2011-02-15T13:56:33Z</time>
      </trkpt>
      <trkpt lat="43.34606" lon="-0.50234">
        <ele>140.414562</ele>
        <time>2011-02-15T13:56:36Z</time>
      </trkpt>
      <trkpt lat="43.34594" lon="-0.5025">
        <ele>140.384139</ele>
        <time>2011-02-15T13:56:39Z</time>
      </trkpt>
      <trkpt lat="43.3458" lon="-0.50266">
        <ele>140.35368</ele>
        <time>2011-02-15T13:56:42Z</time>
      </trkpt>
      <trkpt lat="43.34571" lon="-0.50274">
        <ele>140.339402</ele>
        <time>2011-02-15T13:56:44Z</time>
      </trkpt>
      <trkpt lat="43.34558" lon="-0.50274">
        <ele>140.199116</ele>
        <time>2011-02-15T13:56:47Z</time>
      </trkpt>
      <trkpt lat="43.34547" lon="-0.50267">
        <ele>139.841651</ele>
        <time>2011-02-15T13:56:50Z</time>
      </trkpt>
      <trkpt lat="43.3454" lon="-0.50258">
        <ele>139.474589</ele>
        <time>2011-02-15T13:56:52Z</time>
      </trkpt>
      <trkpt lat="43.34534" lon="-0.50248">
        <ele>139.30038</ele>
        <time>2011-02-15T13:56:54Z</time>
      </trkpt>
      <trkpt lat="43.34523" lon="-0.50236">
        <ele>138.997583</ele>
        <time>2011-02-15T13:56:57Z</time>
      </trkpt>
      <trkpt lat="43.34509" lon="-0.50228">
        <ele>138.169361</ele>
        <time>2011-02-15T13:57:00Z</time>
      </trkpt>
      <trkpt lat="43.34494" lon="-0.50224">
        <ele>137.100493</ele>
        <time>2011-02-15T13:57:03Z</time>
      </trkpt>
      <trkpt lat="43.34484" lon="-0.50218">
        <ele>136.256363</ele>
        <time>2011-02-15T13:57:05Z</time>
      </trkpt>
      <trkpt lat="43.34473" lon="-0.50203">
        <ele>135.670157</ele>
        <time>2011-02-15T13:57:08Z</time>
      </trkpt>
      <trkpt lat="43.34463" lon="-0.50185">
        <ele>135.331667</ele>
        <time>2011-02-15T13:57:11Z</time>
      </trkpt>
      <trkpt lat="43.34454" lon="-0.50176">
        <ele>135.105958</ele>
        <time>2011-02-15T13:57:13Z</time>
      </trkpt>
      <trkpt lat="43.34445" lon="-0.5017">
        <ele>134.638501</ele>
        <time>2011-02-15T13:57:15Z</time>
      </trkpt>
      <trkpt lat="43.3443" lon="-0.50163">
        <ele>133.957133</ele>
        <time>2011-02-15T13:57:18Z</time>
      </trkpt>
      <trkpt lat="43.34415" lon="-0.50157">
        <ele>133.439777</ele>
        <time>2011-02-15T13:57:21Z</time>
      </trkpt>
      <trkpt lat="43.34399" lon="-0.5015">
        <ele>133.244877</ele>
        <time>2011-02-15T13:57:24Z</time>
      </trkpt>
      <trkpt lat="43.34384" lon="-0.50141">
        <ele>133.245716</ele>
        <time>2011-02-15T13:57:27Z</time>
      </trkpt>
      <trkpt lat="43.34372" lon="-0.50132">
        <ele>133.301848</ele>
        <time>2011-02-15T13:57:30Z</time>
      </trkpt>
      <trkpt lat="43.34372" lon="-0.50132">
        <ele>133.343778</ele>
        <time>2011-02-15T13:57:38Z</time>
      </trkpt>
      <trkpt lat="43.34376" lon="-0.50161">
        <ele>133.35928</ele>
        <time>2011-02-15T13:57:43Z</time>
      </trkpt>
      <trkpt lat="43.3437" lon="-0.5018">
        <ele>133.358954</ele>
        <time>2011-02-15T13:57:46Z</time>
      </trkpt>
      <trkpt lat="43.34363" lon="-0.50197">
        <ele>133.354257</ele>
        <time>2011-02-15T13:57:49Z</time>
      </trkpt>
      <trkpt lat="43.34358" lon="-0.50209">
        <ele>133.350806</ele>
        <time>2011-02-15T13:57:51Z</time>
      </trkpt>
      <trkpt lat="43.34351" lon="-0.50226">
        <ele>133.349549</ele>
        <time>2011-02-15T13:57:54Z</time>
      </trkpt>
      <trkpt lat="43.34343" lon="-0.50241">
        <ele>133.349587</ele>
        <time>2011-02-15T13:57:57Z</time>
      </trkpt>
      <trkpt lat="43.34334" lon="-0.50255">
        <ele>133.349987</ele>
        <time>2011-02-15T13:58:00Z</time>
      </trkpt>
      <trkpt lat="43.34326" lon="-0.50263">
        <ele>133.488421</ele>
        <time>2011-02-15T13:58:02Z</time>
      </trkpt>
      <trkpt lat="43.34311" lon="-0.50272">
        <ele>133.84831</ele>
        <time>2011-02-15T13:58:05Z</time>
      </trkpt>
      <trkpt lat="43.34296" lon="-0.50267">
        <ele>134.355761</ele>
        <time>2011-02-15T13:58:08Z</time>
      </trkpt>
      <trkpt lat="43.34284" lon="-0.50256">
        <ele>134.890709</ele>
        <time>2011-02-15T13:58:11Z</time>
      </trkpt>
      <trkpt lat="43.34271" lon="-0.50246">
        <ele>135.286515</ele>
        <time>2011-02-15T13:58:14Z</time>
      </trkpt>
      <trkpt lat="43.34257" lon="-0.50244">
        <ele>135.431728</ele>
        <time>2011-02-15T13:58:17Z</time>
      </trkpt>
      <trkpt lat="43.34244" lon="-0.50241">
        <ele>135.289969</ele>
        <time>2011-02-15T13:58:20Z</time>
      </trkpt>
      <trkpt lat="43.34232" lon="-0.50234">
        <ele>134.886001</ele>
        <time>2011-02-15T13:58:23Z</time>
      </trkpt>
      <trkpt lat="43.3422" lon="-0.50222">
        <ele>134.346251</ele>
        <time>2011-02-15T13:58:26Z</time>
      </trkpt>
      <trkpt lat="43.34208" lon="-0.50209">
        <ele>133.799466</ele>
        <time>2011-02-15T13:58:29Z</time>
      </trkpt>
      <trkpt lat="43.34196" lon="-0.50197">
        <ele>133.403888</ele>
        <time>2011-02-15T13:58:32Z</time>
      </trkpt>
      <trkpt lat="43.34186" lon="-0.50188">
        <ele>133.124023</ele>
        <time>2011-02-15T13:58:35Z</time>
      </trkpt>
      <trkpt lat="43.34175" lon="-0.50178">
        <ele>132.770289</ele>
        <time>2011-02-15T13:58:38Z</time>
      </trkpt>
      <trkpt lat="43.34167" lon="-0.5017">
        <ele>132.445853</ele>
        <time>2011-02-15T13:58:40Z</time>
      </trkpt>
      <trkpt lat="43.34159" lon="-0.50161">
        <ele>132.302675</ele>
        <time>2011-02-15T13:58:42Z</time>
      </trkpt>
      <trkpt lat="43.34147" lon="-0.50144">
        <ele>132.425619</ele>
        <time>2011-02-15T13:58:45Z</time>
      </trkpt>
      <trkpt lat="43.34135" lon="-0.50126">
        <ele>132.814836</ele>
        <time>2011-02-15T13:58:48Z</time>
      </trkpt>
      <trkpt lat="43.34124" lon="-0.50109">
        <ele>133.210655</ele>
        <time>2011-02-15T13:58:51Z</time>
      </trkpt>
      <trkpt lat="43.34116" lon="-0.50099">
        <ele>133.397403</ele>
        <time>2011-02-15T13:58:53Z</time>
      </trkpt>
      <trkpt lat="43.34108" lon="-0.50089">
        <ele>133.425054</ele>
        <time>2011-02-15T13:58:55Z</time>
      </trkpt>
      <trkpt lat="43.34095" lon="-0.50073">
        <ele>133.39264</ele>
        <time>2011-02-15T13:58:58Z</time>
      </trkpt>
      <trkpt lat="43.34092" lon="-0.5006">
        <ele>133.360389</ele>
        <time>2011-02-15T13:59:00Z</time>
      </trkpt>
      <trkpt lat="43.3409" lon="-0.50046">
        <ele>133.345374</ele>
        <time>2011-02-15T13:59:02Z</time>
      </trkpt>
      <trkpt lat="43.34087" lon="-0.50026">
        <ele>133.343274</ele>
        <time>2011-02-15T13:59:05Z</time>
      </trkpt>
      <trkpt lat="43.34082" lon="-0.50007">
        <ele>133.345973</ele>
        <time>2011-02-15T13:59:08Z</time>
      </trkpt>
      <trkpt lat="43.34077" lon="-0.49987">
        <ele>133.3486</ele>
        <time>2011-02-15T13:59:11Z</time>
      </trkpt>
      <trkpt lat="43.34074" lon="-0.49973">
        <ele>133.21166</ele>
        <time>2011-02-15T13:59:13Z</time>
      </trkpt>
      <trkpt lat="43.34069" lon="-0.49953">
        <ele>132.852009</ele>
        <time>2011-02-15T13:59:16Z</time>
      </trkpt>
      <trkpt lat="43.34063" lon="-0.49935">
        <ele>132.482429</ele>
        <time>2011-02-15T13:59:19Z</time>
      </trkpt>
      <trkpt lat="43.34058" lon="-0.49923">
        <ele>132.306984</ele>
        <time>2011-02-15T13:59:21Z</time>
      </trkpt>
      <trkpt lat="43.34054" lon="-0.49904">
        <ele>132.280358</ele>
        <time>2011-02-15T13:59:24Z</time>
      </trkpt>
      <trkpt lat="43.34054" lon="-0.49884">
        <ele>132.310324</ele>
        <time>2011-02-15T13:59:27Z</time>
      </trkpt>
      <trkpt lat="43.34053" lon="-0.49871">
        <ele>132.340448</ele>
        <time>2011-02-15T13:59:29Z</time>
      </trkpt>
      <trkpt lat="43.34047" lon="-0.49851">
        <ele>132.354582</ele>
        <time>2011-02-15T13:59:32Z</time>
      </trkpt>
      <trkpt lat="43.34042" lon="-0.49837">
        <ele>132.356654</ele>
        <time>2011-02-15T13:59:34Z</time>
      </trkpt>
      <trkpt lat="43.34038" lon="-0.49821">
        <ele>132.354201</ele>
        <time>2011-02-15T13:59:36Z</time>
      </trkpt>
      <trkpt lat="43.34036" lon="-0.49797">
        <ele>132.213634</ele>
        <time>2011-02-15T13:59:39Z</time>
      </trkpt>
      <trkpt lat="43.34038" lon="-0.49777">
        <ele>131.990882</ele>
        <time>2011-02-15T13:59:42Z</time>
      </trkpt>
      <trkpt lat="43.34041" lon="-0.49762">
        <ele>131.981239</ele>
        <time>2011-02-15T13:59:45Z</time>
      </trkpt>
      <trkpt lat="43.34044" lon="-0.49746">
        <ele>132.037484</ele>
        <time>2011-02-15T13:59:48Z</time>
      </trkpt>
      <trkpt lat="43.34043" lon="-0.49729">
        <ele>131.826637</ele>
        <time>2011-02-15T13:59:51Z</time>
      </trkpt>
      <trkpt lat="43.34039" lon="-0.49712">
        <ele>131.513936</ele>
        <time>2011-02-15T13:59:54Z</time>
      </trkpt>
      <trkpt lat="43.34034" lon="-0.49693">
        <ele>131.338888</ele>
        <time>2011-02-15T13:59:57Z</time>
      </trkpt>
      <trkpt lat="43.34036" lon="-0.49674">
        <ele>131.296385</ele>
        <time>2011-02-15T14:00:00Z</time>
      </trkpt>
      <trkpt lat="43.34038" lon="-0.49651">
        <ele>131.314317</ele>
        <time>2011-02-15T14:00:03Z</time>
      </trkpt>
      <trkpt lat="43.34034" lon="-0.49636">
        <ele>131.339935</ele>
        <time>2011-02-15T14:00:05Z</time>
      </trkpt>
      <trkpt lat="43.34031" lon="-0.49615">
        <ele>131.354136</ele>
        <time>2011-02-15T14:00:08Z</time>
      </trkpt>
      <trkpt lat="43.34035" lon="-0.49597">
        <ele>131.357547</ele>
        <time>2011-02-15T14:00:11Z</time>
      </trkpt>
      <trkpt lat="43.34033" lon="-0.49579">
        <ele>131.35607</ele>
        <time>2011-02-15T14:00:14Z</time>
      </trkpt>
      <trkpt lat="43.34025" lon="-0.49563">
        <ele>131.353995</ele>
        <time>2011-02-15T14:00:17Z</time>
      </trkpt>
      <trkpt lat="43.34015" lon="-0.4955">
        <ele>131.352881</ele>
        <time>2011-02-15T14:00:20Z</time>
      </trkpt>
      <trkpt lat="43.34006" lon="-0.49537">
        <ele>131.352669</ele>
        <time>2011-02-15T14:00:23Z</time>
      </trkpt>
      <trkpt lat="43.33997" lon="-0.49522">
        <ele>131.491031</ele>
        <time>2011-02-15T14:00:26Z</time>
      </trkpt>
      <trkpt lat="43.33991" lon="-0.49512">
        <ele>131.851135</ele>
        <time>2011-02-15T14:00:28Z</time>
      </trkpt>
      <trkpt lat="43.33983" lon="-0.49497">
        <ele>132.22068</ele>
        <time>2011-02-15T14:00:31Z</time>
      </trkpt>
      <trkpt lat="43.33978" lon="-0.49486">
        <ele>132.534144</ele>
        <time>2011-02-15T14:00:33Z</time>
      </trkpt>
      <trkpt lat="43.33971" lon="-0.4947">
        <ele>132.920557</ele>
        <time>2011-02-15T14:00:36Z</time>
      </trkpt>
      <trkpt lat="43.33965" lon="-0.49453">
        <ele>133.259995</ele>
        <time>2011-02-15T14:00:39Z</time>
      </trkpt>
      <trkpt lat="43.33958" lon="-0.49438">
        <ele>133.543329</ele>
        <time>2011-02-15T14:00:42Z</time>
      </trkpt>
      <trkpt lat="43.3395" lon="-0.49423">
        <ele>133.915671</ele>
        <time>2011-02-15T14:00:45Z</time>
      </trkpt>
      <trkpt lat="43.33942" lon="-0.49408">
        <ele>134.25313</ele>
        <time>2011-02-15T14:00:48Z</time>
      </trkpt>
      <trkpt lat="43.33933" lon="-0.49393">
        <ele>134.400822</ele>
        <time>2011-02-15T14:00:51Z</time>
      </trkpt>
      <trkpt lat="43.33923" lon="-0.4938">
        <ele>134.415747</ele>
        <time>2011-02-15T14:00:54Z</time>
      </trkpt>
      <trkpt lat="43.33912" lon="-0.49364">
        <ele>134.384892</ele>
        <time>2011-02-15T14:00:57Z</time>
      </trkpt>
      <trkpt lat="43.33902" lon="-0.49348">
        <ele>134.357441</ele>
        <time>2011-02-15T14:01:00Z</time>
      </trkpt>
      <trkpt lat="43.33891" lon="-0.49333">
        <ele>134.34559</ele>
        <time>2011-02-15T14:01:03Z</time>
      </trkpt>
      <trkpt lat="43.3388" lon="-0.49319">
        <ele>134.344501</ele>
        <time>2011-02-15T14:01:06Z</time>
      </trkpt>
      <trkpt lat="43.33869" lon="-0.49304">
        <ele>134.347059</ele>
        <time>2011-02-15T14:01:09Z</time>
      </trkpt>
      <trkpt lat="43.33861" lon="-0.49293">
        <ele>134.349295</ele>
        <time>2011-02-15T14:01:11Z</time>
      </trkpt>
      <trkpt lat="43.3385" lon="-0.49278">
        <ele>134.350249</ele>
        <time>2011-02-15T14:01:14Z</time>
      </trkpt>
      <trkpt lat="43.33839" lon="-0.49264">
        <ele>134.488506</ele>
        <time>2011-02-15T14:01:17Z</time>
      </trkpt>
      <trkpt lat="43.33829" lon="-0.49248">
        <ele>134.848188</ele>
        <time>2011-02-15T14:01:20Z</time>
      </trkpt>
      <trkpt lat="43.33819" lon="-0.49233">
        <ele>135.217442</ele>
        <time>2011-02-15T14:01:23Z</time>
      </trkpt>
      <trkpt lat="43.33809" lon="-0.49218">
        <ele>135.530807</ele>
        <time>2011-02-15T14:01:26Z</time>
      </trkpt>
      <trkpt lat="43.33802" lon="-0.49209">
        <ele>135.917226</ele>
        <time>2011-02-15T14:01:28Z</time>
      </trkpt>
      <trkpt lat="43.33794" lon="-0.49199">
        <ele>136.256698</ele>
        <time>2011-02-15T14:01:30Z</time>
      </trkpt>
      <trkpt lat="43.33782" lon="-0.49185">
        <ele>136.401872</ele>
        <time>2011-02-15T14:01:33Z</time>
      </trkpt>
      <trkpt lat="43.3377" lon="-0.4917">
        <ele>136.414317</ele>
        <time>2011-02-15T14:01:36Z</time>
      </trkpt>
      <trkpt lat="43.33758" lon="-0.49157">
        <ele>136.382312</ele>
        <time>2011-02-15T14:01:39Z</time>
      </trkpt>
      <trkpt lat="43.33744" lon="-0.49145">
        <ele>136.492873</ele>
        <time>2011-02-15T14:01:42Z</time>
      </trkpt>
      <trkpt lat="43.33731" lon="-0.49132">
        <ele>136.841107</ele>
        <time>2011-02-15T14:01:45Z</time>
      </trkpt>
      <trkpt lat="43.33719" lon="-0.49118">
        <ele>137.209636</ele>
        <time>2011-02-15T14:01:48Z</time>
      </trkpt>
      <trkpt lat="43.33709" lon="-0.49103">
        <ele>137.387534</ele>
        <time>2011-02-15T14:01:51Z</time>
      </trkpt>
      <trkpt lat="43.33699" lon="-0.49089">
        <ele>137.416306</ele>
        <time>2011-02-15T14:01:54Z</time>
      </trkpt>
      <trkpt lat="43.33694" lon="-0.49079">
        <ele>137.387257</ele>
        <time>2011-02-15T14:01:56Z</time>
      </trkpt>
      <trkpt lat="43.33685" lon="-0.49063">
        <ele>137.357217</ele>
        <time>2011-02-15T14:01:59Z</time>
      </trkpt>
      <trkpt lat="43.33676" lon="-0.49048">
        <ele>137.481081</ele>
        <time>2011-02-15T14:02:02Z</time>
      </trkpt>
      <trkpt lat="43.33667" lon="-0.49034">
        <ele>137.838768</ele>
        <time>2011-02-15T14:02:05Z</time>
      </trkpt>
      <trkpt lat="43.3366" lon="-0.49021">
        <ele>138.348804</ele>
        <time>2011-02-15T14:02:08Z</time>
      </trkpt>
      <trkpt lat="43.33659" lon="-0.49003">
        <ele>138.886415</ele>
        <time>2011-02-15T14:02:11Z</time>
      </trkpt>
      <trkpt lat="43.3366" lon="-0.48987">
        <ele>139.283544</ele>
        <time>2011-02-15T14:02:14Z</time>
      </trkpt>
      <trkpt lat="43.33657" lon="-0.48972">
        <ele>139.428996</ele>
        <time>2011-02-15T14:02:17Z</time>
      </trkpt>
      <trkpt lat="43.33662" lon="-0.48956">
        <ele>139.425222</ele>
        <time>2011-02-15T14:02:20Z</time>
      </trkpt>
      <trkpt lat="43.33665" lon="-0.48938">
        <ele>139.380945</ele>
        <time>2011-02-15T14:02:23Z</time>
      </trkpt>
      <trkpt lat="43.33661" lon="-0.48925">
        <ele>139.210596</ele>
        <time>2011-02-15T14:02:25Z</time>
      </trkpt>
      <trkpt lat="43.33659" lon="-0.48912">
        <ele>138.839211</ele>
        <time>2011-02-15T14:02:27Z</time>
      </trkpt>
      <trkpt lat="43.33662" lon="-0.48894">
        <ele>138.470341</ele>
        <time>2011-02-15T14:02:30Z</time>
      </trkpt>
      <trkpt lat="43.33657" lon="-0.48877">
        <ele>138.298776</ele>
        <time>2011-02-15T14:02:33Z</time>
      </trkpt>
      <trkpt lat="43.33655" lon="-0.48863">
        <ele>138.274873</ele>
        <time>2011-02-15T14:02:36Z</time>
      </trkpt>
      <trkpt lat="43.33653" lon="-0.48848">
        <ele>138.305794</ele>
        <time>2011-02-15T14:02:40Z</time>
      </trkpt>
      <trkpt lat="43.33654" lon="-0.48831">
        <ele>138.335877</ele>
        <time>2011-02-15T14:02:43Z</time>
      </trkpt>
      <trkpt lat="43.33655" lon="-0.48814">
        <ele>138.349717</ele>
        <time>2011-02-15T14:02:46Z</time>
      </trkpt>
      <trkpt lat="43.33654" lon="-0.48798">
        <ele>138.351569</ele>
        <time>2011-02-15T14:02:49Z</time>
      </trkpt>
      <trkpt lat="43.33654" lon="-0.48783">
        <ele>138.349019</ele>
        <time>2011-02-15T14:02:52Z</time>
      </trkpt>
      <trkpt lat="43.33657" lon="-0.4877">
        <ele>138.070266</ele>
        <time>2011-02-15T14:02:55Z</time>
      </trkpt>
      <trkpt lat="43.33663" lon="-0.48758">
        <ele>137.349497</ele>
        <time>2011-02-15T14:02:58Z</time>
      </trkpt>
      <trkpt lat="43.33665" lon="-0.48742">
        <ele>136.610619</ele>
        <time>2011-02-15T14:03:01Z</time>
      </trkpt>
      <trkpt lat="43.3366" lon="-0.48725">
        <ele>136.260363</ele>
        <time>2011-02-15T14:03:04Z</time>
      </trkpt>
      <trkpt lat="43.3365" lon="-0.4871">
        <ele>136.207492</ele>
        <time>2011-02-15T14:03:07Z</time>
      </trkpt>
      <trkpt lat="43.33645" lon="-0.48699">
        <ele>136.267523</ele>
        <time>2011-02-15T14:03:09Z</time>
      </trkpt>
      <trkpt lat="43.33642" lon="-0.48677">
        <ele>136.189591</ele>
        <time>2011-02-15T14:03:12Z</time>
      </trkpt>
      <trkpt lat="43.33641" lon="-0.48662">
        <ele>135.857973</ele>
        <time>2011-02-15T14:03:14Z</time>
      </trkpt>
      <trkpt lat="43.3364" lon="-0.48641">
        <ele>135.492667</ele>
        <time>2011-02-15T14:03:17Z</time>
      </trkpt>
      <trkpt lat="43.33643" lon="-0.48628">
        <ele>135.312437</ele>
        <time>2011-02-15T14:03:19Z</time>
      </trkpt>
      <trkpt lat="43.33645" lon="-0.48616">
        <ele>135.280983</ele>
        <time>2011-02-15T14:03:21Z</time>
      </trkpt>
      <trkpt lat="43.33643" lon="-0.48595">
        <ele>135.17055</ele>
        <time>2011-02-15T14:03:24Z</time>
      </trkpt>
      <trkpt lat="43.33643" lon="-0.48582">
        <ele>134.840572</ele>
        <time>2011-02-15T14:03:26Z</time>
      </trkpt>
      <trkpt lat="43.33648" lon="-0.48563">
        <ele>134.485774</ele>
        <time>2011-02-15T14:03:29Z</time>
      </trkpt>
      <trkpt lat="43.33648" lon="-0.48545">
        <ele>134.312996</ele>
        <time>2011-02-15T14:03:32Z</time>
      </trkpt>
      <trkpt lat="43.33643" lon="-0.48528">
        <ele>134.28417</ele>
        <time>2011-02-15T14:03:35Z</time>
      </trkpt>
      <trkpt lat="43.33637" lon="-0.48519">
        <ele>134.449923</ele>
        <time>2011-02-15T14:03:37Z</time>
      </trkpt>
      <trkpt lat="43.33628" lon="-0.48504">
        <ele>134.838808</ele>
        <time>2011-02-15T14:03:40Z</time>
      </trkpt>
      <trkpt lat="43.33628" lon="-0.48486">
        <ele>135.222237</ele>
        <time>2011-02-15T14:03:43Z</time>
      </trkpt>
      <trkpt lat="43.3363" lon="-0.48469">
        <ele>135.399799</ele>
        <time>2011-02-15T14:03:46Z</time>
      </trkpt>
      <trkpt lat="43.33632" lon="-0.48454">
        <ele>135.562253</ele>
        <time>2011-02-15T14:03:49Z</time>
      </trkpt>
      <trkpt lat="43.33634" lon="-0.4844">
        <ele>135.889776</ele>
        <time>2011-02-15T14:03:52Z</time>
      </trkpt>
      <trkpt lat="43.33638" lon="-0.48424">
        <ele>136.227938</ele>
        <time>2011-02-15T14:03:55Z</time>
      </trkpt>
      <trkpt lat="43.33641" lon="-0.48412">
        <ele>136.388938</ele>
        <time>2011-02-15T14:03:57Z</time>
      </trkpt>
      <trkpt lat="43.33645" lon="-0.48394">
        <ele>136.413713</ele>
        <time>2011-02-15T14:04:00Z</time>
      </trkpt>
      <trkpt lat="43.33648" lon="-0.48382">
        <ele>136.524699</ele>
        <time>2011-02-15T14:04:02Z</time>
      </trkpt>
      <trkpt lat="43.33652" lon="-0.48363">
        <ele>136.857111</ele>
        <time>2011-02-15T14:04:05Z</time>
      </trkpt>
      <trkpt lat="43.33654" lon="-0.48351">
        <ele>137.21364</ele>
        <time>2011-02-15T14:04:07Z</time>
      </trkpt>
      <trkpt lat="43.33656" lon="-0.48331">
        <ele>137.387026</ele>
        <time>2011-02-15T14:04:10Z</time>
      </trkpt>
      <trkpt lat="43.33657" lon="-0.48317">
        <ele>137.2777</ele>
        <time>2011-02-15T14:04:12Z</time>
      </trkpt>
      <trkpt lat="43.33657" lon="-0.48298">
        <ele>136.890192</ele>
        <time>2011-02-15T14:04:15Z</time>
      </trkpt>
      <trkpt lat="43.33656" lon="-0.4828">
        <ele>136.491796</ele>
        <time>2011-02-15T14:04:18Z</time>
      </trkpt>
      <trkpt lat="43.33656" lon="-0.48262">
        <ele>136.164474</ele>
        <time>2011-02-15T14:04:21Z</time>
      </trkpt>
      <trkpt lat="43.33658" lon="-0.48244">
        <ele>135.775948</ele>
        <time>2011-02-15T14:04:24Z</time>
      </trkpt>
      <trkpt lat="43.33659" lon="-0.48226">
        <ele>135.438922</ele>
        <time>2011-02-15T14:04:27Z</time>
      </trkpt>
      <trkpt lat="43.33661" lon="-0.48208">
        <ele>135.296191</ele>
        <time>2011-02-15T14:04:30Z</time>
      </trkpt>
      <trkpt lat="43.33665" lon="-0.4819">
        <ele>135.284896</ele>
        <time>2011-02-15T14:04:33Z</time>
      </trkpt>
      <trkpt lat="43.3367" lon="-0.48178">
        <ele>135.455273</ele>
        <time>2011-02-15T14:04:35Z</time>
      </trkpt>
      <trkpt lat="43.33677" lon="-0.4816">
        <ele>135.98081</ele>
        <time>2011-02-15T14:04:38Z</time>
      </trkpt>
      <trkpt lat="43.33683" lon="-0.48149">
        <ele>136.721655</ele>
        <time>2011-02-15T14:04:40Z</time>
      </trkpt>
      <trkpt lat="43.33691" lon="-0.48132">
        <ele>137.405402</ele>
        <time>2011-02-15T14:04:43Z</time>
      </trkpt>
      <trkpt lat="43.33699" lon="-0.48114">
        <ele>137.964501</ele>
        <time>2011-02-15T14:04:46Z</time>
      </trkpt>
      <trkpt lat="43.33706" lon="-0.48096">
        <ele>138.328326</ele>
        <time>2011-02-15T14:04:49Z</time>
      </trkpt>
      <trkpt lat="43.33708" lon="-0.48083">
        <ele>138.442652</ele>
        <time>2011-02-15T14:04:51Z</time>
      </trkpt>
      <trkpt lat="43.33709" lon="-0.48062">
        <ele>138.424991</ele>
        <time>2011-02-15T14:04:54Z</time>
      </trkpt>
      <trkpt lat="43.33706" lon="-0.48041">
        <ele>138.379162</ele>
        <time>2011-02-15T14:04:57Z</time>
      </trkpt>
      <trkpt lat="43.33703" lon="-0.48029">
        <ele>138.349755</ele>
        <time>2011-02-15T14:04:59Z</time>
      </trkpt>
      <trkpt lat="43.33698" lon="-0.4801">
        <ele>138.340713</ele>
        <time>2011-02-15T14:05:02Z</time>
      </trkpt>
      <trkpt lat="43.33693" lon="-0.47993">
        <ele>138.204161</ele>
        <time>2011-02-15T14:05:05Z</time>
      </trkpt>
      <trkpt lat="43.3369" lon="-0.47976">
        <ele>137.848152</ele>
        <time>2011-02-15T14:05:08Z</time>
      </trkpt>
      <trkpt lat="43.33687" lon="-0.47963">
        <ele>137.481201</ele>
        <time>2011-02-15T14:05:10Z</time>
      </trkpt>
      <trkpt lat="43.33684" lon="-0.47951">
        <ele>137.168519</ele>
        <time>2011-02-15T14:05:12Z</time>
      </trkpt>
      <trkpt lat="43.33678" lon="-0.47933">
        <ele>136.781986</ele>
        <time>2011-02-15T14:05:15Z</time>
      </trkpt>
      <trkpt lat="43.33672" lon="-0.47921">
        <ele>136.44226</ele>
        <time>2011-02-15T14:05:17Z</time>
      </trkpt>
      <trkpt lat="43.3366" lon="-0.47906">
        <ele>136.296929</ele>
        <time>2011-02-15T14:05:20Z</time>
      </trkpt>
      <trkpt lat="43.33649" lon="-0.47889">
        <ele>136.28446</ele>
        <time>2011-02-15T14:05:23Z</time>
      </trkpt>
      <trkpt lat="43.33637" lon="-0.47873">
        <ele>136.316528</ele>
        <time>2011-02-15T14:05:26Z</time>
      </trkpt>
      <trkpt lat="43.33626" lon="-0.47856">
        <ele>136.620572</ele>
        <time>2011-02-15T14:05:29Z</time>
      </trkpt>
      <trkpt lat="43.33619" lon="-0.47844">
        <ele>137.490222</ele>
        <time>2011-02-15T14:05:31Z</time>
      </trkpt>
      <trkpt lat="43.33614" lon="-0.47831">
        <ele>138.728062</ele>
        <time>2011-02-15T14:05:33Z</time>
      </trkpt>
      <trkpt lat="43.33607" lon="-0.47811">
        <ele>139.943439</ele>
        <time>2011-02-15T14:05:36Z</time>
      </trkpt>
      <trkpt lat="43.33599" lon="-0.47793">
        <ele>140.898841</ele>
        <time>2011-02-15T14:05:39Z</time>
      </trkpt>
      <trkpt lat="43.33589" lon="-0.47777">
        <ele>141.409168</ele>
        <time>2011-02-15T14:05:42Z</time>
      </trkpt>
      <trkpt lat="43.33577" lon="-0.47763">
        <ele>141.52071</ele>
        <time>2011-02-15T14:05:45Z</time>
      </trkpt>
      <trkpt lat="43.33564" lon="-0.47749">
        <ele>141.459189</ele>
        <time>2011-02-15T14:05:48Z</time>
      </trkpt>
      <trkpt lat="43.33552" lon="-0.47734">
        <ele>141.381158</ele>
        <time>2011-02-15T14:05:51Z</time>
      </trkpt>
      <trkpt lat="43.3354" lon="-0.47716">
        <ele>141.34002</ele>
        <time>2011-02-15T14:05:54Z</time>
      </trkpt>
      <trkpt lat="43.33533" lon="-0.47696">
        <ele>141.331322</ele>
        <time>2011-02-15T14:05:57Z</time>
      </trkpt>
      <trkpt lat="43.33528" lon="-0.47679">
        <ele>141.336503</ele>
        <time>2011-02-15T14:06:00Z</time>
      </trkpt>
      <trkpt lat="43.33522" lon="-0.47661">
        <ele>141.342877</ele>
        <time>2011-02-15T14:06:03Z</time>
      </trkpt>
      <trkpt lat="43.33515" lon="-0.47645">
        <ele>141.346192</ele>
        <time>2011-02-15T14:06:06Z</time>
      </trkpt>
      <trkpt lat="43.33502" lon="-0.47635">
        <ele>141.20871</ele>
        <time>2011-02-15T14:06:09Z</time>
      </trkpt>
      <trkpt lat="43.33488" lon="-0.47623">
        <ele>140.848426</ele>
        <time>2011-02-15T14:06:12Z</time>
      </trkpt>
      <trkpt lat="43.33474" lon="-0.47609">
        <ele>140.478507</ele>
        <time>2011-02-15T14:06:15Z</time>
      </trkpt>
      <trkpt lat="43.3346" lon="-0.47599">
        <ele>140.164809</ele>
        <time>2011-02-15T14:06:18Z</time>
      </trkpt>
      <trkpt lat="43.33451" lon="-0.47593">
        <ele>139.77833</ele>
        <time>2011-02-15T14:06:20Z</time>
      </trkpt>
      <trkpt lat="43.33436" lon="-0.47588">
        <ele>139.43891</ele>
        <time>2011-02-15T14:06:23Z</time>
      </trkpt>
      <trkpt lat="43.33425" lon="-0.47586">
        <ele>139.155605</ele>
        <time>2011-02-15T14:06:25Z</time>
      </trkpt>
      <trkpt lat="43.33415" lon="-0.47585">
        <ele>138.783278</ele>
        <time>2011-02-15T14:06:27Z</time>
      </trkpt>
      <trkpt lat="43.33405" lon="-0.47579">
        <ele>138.44582</ele>
        <time>2011-02-15T14:06:29Z</time>
      </trkpt>
      <trkpt lat="43.33391" lon="-0.47565">
        <ele>138.159949</ele>
        <time>2011-02-15T14:06:32Z</time>
      </trkpt>
      <trkpt lat="43.33378" lon="-0.47552">
        <ele>137.785134</ele>
        <time>2011-02-15T14:06:35Z</time>
      </trkpt>
      <trkpt lat="43.33364" lon="-0.4754">
        <ele>137.44654</ele>
        <time>2011-02-15T14:06:38Z</time>
      </trkpt>
      <trkpt lat="43.33351" lon="-0.47529">
        <ele>137.298704</ele>
        <time>2011-02-15T14:06:41Z</time>
      </trkpt>
      <trkpt lat="43.33337" lon="-0.47519">
        <ele>137.284001</ele>
        <time>2011-02-15T14:06:44Z</time>
      </trkpt>
      <trkpt lat="43.33324" lon="-0.47509">
        <ele>137.315066</ele>
        <time>2011-02-15T14:06:47Z</time>
      </trkpt>
      <trkpt lat="43.33311" lon="-0.47498">
        <ele>137.342614</ele>
        <time>2011-02-15T14:06:50Z</time>
      </trkpt>
      <trkpt lat="43.333" lon="-0.47484">
        <ele>137.354476</ele>
        <time>2011-02-15T14:06:53Z</time>
      </trkpt>
      <trkpt lat="43.3329" lon="-0.4747">
        <ele>137.355539</ele>
        <time>2011-02-15T14:06:56Z</time>
      </trkpt>
      <trkpt lat="43.33281" lon="-0.47457">
        <ele>137.352949</ele>
        <time>2011-02-15T14:06:59Z</time>
      </trkpt>
      <trkpt lat="43.33267" lon="-0.47446">
        <ele>137.350681</ele>
        <time>2011-02-15T14:07:02Z</time>
      </trkpt>
      <trkpt lat="43.33251" lon="-0.47437">
        <ele>137.349695</ele>
        <time>2011-02-15T14:07:05Z</time>
      </trkpt>
      <trkpt lat="43.33236" lon="-0.47427">
        <ele>137.349588</ele>
        <time>2011-02-15T14:07:08Z</time>
      </trkpt>
      <trkpt lat="43.33221" lon="-0.47418">
        <ele>137.349786</ele>
        <time>2011-02-15T14:07:11Z</time>
      </trkpt>
      <trkpt lat="43.33208" lon="-0.47408">
        <ele>137.349954</ele>
        <time>2011-02-15T14:07:14Z</time>
      </trkpt>
      <trkpt lat="43.33199" lon="-0.474">
        <ele>137.35001</ele>
        <time>2011-02-15T14:07:16Z</time>
      </trkpt>
      <trkpt lat="43.33188" lon="-0.47385">
        <ele>137.349998</ele>
        <time>2011-02-15T14:07:19Z</time>
      </trkpt>
      <trkpt lat="43.33182" lon="-0.47375">
        <ele>137.349973</ele>
        <time>2011-02-15T14:07:21Z</time>
      </trkpt>
      <trkpt lat="43.33175" lon="-0.47359">
        <ele>137.488122</ele>
        <time>2011-02-15T14:07:24Z</time>
      </trkpt>
      <trkpt lat="43.33169" lon="-0.47347">
        <ele>137.847975</ele>
        <time>2011-02-15T14:07:27Z</time>
      </trkpt>
      <trkpt lat="43.33162" lon="-0.47333">
        <ele>138.355555</ele>
        <time>2011-02-15T14:07:30Z</time>
      </trkpt>
      <trkpt lat="43.33152" lon="-0.4732">
        <ele>138.890699</ele>
        <time>2011-02-15T14:07:33Z</time>
      </trkpt>
      <trkpt lat="43.33146" lon="-0.47312">
        <ele>139.286673</ele>
        <time>2011-02-15T14:07:35Z</time>
      </trkpt>
      <trkpt lat="43.33134" lon="-0.47301">
        <ele>139.431967</ele>
        <time>2011-02-15T14:07:38Z</time>
      </trkpt>
      <trkpt lat="43.33125" lon="-0.47293">
        <ele>139.566581</ele>
        <time>2011-02-15T14:07:40Z</time>
      </trkpt>
      <trkpt lat="43.33116" lon="-0.47282">
        <ele>139.882391</ele>
        <time>2011-02-15T14:07:42Z</time>
      </trkpt>
      <trkpt lat="43.33104" lon="-0.47265">
        <ele>140.21969</ele>
        <time>2011-02-15T14:07:45Z</time>
      </trkpt>
      <trkpt lat="43.331" lon="-0.47243">
        <ele>140.383352</ele>
        <time>2011-02-15T14:07:48Z</time>
      </trkpt>
      <trkpt lat="43.33102" lon="-0.47229">
        <ele>140.410323</ele>
        <time>2011-02-15T14:07:50Z</time>
      </trkpt>
      <trkpt lat="43.33103" lon="-0.47209">
        <ele>140.522149</ele>
        <time>2011-02-15T14:07:53Z</time>
      </trkpt>
      <trkpt lat="43.33103" lon="-0.47195">
        <ele>140.854541</ele>
        <time>2011-02-15T14:07:55Z</time>
      </trkpt>
      <trkpt lat="43.33103" lon="-0.47181">
        <ele>141.210823</ele>
        <time>2011-02-15T14:07:57Z</time>
      </trkpt>
      <trkpt lat="43.33114" lon="-0.47161">
        <ele>141.384061</ele>
        <time>2011-02-15T14:08:00Z</time>
      </trkpt>
      <trkpt lat="43.33127" lon="-0.47141">
        <ele>141.412849</ele>
        <time>2011-02-15T14:08:03Z</time>
      </trkpt>
      <trkpt lat="43.33137" lon="-0.47119">
        <ele>141.385166</ele>
        <time>2011-02-15T14:08:06Z</time>
      </trkpt>
      <trkpt lat="43.33145" lon="-0.47099">
        <ele>141.356181</ele>
        <time>2011-02-15T14:08:09Z</time>
      </trkpt>
      <trkpt lat="43.33152" lon="-0.47083">
        <ele>141.480503</ele>
        <time>2011-02-15T14:08:12Z</time>
      </trkpt>
      <trkpt lat="43.33162" lon="-0.47066">
        <ele>141.838298</ele>
        <time>2011-02-15T14:08:15Z</time>
      </trkpt>
      <trkpt lat="43.3317" lon="-0.47057">
        <ele>142.348343</ele>
        <time>2011-02-15T14:08:17Z</time>
      </trkpt>
      <trkpt lat="43.33182" lon="-0.47043">
        <ele>142.885976</ele>
        <time>2011-02-15T14:08:20Z</time>
      </trkpt>
      <trkpt lat="43.33195" lon="-0.47029">
        <ele>143.283164</ele>
        <time>2011-02-15T14:08:23Z</time>
      </trkpt>
      <trkpt lat="43.33202" lon="-0.4702">
        <ele>143.428699</ele>
        <time>2011-02-15T14:08:25Z</time>
      </trkpt>
      <trkpt lat="43.33212" lon="-0.47004">
        <ele>143.56319</ele>
        <time>2011-02-15T14:08:28Z</time>
      </trkpt>
      <trkpt lat="43.33219" lon="-0.46987">
        <ele>144.01707</ele>
        <time>2011-02-15T14:08:31Z</time>
      </trkpt>
      <trkpt lat="43.33224" lon="-0.46975">
        <ele>144.714265</ele>
        <time>2011-02-15T14:08:33Z</time>
      </trkpt>
      <trkpt lat="43.3323" lon="-0.46957">
        <ele>145.247433</ele>
        <time>2011-02-15T14:08:36Z</time>
      </trkpt>
      <trkpt lat="43.33235" lon="-0.46936">
        <ele>145.449763</ele>
        <time>2011-02-15T14:08:39Z</time>
      </trkpt>
      <trkpt lat="43.33237" lon="-0.46922">
        <ele>145.450062</ele>
        <time>2011-02-15T14:08:41Z</time>
      </trkpt>
      <trkpt lat="43.33239" lon="-0.46901">
        <ele>145.392712</ele>
        <time>2011-02-15T14:08:44Z</time>
      </trkpt>
      <trkpt lat="43.3324" lon="-0.46887">
        <ele>145.349578</ele>
        <time>2011-02-15T14:08:46Z</time>
      </trkpt>
      <trkpt lat="43.33241" lon="-0.46867">
        <ele>145.333521</ele>
        <time>2011-02-15T14:08:49Z</time>
      </trkpt>
      <trkpt lat="43.33242" lon="-0.46853">
        <ele>145.333729</ele>
        <time>2011-02-15T14:08:51Z</time>
      </trkpt>
      <trkpt lat="43.33243" lon="-0.4684">
        <ele>145.338454</ele>
        <time>2011-02-15T14:08:53Z</time>
      </trkpt>
      <trkpt lat="43.33248" lon="-0.46819">
        <ele>145.203812</ele>
        <time>2011-02-15T14:08:56Z</time>
      </trkpt>
      <trkpt lat="43.33251" lon="-0.46798">
        <ele>144.845313</ele>
        <time>2011-02-15T14:08:59Z</time>
      </trkpt>
      <trkpt lat="43.33253" lon="-0.46776">
        <ele>144.475962</ele>
        <time>2011-02-15T14:09:02Z</time>
      </trkpt>
      <trkpt lat="43.33255" lon="-0.46756">
        <ele>144.300366</ele>
        <time>2011-02-15T14:09:05Z</time>
      </trkpt>
      <trkpt lat="43.33257" lon="-0.46743">
        <ele>144.41175</ele>
        <time>2011-02-15T14:09:07Z</time>
      </trkpt>
      <trkpt lat="43.33259" lon="-0.46723">
        <ele>144.801559</ele>
        <time>2011-02-15T14:09:10Z</time>
      </trkpt>
      <trkpt lat="43.33262" lon="-0.46711">
        <ele>145.201169</ele>
        <time>2011-02-15T14:09:12Z</time>
      </trkpt>
      <trkpt lat="43.33264" lon="-0.46699">
        <ele>145.390635</ele>
        <time>2011-02-15T14:09:14Z</time>
      </trkpt>
      <trkpt lat="43.33263" lon="-0.46679">
        <ele>145.419283</ele>
        <time>2011-02-15T14:09:17Z</time>
      </trkpt>
      <trkpt lat="43.3326" lon="-0.4666">
        <ele>145.386876</ele>
        <time>2011-02-15T14:09:20Z</time>
      </trkpt>
      <trkpt lat="43.33256" lon="-0.46642">
        <ele>145.492553</ele>
        <time>2011-02-15T14:09:23Z</time>
      </trkpt>
      <trkpt lat="43.33252" lon="-0.46624">
        <ele>145.837267</ele>
        <time>2011-02-15T14:09:26Z</time>
      </trkpt>
      <trkpt lat="43.33246" lon="-0.46606">
        <ele>146.20458</ele>
        <time>2011-02-15T14:09:29Z</time>
      </trkpt>
      <trkpt lat="43.33242" lon="-0.46594">
        <ele>146.382598</ele>
        <time>2011-02-15T14:09:31Z</time>
      </trkpt>
      <trkpt lat="43.33237" lon="-0.46582">
        <ele>146.411828</ele>
        <time>2011-02-15T14:09:33Z</time>
      </trkpt>
      <trkpt lat="43.33231" lon="-0.46564">
        <ele>146.383107</ele>
        <time>2011-02-15T14:09:36Z</time>
      </trkpt>
      <trkpt lat="43.33229" lon="-0.46551">
        <ele>146.353199</ele>
        <time>2011-02-15T14:09:38Z</time>
      </trkpt>
      <trkpt lat="43.3323" lon="-0.46531">
        <ele>146.338906</ele>
        <time>2011-02-15T14:09:41Z</time>
      </trkpt>
      <trkpt lat="43.33235" lon="-0.46513">
        <ele>146.336693</ele>
        <time>2011-02-15T14:09:44Z</time>
      </trkpt>
      <trkpt lat="43.3324" lon="-0.465">
        <ele>146.339117</ele>
        <time>2011-02-15T14:09:47Z</time>
      </trkpt>
      <trkpt lat="43.33244" lon="-0.46487">
        <ele>146.479771</ele>
        <time>2011-02-15T14:09:50Z</time>
      </trkpt>
      <trkpt lat="43.33247" lon="-0.46473">
        <ele>146.840869</ele>
        <time>2011-02-15T14:09:54Z</time>
      </trkpt>
      <trkpt lat="43.33238" lon="-0.46468">
        <ele>147.210545</ele>
        <time>2011-02-15T14:10:00Z</time>
      </trkpt>
      <trkpt lat="43.33227" lon="-0.46476">
        <ele>147.523858</ele>
        <time>2011-02-15T14:10:03Z</time>
      </trkpt>
      <trkpt lat="43.33217" lon="-0.46484">
        <ele>148.048304</ele>
        <time>2011-02-15T14:10:06Z</time>
      </trkpt>
      <trkpt lat="43.33205" lon="-0.46493">
        <ele>148.747545</ele>
        <time>2011-02-15T14:10:09Z</time>
      </trkpt>
      <trkpt lat="43.33194" lon="-0.46502">
        <ele>149.262088</ele>
        <time>2011-02-15T14:10:12Z</time>
      </trkpt>
      <trkpt lat="43.33186" lon="-0.46508">
        <ele>149.449777</ele>
        <time>2011-02-15T14:10:14Z</time>
      </trkpt>
      <trkpt lat="43.33177" lon="-0.46514">
        <ele>149.444297</ele>
        <time>2011-02-15T14:10:16Z</time>
      </trkpt>
      <trkpt lat="43.33165" lon="-0.46523">
        <ele>149.386668</ele>
        <time>2011-02-15T14:10:19Z</time>
      </trkpt>
      <trkpt lat="43.33153" lon="-0.46532">
        <ele>149.344855</ele>
        <time>2011-02-15T14:10:22Z</time>
      </trkpt>
      <trkpt lat="43.33144" lon="-0.46538">
        <ele>149.3298</ele>
        <time>2011-02-15T14:10:24Z</time>
      </trkpt>
      <trkpt lat="43.33132" lon="-0.46547">
        <ele>149.330347</ele>
        <time>2011-02-15T14:10:27Z</time>
      </trkpt>
      <trkpt lat="43.33119" lon="-0.46556">
        <ele>149.334989</ele>
        <time>2011-02-15T14:10:30Z</time>
      </trkpt>
      <trkpt lat="43.33106" lon="-0.46565">
        <ele>149.338275</ele>
        <time>2011-02-15T14:10:33Z</time>
      </trkpt>
      <trkpt lat="43.33093" lon="-0.46575">
        <ele>149.339382</ele>
        <time>2011-02-15T14:10:36Z</time>
      </trkpt>
      <trkpt lat="43.3308" lon="-0.46585">
        <ele>149.339242</ele>
        <time>2011-02-15T14:10:39Z</time>
      </trkpt>
      <trkpt lat="43.33071" lon="-0.46592">
        <ele>149.338797</ele>
        <time>2011-02-15T14:10:41Z</time>
      </trkpt>
      <trkpt lat="43.33058" lon="-0.46602">
        <ele>149.338468</ele>
        <time>2011-02-15T14:10:44Z</time>
      </trkpt>
      <trkpt lat="43.33045" lon="-0.46612">
        <ele>149.338313</ele>
        <time>2011-02-15T14:10:47Z</time>
      </trkpt>
      <trkpt lat="43.33033" lon="-0.46623">
        <ele>149.338277</ele>
        <time>2011-02-15T14:10:50Z</time>
      </trkpt>
      <trkpt lat="43.33023" lon="-0.46634">
        <ele>149.338295</ele>
        <time>2011-02-15T14:10:53Z</time>
      </trkpt>
      <trkpt lat="43.33032" lon="-0.46646">
        <ele>149.476426</ele>
        <time>2011-02-15T14:10:56Z</time>
      </trkpt>
      <trkpt lat="43.3305" lon="-0.46648">
        <ele>149.83616</ele>
        <time>2011-02-15T14:10:59Z</time>
      </trkpt>
      <trkpt lat="43.33063" lon="-0.46659">
        <ele>150.205451</ele>
        <time>2011-02-15T14:11:02Z</time>
      </trkpt>
      <trkpt lat="43.33062" lon="-0.46673">
        <ele>150.380685</ele>
        <time>2011-02-15T14:11:05Z</time>
      </trkpt>
      <trkpt lat="43.33058" lon="-0.46687">
        <ele>150.407235</ele>
        <time>2011-02-15T14:11:08Z</time>
      </trkpt>
      <trkpt lat="43.33048" lon="-0.467">
        <ele>150.377243</ele>
        <time>2011-02-15T14:11:11Z</time>
      </trkpt>
      <trkpt lat="43.33036" lon="-0.4671">
        <ele>150.347105</ele>
        <time>2011-02-15T14:11:14Z</time>
      </trkpt>
      <trkpt lat="43.33023" lon="-0.46719">
        <ele>150.332961</ele>
        <time>2011-02-15T14:11:17Z</time>
      </trkpt>
      <trkpt lat="43.33014" lon="-0.46726">
        <ele>150.330863</ele>
        <time>2011-02-15T14:11:19Z</time>
      </trkpt>
      <trkpt lat="43.33003" lon="-0.46738">
        <ele>150.195118</ele>
        <time>2011-02-15T14:11:22Z</time>
      </trkpt>
      <trkpt lat="43.32992" lon="-0.46752">
        <ele>149.837647</ele>
        <time>2011-02-15T14:11:25Z</time>
      </trkpt>
      <trkpt lat="43.32981" lon="-0.46767">
        <ele>149.469289</ele>
        <time>2011-02-15T14:11:28Z</time>
      </trkpt>
      <trkpt lat="43.32974" lon="-0.46778">
        <ele>149.294085</ele>
        <time>2011-02-15T14:11:30Z</time>
      </trkpt>
      <trkpt lat="43.32967" lon="-0.4679">
        <ele>149.267246</ele>
        <time>2011-02-15T14:11:32Z</time>
      </trkpt>
      <trkpt lat="43.32956" lon="-0.46807">
        <ele>149.296933</ele>
        <time>2011-02-15T14:11:35Z</time>
      </trkpt>
      <trkpt lat="43.32948" lon="-0.46818">
        <ele>149.188677</ele>
        <time>2011-02-15T14:11:37Z</time>
      </trkpt>
      <trkpt lat="43.32934" lon="-0.46834">
        <ele>148.842787</ele>
        <time>2011-02-15T14:11:40Z</time>
      </trkpt>
      <trkpt lat="43.32918" lon="-0.46847">
        <ele>148.475316</ele>
        <time>2011-02-15T14:11:43Z</time>
      </trkpt>
      <trkpt lat="43.32908" lon="-0.46855">
        <ele>148.297495</ele>
        <time>2011-02-15T14:11:45Z</time>
      </trkpt>
      <trkpt lat="43.32893" lon="-0.46869">
        <ele>148.26843</ele>
        <time>2011-02-15T14:11:48Z</time>
      </trkpt>
      <trkpt lat="43.32882" lon="-0.46885">
        <ele>148.297186</ele>
        <time>2011-02-15T14:11:51Z</time>
      </trkpt>
      <trkpt lat="43.32872" lon="-0.46902">
        <ele>148.327037</ele>
        <time>2011-02-15T14:11:54Z</time>
      </trkpt>
      <trkpt lat="43.32862" lon="-0.4692">
        <ele>148.203062</ele>
        <time>2011-02-15T14:11:57Z</time>
      </trkpt>
      <trkpt lat="43.32856" lon="-0.46932">
        <ele>147.845293</ele>
        <time>2011-02-15T14:11:59Z</time>
      </trkpt>
      <trkpt lat="43.32848" lon="-0.46949">
        <ele>147.473351</ele>
        <time>2011-02-15T14:12:02Z</time>
      </trkpt>
      <trkpt lat="43.3284" lon="-0.46967">
        <ele>147.295545</ele>
        <time>2011-02-15T14:12:05Z</time>
      </trkpt>
      <trkpt lat="43.32836" lon="-0.46979">
        <ele>147.267766</ele>
        <time>2011-02-15T14:12:07Z</time>
      </trkpt>
      <trkpt lat="43.32831" lon="-0.46992">
        <ele>147.159315</ele>
        <time>2011-02-15T14:12:09Z</time>
      </trkpt>
      <trkpt lat="43.32824" lon="-0.47011">
        <ele>146.829658</ele>
        <time>2011-02-15T14:12:12Z</time>
      </trkpt>
      <trkpt lat="43.32818" lon="-0.4703">
        <ele>146.474476</ele>
        <time>2011-02-15T14:12:15Z</time>
      </trkpt>
      <trkpt lat="43.32814" lon="-0.47049">
        <ele>146.301317</ele>
        <time>2011-02-15T14:12:18Z</time>
      </trkpt>
      <trkpt lat="43.32814" lon="-0.47069">
        <ele>146.410443</ele>
        <time>2011-02-15T14:12:21Z</time>
      </trkpt>
      <trkpt lat="43.32814" lon="-0.47083">
        <ele>146.935893</ele>
        <time>2011-02-15T14:12:23Z</time>
      </trkpt>
      <trkpt lat="43.32816" lon="-0.47106">
        <ele>147.693992</ele>
        <time>2011-02-15T14:12:26Z</time>
      </trkpt>
      <trkpt lat="43.32818" lon="-0.47131">
        <ele>148.252519</ele>
        <time>2011-02-15T14:12:29Z</time>
      </trkpt>
      <trkpt lat="43.32819" lon="-0.47148">
        <ele>148.732871</ele>
        <time>2011-02-15T14:12:31Z</time>
      </trkpt>
      <trkpt lat="43.32819" lon="-0.47164">
        <ele>149.585036</ele>
        <time>2011-02-15T14:12:33Z</time>
      </trkpt>
      <trkpt lat="43.3282" lon="-0.47183">
        <ele>150.621264</ele>
        <time>2011-02-15T14:12:36Z</time>
      </trkpt>
      <trkpt lat="43.3282" lon="-0.47199">
        <ele>151.434003</ele>
        <time>2011-02-15T14:12:39Z</time>
      </trkpt>
      <trkpt lat="43.32822" lon="-0.47215">
        <ele>152.005868</ele>
        <time>2011-02-15T14:12:42Z</time>
      </trkpt>
      <trkpt lat="43.32822" lon="-0.4723">
        <ele>152.480632</ele>
        <time>2011-02-15T14:12:45Z</time>
      </trkpt>
      <trkpt lat="43.32822" lon="-0.47244">
        <ele>152.930628</ele>
        <time>2011-02-15T14:12:48Z</time>
      </trkpt>
      <trkpt lat="43.32823" lon="-0.47259">
        <ele>153.271888</ele>
        <time>2011-02-15T14:12:51Z</time>
      </trkpt>
      <trkpt lat="43.32824" lon="-0.47278">
        <ele>153.400309</ele>
        <time>2011-02-15T14:12:54Z</time>
      </trkpt>
      <trkpt lat="43.32826" lon="-0.47301">
        <ele>153.399665</ele>
        <time>2011-02-15T14:12:57Z</time>
      </trkpt>
      <trkpt lat="43.32827" lon="-0.47316">
        <ele>153.500741</ele>
        <time>2011-02-15T14:12:59Z</time>
      </trkpt>
      <trkpt lat="43.32829" lon="-0.4734">
        <ele>153.832853</ele>
        <time>2011-02-15T14:13:02Z</time>
      </trkpt>
      <trkpt lat="43.3283" lon="-0.47357">
        <ele>154.191936</ele>
        <time>2011-02-15T14:13:04Z</time>
      </trkpt>
      <trkpt lat="43.32834" lon="-0.47381">
        <ele>154.367328</ele>
        <time>2011-02-15T14:13:07Z</time>
      </trkpt>
      <trkpt lat="43.32836" lon="-0.47397">
        <ele>154.39688</ele>
        <time>2011-02-15T14:13:09Z</time>
      </trkpt>
      <trkpt lat="43.32838" lon="-0.47419">
        <ele>154.369074</ele>
        <time>2011-02-15T14:13:12Z</time>
      </trkpt>
      <trkpt lat="43.32843" lon="-0.47441">
        <ele>154.339698</ele>
        <time>2011-02-15T14:13:15Z</time>
      </trkpt>
      <trkpt lat="43.3285" lon="-0.47461">
        <ele>154.187322</ele>
        <time>2011-02-15T14:13:18Z</time>
      </trkpt>
      <trkpt lat="43.32856" lon="-0.47473">
        <ele>153.825095</ele>
        <time>2011-02-15T14:13:20Z</time>
      </trkpt>
      <trkpt lat="43.32865" lon="-0.47489">
        <ele>153.457917</ele>
        <time>2011-02-15T14:13:23Z</time>
      </trkpt>
      <trkpt lat="43.32875" lon="-0.47505">
        <ele>153.284984</ele>
        <time>2011-02-15T14:13:26Z</time>
      </trkpt>
      <trkpt lat="43.32887" lon="-0.47519">
        <ele>153.259543</ele>
        <time>2011-02-15T14:13:29Z</time>
      </trkpt>
      <trkpt lat="43.32899" lon="-0.47533">
        <ele>153.28968</ele>
        <time>2011-02-15T14:13:32Z</time>
      </trkpt>
      <trkpt lat="43.32911" lon="-0.47548">
        <ele>153.319589</ele>
        <time>2011-02-15T14:13:35Z</time>
      </trkpt>
      <trkpt lat="43.32924" lon="-0.47565">
        <ele>153.333493</ele>
        <time>2011-02-15T14:13:38Z</time>
      </trkpt>
      <trkpt lat="43.32936" lon="-0.47582">
        <ele>153.197249</ele>
        <time>2011-02-15T14:13:41Z</time>
      </trkpt>
      <trkpt lat="43.32948" lon="-0.47599">
        <ele>152.834851</ele>
        <time>2011-02-15T14:13:44Z</time>
      </trkpt>
      <trkpt lat="43.32955" lon="-0.4761">
        <ele>152.462981</ele>
        <time>2011-02-15T14:13:46Z</time>
      </trkpt>
      <trkpt lat="43.32963" lon="-0.4762">
        <ele>152.286601</ele>
        <time>2011-02-15T14:13:48Z</time>
      </trkpt>
      <trkpt lat="43.32974" lon="-0.47632">
        <ele>152.259923</ele>
        <time>2011-02-15T14:13:51Z</time>
      </trkpt>
      <trkpt lat="43.32986" lon="-0.47639">
        <ele>152.290115</ele>
        <time>2011-02-15T14:13:54Z</time>
      </trkpt>
      <trkpt lat="43.32999" lon="-0.47642">
        <ele>152.182251</ele>
        <time>2011-02-15T14:13:57Z</time>
      </trkpt>
      <trkpt lat="43.33013" lon="-0.47642">
        <ele>151.836582</ele>
        <time>2011-02-15T14:14:00Z</time>
      </trkpt>
      <trkpt lat="43.33029" lon="-0.4764">
        <ele>151.469232</ele>
        <time>2011-02-15T14:14:03Z</time>
      </trkpt>
      <trkpt lat="43.33045" lon="-0.47639">
        <ele>151.291494</ele>
        <time>2011-02-15T14:14:06Z</time>
      </trkpt>
      <trkpt lat="43.33061" lon="-0.47641">
        <ele>151.262508</ele>
        <time>2011-02-15T14:14:09Z</time>
      </trkpt>
      <trkpt lat="43.33076" lon="-0.47644">
        <ele>151.291363</ele>
        <time>2011-02-15T14:14:12Z</time>
      </trkpt>
      <trkpt lat="43.33091" lon="-0.47647">
        <ele>151.321351</ele>
        <time>2011-02-15T14:14:15Z</time>
      </trkpt>
      <trkpt lat="43.33101" lon="-0.47651">
        <ele>151.335736</ele>
        <time>2011-02-15T14:14:17Z</time>
      </trkpt>
      <trkpt lat="43.33114" lon="-0.47665">
        <ele>151.338074</ele>
        <time>2011-02-15T14:14:20Z</time>
      </trkpt>
      <trkpt lat="43.33125" lon="-0.47682">
        <ele>151.335765</ele>
        <time>2011-02-15T14:14:23Z</time>
      </trkpt>
      <trkpt lat="43.33136" lon="-0.47701">
        <ele>151.333365</ele>
        <time>2011-02-15T14:14:26Z</time>
      </trkpt>
      <trkpt lat="43.33142" lon="-0.47713">
        <ele>151.332217</ele>
        <time>2011-02-15T14:14:28Z</time>
      </trkpt>
      <trkpt lat="43.33149" lon="-0.47725">
        <ele>151.332033</ele>
        <time>2011-02-15T14:14:30Z</time>
      </trkpt>
      <trkpt lat="43.33158" lon="-0.47743">
        <ele>151.332219</ele>
        <time>2011-02-15T14:14:33Z</time>
      </trkpt>
      <trkpt lat="43.33165" lon="-0.47762">
        <ele>151.332406</ele>
        <time>2011-02-15T14:14:36Z</time>
      </trkpt>
      <trkpt lat="43.3317" lon="-0.47783">
        <ele>151.332488</ele>
        <time>2011-02-15T14:14:39Z</time>
      </trkpt>
      <trkpt lat="43.33173" lon="-0.47804">
        <ele>151.33249</ele>
        <time>2011-02-15T14:14:42Z</time>
      </trkpt>
      <trkpt lat="43.33171" lon="-0.47825">
        <ele>151.332454</ele>
        <time>2011-02-15T14:14:45Z</time>
      </trkpt>
      <trkpt lat="43.33171" lon="-0.47846">
        <ele>151.33241</ele>
        <time>2011-02-15T14:14:48Z</time>
      </trkpt>
      <trkpt lat="43.3317" lon="-0.47863">
        <ele>151.33237</ele>
        <time>2011-02-15T14:14:51Z</time>
      </trkpt>
      <trkpt lat="43.33168" lon="-0.4788">
        <ele>151.332347</ele>
        <time>2011-02-15T14:14:54Z</time>
      </trkpt>
      <trkpt lat="43.33168" lon="-0.47897">
        <ele>151.332341</ele>
        <time>2011-02-15T14:14:57Z</time>
      </trkpt>
      <trkpt lat="43.33169" lon="-0.47916">
        <ele>151.470475</ele>
        <time>2011-02-15T14:15:00Z</time>
      </trkpt>
      <trkpt lat="43.33174" lon="-0.47936">
        <ele>151.83026</ele>
        <time>2011-02-15T14:15:03Z</time>
      </trkpt>
      <trkpt lat="43.33177" lon="-0.47949">
        <ele>152.337739</ele>
        <time>2011-02-15T14:15:05Z</time>
      </trkpt>
      <trkpt lat="43.3318" lon="-0.47971">
        <ele>152.872765</ele>
        <time>2011-02-15T14:15:08Z</time>
      </trkpt>
      <trkpt lat="43.3318" lon="-0.47985">
        <ele>153.268637</ele>
        <time>2011-02-15T14:15:10Z</time>
      </trkpt>
      <trkpt lat="43.3318" lon="-0.47998">
        <ele>153.413878</ele>
        <time>2011-02-15T14:15:12Z</time>
      </trkpt>
      <trkpt lat="43.3318" lon="-0.48011">
        <ele>153.410293</ele>
        <time>2011-02-15T14:15:14Z</time>
      </trkpt>
      <trkpt lat="43.33179" lon="-0.48029">
        <ele>153.366194</ele>
        <time>2011-02-15T14:15:17Z</time>
      </trkpt>
      <trkpt lat="43.33178" lon="-0.48048">
        <ele>153.334028</ele>
        <time>2011-02-15T14:15:20Z</time>
      </trkpt>
      <trkpt lat="43.33177" lon="-0.48068">
        <ele>153.322382</ele>
        <time>2011-02-15T14:15:23Z</time>
      </trkpt>
      <trkpt lat="43.33175" lon="-0.48087">
        <ele>153.322773</ele>
        <time>2011-02-15T14:15:26Z</time>
      </trkpt>
      <trkpt lat="43.33178" lon="-0.48106">
        <ele>153.326379</ele>
        <time>2011-02-15T14:15:29Z</time>
      </trkpt>
      <trkpt lat="43.33183" lon="-0.48125">
        <ele>153.328971</ele>
        <time>2011-02-15T14:15:32Z</time>
      </trkpt>
      <trkpt lat="43.33187" lon="-0.48137">
        <ele>153.329866</ele>
        <time>2011-02-15T14:15:34Z</time>
      </trkpt>
      <trkpt lat="43.33192" lon="-0.48149">
        <ele>153.329764</ele>
        <time>2011-02-15T14:15:36Z</time>
      </trkpt>
      <trkpt lat="43.332" lon="-0.48164">
        <ele>153.329384</ele>
        <time>2011-02-15T14:15:39Z</time>
      </trkpt>
      <trkpt lat="43.33206" lon="-0.48177">
        <ele>153.329072</ele>
        <time>2011-02-15T14:15:42Z</time>
      </trkpt>
      <trkpt lat="43.33212" lon="-0.48192">
        <ele>153.190736</ele>
        <time>2011-02-15T14:15:45Z</time>
      </trkpt>
      <trkpt lat="43.33219" lon="-0.48208">
        <ele>152.830805</ele>
        <time>2011-02-15T14:15:48Z</time>
      </trkpt>
      <trkpt lat="43.33223" lon="-0.48225">
        <ele>152.461375</ele>
        <time>2011-02-15T14:15:51Z</time>
      </trkpt>
      <trkpt lat="43.33228" lon="-0.48238">
        <ele>152.147941</ele>
        <time>2011-02-15T14:15:53Z</time>
      </trkpt>
      <trkpt lat="43.33236" lon="-0.48256">
        <ele>151.623334</ele>
        <time>2011-02-15T14:15:56Z</time>
      </trkpt>
      <trkpt lat="43.33244" lon="-0.48275">
        <ele>150.785793</ele>
        <time>2011-02-15T14:15:59Z</time>
      </trkpt>
      <trkpt lat="43.33249" lon="-0.48287">
        <ele>149.911281</ele>
        <time>2011-02-15T14:16:01Z</time>
      </trkpt>
      <trkpt lat="43.33256" lon="-0.48305">
        <ele>149.215943</ele>
        <time>2011-02-15T14:16:04Z</time>
      </trkpt>
      <trkpt lat="43.33262" lon="-0.48324">
        <ele>148.686237</ele>
        <time>2011-02-15T14:16:07Z</time>
      </trkpt>
      <trkpt lat="43.33262" lon="-0.48337">
        <ele>148.347835</ele>
        <time>2011-02-15T14:16:09Z</time>
      </trkpt>
      <trkpt lat="43.33264" lon="-0.48353">
        <ele>148.106108</ele>
        <time>2011-02-15T14:16:12Z</time>
      </trkpt>
      <trkpt lat="43.33265" lon="-0.48366">
        <ele>147.764764</ele>
        <time>2011-02-15T14:16:15Z</time>
      </trkpt>
      <trkpt lat="43.33272" lon="-0.48377">
        <ele>147.43876</ele>
        <time>2011-02-15T14:16:19Z</time>
      </trkpt>
      <trkpt lat="43.33281" lon="-0.48374">
        <ele>147.152665</ele>
        <time>2011-02-15T14:16:22Z</time>
      </trkpt>
      <trkpt lat="43.3329" lon="-0.4838">
        <ele>146.63623</ele>
        <time>2011-02-15T14:16:25Z</time>
      </trkpt>
      <trkpt lat="43.33297" lon="-0.48388">
        <ele>145.797054</ele>
        <time>2011-02-15T14:16:28Z</time>
      </trkpt>
      <trkpt lat="43.33301" lon="-0.48401">
        <ele>144.919013</ele>
        <time>2011-02-15T14:16:31Z</time>
      </trkpt>
      <trkpt lat="43.33307" lon="-0.48413">
        <ele>144.359684</ele>
        <time>2011-02-15T14:16:34Z</time>
      </trkpt>
      <trkpt lat="43.33311" lon="-0.48428">
        <ele>144.189254</ele>
        <time>2011-02-15T14:16:38Z</time>
      </trkpt>
      <trkpt lat="43.33313" lon="-0.48441">
        <ele>144.220458</ele>
        <time>2011-02-15T14:16:41Z</time>
      </trkpt>
      <trkpt lat="43.33314" lon="-0.48456">
        <ele>144.29248</ele>
        <time>2011-02-15T14:16:44Z</time>
      </trkpt>
      <trkpt lat="43.33314" lon="-0.48472">
        <ele>144.199563</ele>
        <time>2011-02-15T14:16:47Z</time>
      </trkpt>
      <trkpt lat="43.33312" lon="-0.48488">
        <ele>143.853169</ele>
        <time>2011-02-15T14:16:50Z</time>
      </trkpt>
      <trkpt lat="43.33314" lon="-0.48506">
        <ele>143.480968</ele>
        <time>2011-02-15T14:16:53Z</time>
      </trkpt>
      <trkpt lat="43.33318" lon="-0.48518">
        <ele>143.299758</ele>
        <time>2011-02-15T14:16:55Z</time>
      </trkpt>
      <trkpt lat="43.33317" lon="-0.48535">
        <ele>143.269515</ele>
        <time>2011-02-15T14:16:58Z</time>
      </trkpt>
      <trkpt lat="43.3332" lon="-0.48552">
        <ele>143.298381</ele>
        <time>2011-02-15T14:17:01Z</time>
      </trkpt>
      <trkpt lat="43.33328" lon="-0.4856">
        <ele>143.328697</ele>
        <time>2011-02-15T14:17:03Z</time>
      </trkpt>
      <trkpt lat="43.33339" lon="-0.48566">
        <ele>143.343268</ele>
        <time>2011-02-15T14:17:06Z</time>
      </trkpt>
      <trkpt lat="43.33347" lon="-0.48574">
        <ele>143.48374</ele>
        <time>2011-02-15T14:17:09Z</time>
      </trkpt>
      <trkpt lat="43.33354" lon="-0.48582">
        <ele>143.841161</ele>
        <time>2011-02-15T14:17:12Z</time>
      </trkpt>
      <trkpt lat="43.33362" lon="-0.48589">
        <ele>144.208064</ele>
        <time>2011-02-15T14:17:15Z</time>
      </trkpt>
      <trkpt lat="43.3337" lon="-0.48599">
        <ele>144.382135</ele>
        <time>2011-02-15T14:17:18Z</time>
      </trkpt>
      <trkpt lat="43.33382" lon="-0.48604">
        <ele>144.408498</ele>
        <time>2011-02-15T14:17:21Z</time>
      </trkpt>
      <trkpt lat="43.33392" lon="-0.48606">
        <ele>144.516907</ele>
        <time>2011-02-15T14:17:24Z</time>
      </trkpt>
      <trkpt lat="43.33402" lon="-0.48605">
        <ele>144.846905</ele>
        <time>2011-02-15T14:17:27Z</time>
      </trkpt>
      <trkpt lat="43.33413" lon="-0.48607">
        <ele>145.202345</ele>
        <time>2011-02-15T14:17:31Z</time>
      </trkpt>
      <trkpt lat="43.33419" lon="-0.48617">
        <ele>145.3756</ele>
        <time>2011-02-15T14:17:35Z</time>
      </trkpt>
      <trkpt lat="43.33424" lon="-0.48628">
        <ele>145.404609</ele>
        <time>2011-02-15T14:17:39Z</time>
      </trkpt>
      <trkpt lat="43.33435" lon="-0.48634">
        <ele>145.238904</ele>
        <time>2011-02-15T14:17:43Z</time>
      </trkpt>
      <trkpt lat="43.33442" lon="-0.48646">
        <ele>144.850088</ele>
        <time>2011-02-15T14:17:47Z</time>
      </trkpt>
      <trkpt lat="43.33447" lon="-0.48656">
        <ele>144.466766</ele>
        <time>2011-02-15T14:17:50Z</time>
      </trkpt>
      <trkpt lat="43.33458" lon="-0.48662">
        <ele>144.289299</ele>
        <time>2011-02-15T14:17:53Z</time>
      </trkpt>
      <trkpt lat="43.33469" lon="-0.48669">
        <ele>144.265064</ele>
        <time>2011-02-15T14:17:56Z</time>
      </trkpt>
      <trkpt lat="43.33475" lon="-0.48683">
        <ele>144.297405</ele>
        <time>2011-02-15T14:17:59Z</time>
      </trkpt>
      <trkpt lat="43.33479" lon="-0.48697">
        <ele>144.190455</ele>
        <time>2011-02-15T14:18:02Z</time>
      </trkpt>
      <trkpt lat="43.33481" lon="-0.48711">
        <ele>143.84484</ele>
        <time>2011-02-15T14:18:05Z</time>
      </trkpt>
      <trkpt lat="43.33482" lon="-0.48724">
        <ele>143.477249</ele>
        <time>2011-02-15T14:18:08Z</time>
      </trkpt>
      <trkpt lat="43.33482" lon="-0.48737">
        <ele>143.299303</ele>
        <time>2011-02-15T14:18:11Z</time>
      </trkpt>
      <trkpt lat="43.33484" lon="-0.48751">
        <ele>143.270198</ele>
        <time>2011-02-15T14:18:14Z</time>
      </trkpt>
      <trkpt lat="43.33486" lon="-0.48766">
        <ele>143.298966</ele>
        <time>2011-02-15T14:18:17Z</time>
      </trkpt>
      <trkpt lat="43.33488" lon="-0.48782">
        <ele>143.328869</ele>
        <time>2011-02-15T14:18:20Z</time>
      </trkpt>
      <trkpt lat="43.3349" lon="-0.48797">
        <ele>143.343158</ele>
        <time>2011-02-15T14:18:23Z</time>
      </trkpt>
      <trkpt lat="43.33493" lon="-0.48811">
        <ele>143.483544</ele>
        <time>2011-02-15T14:18:26Z</time>
      </trkpt>
      <trkpt lat="43.33496" lon="-0.48825">
        <ele>143.840994</ele>
        <time>2011-02-15T14:18:29Z</time>
      </trkpt>
      <trkpt lat="43.33499" lon="-0.48839">
        <ele>144.207946</ele>
        <time>2011-02-15T14:18:32Z</time>
      </trkpt>
      <trkpt lat="43.33503" lon="-0.48854">
        <ele>144.382036</ele>
        <time>2011-02-15T14:18:35Z</time>
      </trkpt>
      <trkpt lat="43.33507" lon="-0.48869">
        <ele>144.408384</ele>
        <time>2011-02-15T14:18:38Z</time>
      </trkpt>
      <trkpt lat="43.3351" lon="-0.48884">
        <ele>144.378574</ele>
        <time>2011-02-15T14:18:41Z</time>
      </trkpt>
      <trkpt lat="43.33513" lon="-0.48898">
        <ele>144.348632</ele>
        <time>2011-02-15T14:18:44Z</time>
      </trkpt>
      <trkpt lat="43.33514" lon="-0.48913">
        <ele>144.334606</ele>
        <time>2011-02-15T14:18:47Z</time>
      </trkpt>
      <trkpt lat="43.33515" lon="-0.48928">
        <ele>144.33259</ele>
        <time>2011-02-15T14:18:50Z</time>
      </trkpt>
      <trkpt lat="43.33517" lon="-0.48943">
        <ele>144.611407</ele>
        <time>2011-02-15T14:18:53Z</time>
      </trkpt>
      <trkpt lat="43.33518" lon="-0.48958">
        <ele>145.609913</ele>
        <time>2011-02-15T14:18:56Z</time>
      </trkpt>
      <trkpt lat="43.3352" lon="-0.48973">
        <ele>147.069581</ele>
        <time>2011-02-15T14:18:59Z</time>
      </trkpt>
      <trkpt lat="43.33521" lon="-0.48986">
        <ele>148.159037</ele>
        <time>2011-02-15T14:19:02Z</time>
      </trkpt>
      <trkpt lat="43.33521" lon="-0.49">
        <ele>148.56238</ele>
        <time>2011-02-15T14:19:05Z</time>
      </trkpt>
      <trkpt lat="43.33524" lon="-0.49015">
        <ele>148.417084</ele>
        <time>2011-02-15T14:19:08Z</time>
      </trkpt>
      <trkpt lat="43.33527" lon="-0.49032">
        <ele>147.93689</ele>
        <time>2011-02-15T14:19:11Z</time>
      </trkpt>
      <trkpt lat="43.3353" lon="-0.49048">
        <ele>147.340817</ele>
        <time>2011-02-15T14:19:14Z</time>
      </trkpt>
      <trkpt lat="43.33532" lon="-0.49062">
        <ele>146.77342</ele>
        <time>2011-02-15T14:19:17Z</time>
      </trkpt>
      <trkpt lat="43.33535" lon="-0.49075">
        <ele>146.378402</ele>
        <time>2011-02-15T14:19:20Z</time>
      </trkpt>
      <trkpt lat="43.33541" lon="-0.49087">
        <ele>146.242994</ele>
        <time>2011-02-15T14:19:23Z</time>
      </trkpt>
      <trkpt lat="43.33549" lon="-0.491">
        <ele>146.253695</ele>
        <time>2011-02-15T14:19:26Z</time>
      </trkpt>
      <trkpt lat="43.33557" lon="-0.49115">
        <ele>146.300302</ele>
        <time>2011-02-15T14:19:29Z</time>
      </trkpt>
      <trkpt lat="43.33566" lon="-0.4913">
        <ele>146.332285</ele>
        <time>2011-02-15T14:19:32Z</time>
      </trkpt>
      <trkpt lat="43.33575" lon="-0.49145">
        <ele>146.343047</ele>
        <time>2011-02-15T14:19:35Z</time>
      </trkpt>
      <trkpt lat="43.33585" lon="-0.49158">
        <ele>146.342022</ele>
        <time>2011-02-15T14:19:38Z</time>
      </trkpt>
      <trkpt lat="43.33595" lon="-0.4917">
        <ele>146.2</ele>
        <time>2011-02-15T14:19:41Z</time>
      </trkpt>
      <trkpt lat="43.33602" lon="-0.49178">
        <ele>145.837502</ele>
        <time>2011-02-15T14:19:43Z</time>
      </trkpt>
      <trkpt lat="43.33612" lon="-0.49191">
        <ele>145.329021</ele>
        <time>2011-02-15T14:19:46Z</time>
      </trkpt>
      <trkpt lat="43.33616" lon="-0.49203">
        <ele>144.793958</ele>
        <time>2011-02-15T14:19:48Z</time>
      </trkpt>
      <trkpt lat="43.33619" lon="-0.49221">
        <ele>144.398307</ele>
        <time>2011-02-15T14:19:51Z</time>
      </trkpt>
      <trkpt lat="43.33621" lon="-0.49235">
        <ele>144.115065</ele>
        <time>2011-02-15T14:19:53Z</time>
      </trkpt>
      <trkpt lat="43.33624" lon="-0.49256">
        <ele>143.62064</ele>
        <time>2011-02-15T14:19:56Z</time>
      </trkpt>
      <trkpt lat="43.33628" lon="-0.49269">
        <ele>142.797197</ele>
        <time>2011-02-15T14:19:58Z</time>
      </trkpt>
      <trkpt lat="43.33641" lon="-0.49281">
        <ele>141.924682</ele>
        <time>2011-02-15T14:20:01Z</time>
      </trkpt>
      <trkpt lat="43.33649" lon="-0.49287">
        <ele>141.364998</ele>
        <time>2011-02-15T14:20:03Z</time>
      </trkpt>
      <trkpt lat="43.33658" lon="-0.49291">
        <ele>141.192717</ele>
        <time>2011-02-15T14:20:05Z</time>
      </trkpt>
      <trkpt lat="43.33667" lon="-0.49296">
        <ele>141.222628</ele>
        <time>2011-02-15T14:20:07Z</time>
      </trkpt>
      <trkpt lat="43.33679" lon="-0.49306">
        <ele>141.294207</ele>
        <time>2011-02-15T14:20:10Z</time>
      </trkpt>
      <trkpt lat="43.3369" lon="-0.4932">
        <ele>141.33951</ele>
        <time>2011-02-15T14:20:13Z</time>
      </trkpt>
      <trkpt lat="43.33696" lon="-0.49332">
        <ele>141.353184</ele>
        <time>2011-02-15T14:20:15Z</time>
      </trkpt>
      <trkpt lat="43.33702" lon="-0.49351">
        <ele>141.350565</ele>
        <time>2011-02-15T14:20:18Z</time>
      </trkpt>
      <trkpt lat="43.33705" lon="-0.49371">
        <ele>141.344703</ele>
        <time>2011-02-15T14:20:21Z</time>
      </trkpt>
      <trkpt lat="43.33708" lon="-0.49391">
        <ele>141.341024</ele>
        <time>2011-02-15T14:20:24Z</time>
      </trkpt>
      <trkpt lat="43.33711" lon="-0.49404">
        <ele>141.339894</ele>
        <time>2011-02-15T14:20:26Z</time>
      </trkpt>
      <trkpt lat="43.33718" lon="-0.49425">
        <ele>141.340061</ele>
        <time>2011-02-15T14:20:29Z</time>
      </trkpt>
      <trkpt lat="43.33724" lon="-0.49437">
        <ele>141.340495</ele>
        <time>2011-02-15T14:20:31Z</time>
      </trkpt>
      <trkpt lat="43.33736" lon="-0.49454">
        <ele>141.340767</ele>
        <time>2011-02-15T14:20:34Z</time>
      </trkpt>
      <trkpt lat="43.33745" lon="-0.4946">
        <ele>141.340847</ele>
        <time>2011-02-15T14:20:36Z</time>
      </trkpt>
      <trkpt lat="43.33759" lon="-0.49465">
        <ele>141.34083</ele>
        <time>2011-02-15T14:20:39Z</time>
      </trkpt>
      <trkpt lat="43.33771" lon="-0.49478">
        <ele>141.340796</ele>
        <time>2011-02-15T14:20:42Z</time>
      </trkpt>
      <trkpt lat="43.3378" lon="-0.49495">
        <ele>141.340775</ele>
        <time>2011-02-15T14:20:45Z</time>
      </trkpt>
      <trkpt lat="43.33786" lon="-0.49507">
        <ele>141.340772</ele>
        <time>2011-02-15T14:20:47Z</time>
      </trkpt>
      <trkpt lat="43.33793" lon="-0.49526">
        <ele>141.34078</ele>
        <time>2011-02-15T14:20:50Z</time>
      </trkpt>
      <trkpt lat="43.33801" lon="-0.49545">
        <ele>141.34079</ele>
        <time>2011-02-15T14:20:53Z</time>
      </trkpt>
      <trkpt lat="43.33809" lon="-0.49563">
        <ele>141.340795</ele>
        <time>2011-02-15T14:20:56Z</time>
      </trkpt>
      <trkpt lat="43.33816" lon="-0.49581">
        <ele>141.340791</ele>
        <time>2011-02-15T14:20:59Z</time>
      </trkpt>
      <trkpt lat="43.33819" lon="-0.49599">
        <ele>141.340774</ele>
        <time>2011-02-15T14:21:02Z</time>
      </trkpt>
      <trkpt lat="43.3382" lon="-0.49616">
        <ele>141.20257</ele>
        <time>2011-02-15T14:21:05Z</time>
      </trkpt>
      <trkpt lat="43.33821" lon="-0.49635">
        <ele>140.842649</ele>
        <time>2011-02-15T14:21:08Z</time>
      </trkpt>
      <trkpt lat="43.33824" lon="-0.49651">
        <ele>140.473188</ele>
        <time>2011-02-15T14:21:10Z</time>
      </trkpt>
      <trkpt lat="43.33832" lon="-0.49673">
        <ele>140.297911</ele>
        <time>2011-02-15T14:21:13Z</time>
      </trkpt>
      <trkpt lat="43.3384" lon="-0.49695">
        <ele>140.271375</ele>
        <time>2011-02-15T14:21:16Z</time>
      </trkpt>
      <trkpt lat="43.33847" lon="-0.49717">
        <ele>140.439497</ele>
        <time>2011-02-15T14:21:19Z</time>
      </trkpt>
      <trkpt lat="43.33854" lon="-0.49738">
        <ele>140.829386</ele>
        <time>2011-02-15T14:21:22Z</time>
      </trkpt>
      <trkpt lat="43.33858" lon="-0.49752">
        <ele>141.212803</ele>
        <time>2011-02-15T14:21:24Z</time>
      </trkpt>
      <trkpt lat="43.33863" lon="-0.49766">
        <ele>141.390032</ele>
        <time>2011-02-15T14:21:26Z</time>
      </trkpt>
      <trkpt lat="43.33865" lon="-0.49786">
        <ele>141.414052</ele>
        <time>2011-02-15T14:21:29Z</time>
      </trkpt>
      <trkpt lat="43.33864" lon="-0.49804">
        <ele>141.381604</ele>
        <time>2011-02-15T14:21:32Z</time>
      </trkpt>
      <trkpt lat="43.33874" lon="-0.49822">
        <ele>141.212166</ele>
        <time>2011-02-15T14:21:35Z</time>
      </trkpt>
      <trkpt lat="43.33883" lon="-0.49839">
        <ele>140.837993</ele>
        <time>2011-02-15T14:21:38Z</time>
      </trkpt>
      <trkpt lat="43.33888" lon="-0.49851">
        <ele>140.466698</ele>
        <time>2011-02-15T14:21:40Z</time>
      </trkpt>
      <trkpt lat="43.33895" lon="-0.49871">
        <ele>140.29408</ele>
        <time>2011-02-15T14:21:43Z</time>
      </trkpt>
      <trkpt lat="43.33901" lon="-0.49884">
        <ele>140.270052</ele>
        <time>2011-02-15T14:21:45Z</time>
      </trkpt>
      <trkpt lat="43.33912" lon="-0.499">
        <ele>140.16298</ele>
        <time>2011-02-15T14:21:48Z</time>
      </trkpt>
      <trkpt lat="43.33923" lon="-0.49911">
        <ele>139.833313</ele>
        <time>2011-02-15T14:21:51Z</time>
      </trkpt>
      <trkpt lat="43.33931" lon="-0.4992">
        <ele>139.477729</ele>
        <time>2011-02-15T14:21:53Z</time>
      </trkpt>
      <trkpt lat="43.33943" lon="-0.4994">
        <ele>139.304262</ele>
        <time>2011-02-15T14:21:56Z</time>
      </trkpt>
      <trkpt lat="43.33953" lon="-0.49961">
        <ele>139.27513</ele>
        <time>2011-02-15T14:21:59Z</time>
      </trkpt>
      <trkpt lat="43.33961" lon="-0.49981">
        <ele>139.164471</ele>
        <time>2011-02-15T14:22:02Z</time>
      </trkpt>
      <trkpt lat="43.33967" lon="-0.5">
        <ele>138.695397</ele>
        <time>2011-02-15T14:22:05Z</time>
      </trkpt>
      <trkpt lat="43.33972" lon="-0.50018">
        <ele>137.980028</ele>
        <time>2011-02-15T14:22:08Z</time>
      </trkpt>
      <trkpt lat="43.33976" lon="-0.50036">
        <ele>137.299375</ele>
        <time>2011-02-15T14:22:11Z</time>
      </trkpt>
      <trkpt lat="43.33978" lon="-0.50049">
        <ele>136.597191</ele>
        <time>2011-02-15T14:22:13Z</time>
      </trkpt>
      <trkpt lat="43.33982" lon="-0.50069">
        <ele>135.868921</ele>
        <time>2011-02-15T14:22:16Z</time>
      </trkpt>
      <trkpt lat="43.33987" lon="-0.50089">
        <ele>135.244977</ele>
        <time>2011-02-15T14:22:19Z</time>
      </trkpt>
      <trkpt lat="43.33994" lon="-0.50107">
        <ele>134.727284</ele>
        <time>2011-02-15T14:22:22Z</time>
      </trkpt>
      <trkpt lat="43.34001" lon="-0.50125">
        <ele>134.377572</ele>
        <time>2011-02-15T14:22:25Z</time>
      </trkpt>
      <trkpt lat="43.34011" lon="-0.5014">
        <ele>134.262079</ele>
        <time>2011-02-15T14:22:28Z</time>
      </trkpt>
      <trkpt lat="43.34022" lon="-0.50153">
        <ele>134.136672</ele>
        <time>2011-02-15T14:22:31Z</time>
      </trkpt>
      <trkpt lat="43.34032" lon="-0.50165">
        <ele>133.819272</ele>
        <time>2011-02-15T14:22:34Z</time>
      </trkpt>
      <trkpt lat="43.34041" lon="-0.50177">
        <ele>133.478139</ele>
        <time>2011-02-15T14:22:37Z</time>
      </trkpt>
      <trkpt lat="43.34051" lon="-0.50189">
        <ele>133.312047</ele>
        <time>2011-02-15T14:22:40Z</time>
      </trkpt>
      <trkpt lat="43.3406" lon="-0.50202">
        <ele>133.146169</ele>
        <time>2011-02-15T14:22:43Z</time>
      </trkpt>
      <trkpt lat="43.34068" lon="-0.50215">
        <ele>132.674596</ele>
        <time>2011-02-15T14:22:46Z</time>
      </trkpt>
      <trkpt lat="43.34077" lon="-0.50228">
        <ele>131.834909</ele>
        <time>2011-02-15T14:22:49Z</time>
      </trkpt>
      <trkpt lat="43.34084" lon="-0.50237">
        <ele>130.94369</ele>
        <time>2011-02-15T14:22:51Z</time>
      </trkpt>
      <trkpt lat="43.34095" lon="-0.50249">
        <ele>130.37459</ele>
        <time>2011-02-15T14:22:54Z</time>
      </trkpt>
      <trkpt lat="43.34103" lon="-0.50257">
        <ele>130.200572</ele>
        <time>2011-02-15T14:22:56Z</time>
      </trkpt>
      <trkpt lat="43.34112" lon="-0.50264">
        <ele>130.231865</ele>
        <time>2011-02-15T14:22:58Z</time>
      </trkpt>
      <trkpt lat="43.34123" lon="-0.50277">
        <ele>130.304978</ele>
        <time>2011-02-15T14:23:01Z</time>
      </trkpt>
      <trkpt lat="43.34131" lon="-0.50286">
        <ele>130.351042</ele>
        <time>2011-02-15T14:23:03Z</time>
      </trkpt>
      <trkpt lat="43.34139" lon="-0.50297">
        <ele>130.364854</ele>
        <time>2011-02-15T14:23:05Z</time>
      </trkpt>
      <trkpt lat="43.34151" lon="-0.50313">
        <ele>130.36212</ele>
        <time>2011-02-15T14:23:08Z</time>
      </trkpt>
      <trkpt lat="43.34165" lon="-0.50326">
        <ele>130.494311</ele>
        <time>2011-02-15T14:23:11Z</time>
      </trkpt>
      <trkpt lat="43.34174" lon="-0.50332">
        <ele>130.850481</ele>
        <time>2011-02-15T14:23:13Z</time>
      </trkpt>
      <trkpt lat="43.34188" lon="-0.5034">
        <ele>131.357001</ele>
        <time>2011-02-15T14:23:16Z</time>
      </trkpt>
      <trkpt lat="43.34197" lon="-0.50346">
        <ele>132.030573</ele>
        <time>2011-02-15T14:23:18Z</time>
      </trkpt>
      <trkpt lat="43.34206" lon="-0.50353">
        <ele>132.925109</ele>
        <time>2011-02-15T14:23:20Z</time>
      </trkpt>
      <trkpt lat="43.34217" lon="-0.50363">
        <ele>133.80003</ele>
        <time>2011-02-15T14:23:23Z</time>
      </trkpt>
      <trkpt lat="43.3423" lon="-0.50372">
        <ele>134.34126</ele>
        <time>2011-02-15T14:23:26Z</time>
      </trkpt>
      <trkpt lat="43.34238" lon="-0.50379">
        <ele>134.498973</ele>
        <time>2011-02-15T14:23:28Z</time>
      </trkpt>
      <trkpt lat="43.34252" lon="-0.50391">
        <ele>134.463367</ele>
        <time>2011-02-15T14:23:31Z</time>
      </trkpt>
      <trkpt lat="43.34261" lon="-0.50399">
        <ele>134.391667</ele>
        <time>2011-02-15T14:23:33Z</time>
      </trkpt>
      <trkpt lat="43.34269" lon="-0.5041">
        <ele>134.347906</ele>
        <time>2011-02-15T14:23:35Z</time>
      </trkpt>
      <trkpt lat="43.34277" lon="-0.50421">
        <ele>134.335439</ele>
        <time>2011-02-15T14:23:37Z</time>
      </trkpt>
      <trkpt lat="43.34287" lon="-0.50438">
        <ele>134.338541</ele>
        <time>2011-02-15T14:23:40Z</time>
      </trkpt>
      <trkpt lat="43.34298" lon="-0.50453">
        <ele>134.344429</ele>
        <time>2011-02-15T14:23:43Z</time>
      </trkpt>
      <trkpt lat="43.34309" lon="-0.50465">
        <ele>134.347973</ele>
        <time>2011-02-15T14:23:46Z</time>
      </trkpt>
      <trkpt lat="43.34321" lon="-0.50479">
        <ele>134.34896</ele>
        <time>2011-02-15T14:23:49Z</time>
      </trkpt>
      <trkpt lat="43.34335" lon="-0.5049">
        <ele>134.348694</ele>
        <time>2011-02-15T14:23:52Z</time>
      </trkpt>
      <trkpt lat="43.34349" lon="-0.50497">
        <ele>134.348213</ele>
        <time>2011-02-15T14:23:55Z</time>
      </trkpt>
      <trkpt lat="43.34363" lon="-0.50501">
        <ele>134.486121</ele>
        <time>2011-02-15T14:23:58Z</time>
      </trkpt>
      <trkpt lat="43.34378" lon="-0.50507">
        <ele>134.84598</ele>
        <time>2011-02-15T14:24:01Z</time>
      </trkpt>
      <trkpt lat="43.34388" lon="-0.50511">
        <ele>135.215497</ele>
        <time>2011-02-15T14:24:03Z</time>
      </trkpt>
      <trkpt lat="43.34401" lon="-0.5052">
        <ele>135.528994</ele>
        <time>2011-02-15T14:24:06Z</time>
      </trkpt>
      <trkpt lat="43.34413" lon="-0.50531">
        <ele>135.777247</ele>
        <time>2011-02-15T14:24:09Z</time>
      </trkpt>
      <trkpt lat="43.34419" lon="-0.50542">
        <ele>135.756825</ele>
        <time>2011-02-15T14:24:11Z</time>
      </trkpt>
      <trkpt lat="43.34425" lon="-0.50552">
        <ele>135.532586</ele>
        <time>2011-02-15T14:24:13Z</time>
      </trkpt>
      <trkpt lat="43.34436" lon="-0.50565">
        <ele>135.369785</ele>
        <time>2011-02-15T14:24:16Z</time>
      </trkpt>
      <trkpt lat="43.34448" lon="-0.50577">
        <ele>135.449433</ele>
        <time>2011-02-15T14:24:19Z</time>
      </trkpt>
      <trkpt lat="43.34456" lon="-0.50584">
        <ele>135.811695</ele>
        <time>2011-02-15T14:24:21Z</time>
      </trkpt>
      <trkpt lat="43.34468" lon="-0.50595">
        <ele>136.199588</ele>
        <time>2011-02-15T14:24:24Z</time>
      </trkpt>
      <trkpt lat="43.3448" lon="-0.50606">
        <ele>136.388062</ele>
        <time>2011-02-15T14:24:27Z</time>
      </trkpt>
      <trkpt lat="43.34487" lon="-0.50614">
        <ele>136.419283</ele>
        <time>2011-02-15T14:24:29Z</time>
      </trkpt>
      <trkpt lat="43.34498" lon="-0.50628">
        <ele>136.389066</ele>
        <time>2011-02-15T14:24:32Z</time>
      </trkpt>
      <trkpt lat="43.3451" lon="-0.50643">
        <ele>136.495621</ele>
        <time>2011-02-15T14:24:35Z</time>
      </trkpt>
      <trkpt lat="43.3452" lon="-0.50659">
        <ele>136.70216</ele>
        <time>2011-02-15T14:24:38Z</time>
      </trkpt>
      <trkpt lat="43.3453" lon="-0.50674">
        <ele>136.709307</ele>
        <time>2011-02-15T14:24:41Z</time>
      </trkpt>
      <trkpt lat="43.34536" lon="-0.50684">
        <ele>136.517661</ele>
        <time>2011-02-15T14:24:43Z</time>
      </trkpt>
      <trkpt lat="43.34543" lon="-0.50693">
        <ele>136.371513</ele>
        <time>2011-02-15T14:24:45Z</time>
      </trkpt>
      <trkpt lat="43.34554" lon="-0.50705">
        <ele>136.316217</ele>
        <time>2011-02-15T14:24:48Z</time>
      </trkpt>
      <trkpt lat="43.34564" lon="-0.50717">
        <ele>136.178095</ele>
        <time>2011-02-15T14:24:51Z</time>
      </trkpt>
      <trkpt lat="43.34574" lon="-0.50726">
        <ele>135.834001</ele>
        <time>2011-02-15T14:24:54Z</time>
      </trkpt>
      <trkpt lat="43.34586" lon="-0.50736">
        <ele>135.476431</ele>
        <time>2011-02-15T14:24:57Z</time>
      </trkpt>
      <trkpt lat="43.34594" lon="-0.50743">
        <ele>135.305593</ele>
        <time>2011-02-15T14:24:59Z</time>
      </trkpt>
      <trkpt lat="43.34601" lon="-0.5075">
        <ele>135.27901</ele>
        <time>2011-02-15T14:25:01Z</time>
      </trkpt>
      <trkpt lat="43.34614" lon="-0.50762">
        <ele>135.445879</ele>
        <time>2011-02-15T14:25:04Z</time>
      </trkpt>
      <trkpt lat="43.34622" lon="-0.5077">
        <ele>135.973104</ele>
        <time>2011-02-15T14:25:06Z</time>
      </trkpt>
      <trkpt lat="43.34631" lon="-0.50778">
        <ele>136.716186</ele>
        <time>2011-02-15T14:25:08Z</time>
      </trkpt>
      <trkpt lat="43.34644" lon="-0.5079">
        <ele>137.262924</ele>
        <time>2011-02-15T14:25:11Z</time>
      </trkpt>
      <trkpt lat="43.34658" lon="-0.508">
        <ele>137.462334</ele>
        <time>2011-02-15T14:25:14Z</time>
      </trkpt>
      <trkpt lat="43.34666" lon="-0.50806">
        <ele>137.456505</ele>
        <time>2011-02-15T14:25:16Z</time>
      </trkpt>
      <trkpt lat="43.3468" lon="-0.50813">
        <ele>137.257145</ele>
        <time>2011-02-15T14:25:19Z</time>
      </trkpt>
      <trkpt lat="43.34695" lon="-0.50819">
        <ele>136.852941</ele>
        <time>2011-02-15T14:25:22Z</time>
      </trkpt>
      <trkpt lat="43.34705" lon="-0.50824">
        <ele>136.467634</ele>
        <time>2011-02-15T14:25:24Z</time>
      </trkpt>
      <trkpt lat="43.3472" lon="-0.50829">
        <ele>136.293064</ele>
        <time>2011-02-15T14:25:27Z</time>
      </trkpt>
      <trkpt lat="43.34736" lon="-0.50827">
        <ele>136.409758</ele>
        <time>2011-02-15T14:25:30Z</time>
      </trkpt>
      <trkpt lat="43.34746" lon="-0.50825">
        <ele>136.803256</ele>
        <time>2011-02-15T14:25:32Z</time>
      </trkpt>
      <trkpt lat="43.34761" lon="-0.50829">
        <ele>137.204126</ele>
        <time>2011-02-15T14:25:35Z</time>
      </trkpt>
      <trkpt lat="43.3477" lon="-0.50836">
        <ele>137.393501</ele>
        <time>2011-02-15T14:25:37Z</time>
      </trkpt>
      <trkpt lat="43.34784" lon="-0.50845">
        <ele>137.421718</ele>
        <time>2011-02-15T14:25:40Z</time>
      </trkpt>
      <trkpt lat="43.34798" lon="-0.50856">
        <ele>137.388979</ele>
        <time>2011-02-15T14:25:43Z</time>
      </trkpt>
      <trkpt lat="43.34813" lon="-0.50867">
        <ele>137.356307</ele>
        <time>2011-02-15T14:25:46Z</time>
      </trkpt>
      <trkpt lat="43.34826" lon="-0.50883">
        <ele>137.202903</ele>
        <time>2011-02-15T14:25:49Z</time>
      </trkpt>
      <trkpt lat="43.34835" lon="-0.50897">
        <ele>136.840908</ele>
        <time>2011-02-15T14:25:52Z</time>
      </trkpt>
      <trkpt lat="43.34844" lon="-0.50905">
        <ele>136.474245</ele>
        <time>2011-02-15T14:25:55Z</time>
      </trkpt>
      <trkpt lat="43.34853" lon="-0.50912">
        <ele>136.301658</ele>
        <time>2011-02-15T14:25:58Z</time>
      </trkpt>
      <trkpt lat="43.34862" lon="-0.50921">
        <ele>136.138173</ele>
        <time>2011-02-15T14:26:01Z</time>
      </trkpt>
      <trkpt lat="43.34872" lon="-0.50929">
        <ele>135.808442</ele>
        <time>2011-02-15T14:26:04Z</time>
      </trkpt>
      <trkpt lat="43.34881" lon="-0.5094">
        <ele>135.468906</ele>
        <time>2011-02-15T14:26:07Z</time>
      </trkpt>
      <trkpt lat="43.3489" lon="-0.50953">
        <ele>135.307528</ele>
        <time>2011-02-15T14:26:10Z</time>
      </trkpt>
      <trkpt lat="43.34896" lon="-0.50963">
        <ele>135.282917</ele>
        <time>2011-02-15T14:26:12Z</time>
      </trkpt>
      <trkpt lat="43.34905" lon="-0.50977">
        <ele>135.310391</ele>
        <time>2011-02-15T14:26:15Z</time>
      </trkpt>
      <trkpt lat="43.34912" lon="-0.5099">
        <ele>135.338068</ele>
        <time>2011-02-15T14:26:18Z</time>
      </trkpt>
      <trkpt lat="43.3492" lon="-0.51002">
        <ele>135.212881</ele>
        <time>2011-02-15T14:26:21Z</time>
      </trkpt>
      <trkpt lat="43.3493" lon="-0.51011">
        <ele>134.854879</ele>
        <time>2011-02-15T14:26:24Z</time>
      </trkpt>
      <trkpt lat="43.34938" lon="-0.51021">
        <ele>134.483167</ele>
        <time>2011-02-15T14:26:27Z</time>
      </trkpt>
      <trkpt lat="43.34944" lon="-0.51034">
        <ele>134.305652</ele>
        <time>2011-02-15T14:26:30Z</time>
      </trkpt>
      <trkpt lat="43.3495" lon="-0.51046">
        <ele>134.278071</ele>
        <time>2011-02-15T14:26:33Z</time>
      </trkpt>
      <trkpt lat="43.34958" lon="-0.51056">
        <ele>134.307903</ele>
        <time>2011-02-15T14:26:37Z</time>
      </trkpt>
      <trkpt lat="43.34967" lon="-0.51064">
        <ele>134.338189</ele>
        <time>2011-02-15T14:26:41Z</time>
      </trkpt>
      <trkpt lat="43.34978" lon="-0.51067">
        <ele>134.352462</ele>
        <time>2011-02-15T14:26:45Z</time>
      </trkpt>
      <trkpt lat="43.34988" lon="-0.51069">
        <ele>134.354566</ele>
        <time>2011-02-15T14:26:48Z</time>
      </trkpt>
      <trkpt lat="43.34998" lon="-0.51069">
        <ele>134.352082</ele>
        <time>2011-02-15T14:26:51Z</time>
      </trkpt>
      <trkpt lat="43.35011" lon="-0.51068">
        <ele>134.349618</ele>
        <time>2011-02-15T14:26:54Z</time>
      </trkpt>
      <trkpt lat="43.35023" lon="-0.51069">
        <ele>134.348482</ele>
        <time>2011-02-15T14:26:57Z</time>
      </trkpt>
      <trkpt lat="43.35037" lon="-0.51068">
        <ele>134.348333</ele>
        <time>2011-02-15T14:27:00Z</time>
      </trkpt>
      <trkpt lat="43.35049" lon="-0.51067">
        <ele>134.348545</ele>
        <time>2011-02-15T14:27:03Z</time>
      </trkpt>
      <trkpt lat="43.3506" lon="-0.51071">
        <ele>134.210595</ele>
        <time>2011-02-15T14:27:06Z</time>
      </trkpt>
      <trkpt lat="43.35071" lon="-0.51074">
        <ele>133.712692</ele>
        <time>2011-02-15T14:27:09Z</time>
      </trkpt>
      <trkpt lat="43.3508" lon="-0.51076">
        <ele>132.845304</ele>
        <time>2011-02-15T14:27:12Z</time>
      </trkpt>
      <trkpt lat="43.3509" lon="-0.5108">
        <ele>131.940783</ele>
        <time>2011-02-15T14:27:15Z</time>
      </trkpt>
      <trkpt lat="43.35102" lon="-0.51081">
        <ele>131.231418</ele>
        <time>2011-02-15T14:27:18Z</time>
      </trkpt>
      <trkpt lat="43.35114" lon="-0.51083">
        <ele>130.699756</ele>
        <time>2011-02-15T14:27:21Z</time>
      </trkpt>
      <trkpt lat="43.35127" lon="-0.51085">
        <ele>130.363907</ele>
        <time>2011-02-15T14:27:24Z</time>
      </trkpt>
      <trkpt lat="43.35139" lon="-0.51085">
        <ele>130.124667</ele>
        <time>2011-02-15T14:27:27Z</time>
      </trkpt>
      <trkpt lat="43.35151" lon="-0.51086">
        <ele>129.646338</ele>
        <time>2011-02-15T14:27:30Z</time>
      </trkpt>
      <trkpt lat="43.35163" lon="-0.5109">
        <ele>128.960696</ele>
        <time>2011-02-15T14:27:33Z</time>
      </trkpt>
      <trkpt lat="43.35174" lon="-0.51097">
        <ele>128.443226</ele>
        <time>2011-02-15T14:27:36Z</time>
      </trkpt>
      <trkpt lat="43.35185" lon="-0.51103">
        <ele>128.111287</ele>
        <time>2011-02-15T14:27:39Z</time>
      </trkpt>
      <trkpt lat="43.35192" lon="-0.51111">
        <ele>127.753169</ele>
        <time>2011-02-15T14:27:42Z</time>
      </trkpt>
      <trkpt lat="43.35201" lon="-0.51105">
        <ele>127.302125</ele>
        <time>2011-02-15T14:27:48Z</time>
      </trkpt>
      <trkpt lat="43.35208" lon="-0.51095">
        <ele>126.809018</ele>
        <time>2011-02-15T14:27:52Z</time>
      </trkpt>
      <trkpt lat="43.35214" lon="-0.51086">
        <ele>126.290408</ele>
        <time>2011-02-15T14:27:56Z</time>
      </trkpt>
      <trkpt lat="43.35214" lon="-0.51086">
        <ele>125.784991</ele>
        <time>2011-02-15T14:27:59Z</time>
      </trkpt>
      <trkpt lat="43.35214" lon="-0.51086">
        <ele>125.41455</ele>
        <time>2011-02-15T14:28:25Z</time>
      </trkpt>
      <trkpt lat="43.35201" lon="-0.51103">
        <ele>125.279979</ele>
        <time>2011-02-15T14:28:43Z</time>
      </trkpt>
      <trkpt lat="43.35193" lon="-0.51116">
        <ele>125.284303</ele>
        <time>2011-02-15T14:28:47Z</time>
      </trkpt>
      <trkpt lat="43.35187" lon="-0.51125">
        <ele>125.187711</ele>
        <time>2011-02-15T14:28:50Z</time>
      </trkpt>
      <trkpt lat="43.3518" lon="-0.51137">
        <ele>124.719688</ele>
        <time>2011-02-15T14:28:53Z</time>
      </trkpt>
      <trkpt lat="43.35179" lon="-0.5115">
        <ele>124.001091</ele>
        <time>2011-02-15T14:28:59Z</time>
      </trkpt>
      <trkpt lat="43.35187" lon="-0.5116">
        <ele>123.455868</ele>
        <time>2011-02-15T14:29:04Z</time>
      </trkpt>
      <trkpt lat="43.35197" lon="-0.51168">
        <ele>123.250598</ele>
        <time>2011-02-15T14:29:08Z</time>
      </trkpt>
      <trkpt lat="43.35207" lon="-0.51177">
        <ele>123.251581</ele>
        <time>2011-02-15T14:29:12Z</time>
      </trkpt>
      <trkpt lat="43.35216" lon="-0.51187">
        <ele>123.310805</ele>
        <time>2011-02-15T14:29:16Z</time>
      </trkpt>
      <trkpt lat="43.35224" lon="-0.51197">
        <ele>123.493223</ele>
        <time>2011-02-15T14:29:19Z</time>
      </trkpt>
      <trkpt lat="43.35231" lon="-0.51211">
        <ele>124.007661</ele>
        <time>2011-02-15T14:29:22Z</time>
      </trkpt>
      <trkpt lat="43.3524" lon="-0.51224">
        <ele>124.874856</ele>
        <time>2011-02-15T14:29:25Z</time>
      </trkpt>
      <trkpt lat="43.3525" lon="-0.51229">
        <ele>125.774548</ele>
        <time>2011-02-15T14:29:28Z</time>
      </trkpt>
      <trkpt lat="43.35259" lon="-0.51227">
        <ele>126.342184</ele>
        <time>2011-02-15T14:29:31Z</time>
      </trkpt>
      <trkpt lat="43.35269" lon="-0.51223">
        <ele>126.650865</ele>
        <time>2011-02-15T14:29:34Z</time>
      </trkpt>
      <trkpt lat="43.35279" lon="-0.51224">
        <ele>126.977235</ele>
        <time>2011-02-15T14:29:37Z</time>
      </trkpt>
      <trkpt lat="43.35289" lon="-0.51229">
        <ele>127.41107</ele>
        <time>2011-02-15T14:29:40Z</time>
      </trkpt>
      <trkpt lat="43.35296" lon="-0.51237">
        <ele>127.900328</ele>
        <time>2011-02-15T14:29:43Z</time>
      </trkpt>
      <trkpt lat="43.353" lon="-0.51248">
        <ele>128.282842</ele>
        <time>2011-02-15T14:29:46Z</time>
      </trkpt>
      <trkpt lat="43.35304" lon="-0.51263">
        <ele>128.431095</ele>
        <time>2011-02-15T14:29:50Z</time>
      </trkpt>
      <trkpt lat="43.35308" lon="-0.51275">
        <ele>128.43359</ele>
        <time>2011-02-15T14:29:54Z</time>
      </trkpt>
      <trkpt lat="43.35308" lon="-0.51275">
        <ele>128.393223</ele>
        <time>2011-02-15T14:29:55Z</time>
      </trkpt>
      <trkpt lat="43.35315" lon="-0.51316">
        <ele>128.352374</ele>
        <time>2011-02-15T14:30:28Z</time>
      </trkpt>
      <trkpt lat="43.35316" lon="-0.51329">
        <ele>128.186636</ele>
        <time>2011-02-15T14:30:32Z</time>
      </trkpt>
      <trkpt lat="43.35315" lon="-0.51342">
        <ele>127.825985</ele>
        <time>2011-02-15T14:30:39Z</time>
      </trkpt>
      <trkpt lat="43.3531" lon="-0.51354">
        <ele>127.335386</ele>
        <time>2011-02-15T14:30:54Z</time>
      </trkpt>
      <trkpt lat="43.3531" lon="-0.51354">
        <ele>126.813174</ele>
        <time>2011-02-15T14:31:04Z</time>
      </trkpt>
      <trkpt lat="43.35301" lon="-0.51397">
        <ele>126.007499</ele>
        <time>2011-02-15T14:31:29Z</time>
      </trkpt>
      <trkpt lat="43.35292" lon="-0.51402">
        <ele>124.644302</ele>
        <time>2011-02-15T14:31:41Z</time>
      </trkpt>
      <trkpt lat="43.35281" lon="-0.51403">
        <ele>123.178306</ele>
        <time>2011-02-15T14:31:45Z</time>
      </trkpt>
      <trkpt lat="43.3527" lon="-0.51406">
        <ele>122.326189</ele>
        <time>2011-02-15T14:31:49Z</time>
      </trkpt>
      <trkpt lat="43.35261" lon="-0.51415">
        <ele>121.826711</ele>
        <time>2011-02-15T14:31:53Z</time>
      </trkpt>
      <trkpt lat="43.35258" lon="-0.5143">
        <ele>121.043665</ele>
        <time>2011-02-15T14:31:57Z</time>
      </trkpt>
      <trkpt lat="43.3526" lon="-0.51445">
        <ele>120.064724</ele>
        <time>2011-02-15T14:32:01Z</time>
      </trkpt>
      <trkpt lat="43.35261" lon="-0.51461">
        <ele>119.413456</ele>
        <time>2011-02-15T14:32:05Z</time>
      </trkpt>
      <trkpt lat="43.35268" lon="-0.51473">
        <ele>119.202613</ele>
        <time>2011-02-15T14:32:08Z</time>
      </trkpt>
      <trkpt lat="43.35278" lon="-0.51482">
        <ele>119.229628</ele>
        <time>2011-02-15T14:32:11Z</time>
      </trkpt>
      <trkpt lat="43.35289" lon="-0.51493">
        <ele>119.448187</ele>
        <time>2011-02-15T14:32:14Z</time>
      </trkpt>
      <trkpt lat="43.35295" lon="-0.51507">
        <ele>119.860812</ele>
        <time>2011-02-15T14:32:17Z</time>
      </trkpt>
      <trkpt lat="43.35297" lon="-0.51521">
        <ele>120.246991</ele>
        <time>2011-02-15T14:32:20Z</time>
      </trkpt>
      <trkpt lat="43.35298" lon="-0.51537">
        <ele>120.419821</ele>
        <time>2011-02-15T14:32:23Z</time>
      </trkpt>
      <trkpt lat="43.35299" lon="-0.5155">
        <ele>120.439757</ele>
        <time>2011-02-15T14:32:25Z</time>
      </trkpt>
      <trkpt lat="43.35303" lon="-0.5157">
        <ele>120.543671</ele>
        <time>2011-02-15T14:32:28Z</time>
      </trkpt>
      <trkpt lat="43.35311" lon="-0.51585">
        <ele>120.872098</ele>
        <time>2011-02-15T14:32:31Z</time>
      </trkpt>
      <trkpt lat="43.35313" lon="-0.51597">
        <ele>121.365788</ele>
        <time>2011-02-15T14:32:34Z</time>
      </trkpt>
      <trkpt lat="43.35321" lon="-0.51606">
        <ele>121.899413</ele>
        <time>2011-02-15T14:32:38Z</time>
      </trkpt>
      <trkpt lat="43.3533" lon="-0.51612">
        <ele>122.436356</ele>
        <time>2011-02-15T14:32:41Z</time>
      </trkpt>
      <trkpt lat="43.3534" lon="-0.51618">
        <ele>122.944056</ele>
        <time>2011-02-15T14:32:44Z</time>
      </trkpt>
      <trkpt lat="43.35349" lon="-0.51624">
        <ele>123.449191</ele>
        <time>2011-02-15T14:32:47Z</time>
      </trkpt>
      <trkpt lat="43.35359" lon="-0.51633">
        <ele>123.940365</ele>
        <time>2011-02-15T14:32:50Z</time>
      </trkpt>
      <trkpt lat="43.35369" lon="-0.51641">
        <ele>124.442144</ele>
        <time>2011-02-15T14:32:53Z</time>
      </trkpt>
      <trkpt lat="43.35379" lon="-0.51649">
        <ele>124.935515</ele>
        <time>2011-02-15T14:32:56Z</time>
      </trkpt>
      <trkpt lat="43.35389" lon="-0.51657">
        <ele>125.301734</ele>
        <time>2011-02-15T14:32:59Z</time>
      </trkpt>
      <trkpt lat="43.354" lon="-0.51665">
        <ele>125.43656</ele>
        <time>2011-02-15T14:33:02Z</time>
      </trkpt>
      <trkpt lat="43.3541" lon="-0.51675">
        <ele>125.571787</ele>
        <time>2011-02-15T14:33:05Z</time>
      </trkpt>
      <trkpt lat="43.35421" lon="-0.51682">
        <ele>125.891046</ele>
        <time>2011-02-15T14:33:08Z</time>
      </trkpt>
      <trkpt lat="43.35433" lon="-0.51683">
        <ele>126.230771</ele>
        <time>2011-02-15T14:33:11Z</time>
      </trkpt>
      <trkpt lat="43.35446" lon="-0.51682">
        <ele>126.395284</ele>
        <time>2011-02-15T14:33:14Z</time>
      </trkpt>
      <trkpt lat="43.35459" lon="-0.5168">
        <ele>126.422205</ele>
        <time>2011-02-15T14:33:17Z</time>
      </trkpt>
      <trkpt lat="43.35472" lon="-0.5168">
        <ele>126.395578</ele>
        <time>2011-02-15T14:33:20Z</time>
      </trkpt>
      <trkpt lat="43.35481" lon="-0.5168">
        <ele>126.367885</ele>
        <time>2011-02-15T14:33:22Z</time>
      </trkpt>
      <trkpt lat="43.35495" lon="-0.51679">
        <ele>126.35465</ele>
        <time>2011-02-15T14:33:25Z</time>
      </trkpt>
      <trkpt lat="43.35505" lon="-0.51679">
        <ele>126.3526</ele>
        <time>2011-02-15T14:33:27Z</time>
      </trkpt>
      <trkpt lat="43.35521" lon="-0.51677">
        <ele>126.354852</ele>
        <time>2011-02-15T14:33:30Z</time>
      </trkpt>
      <trkpt lat="43.35535" lon="-0.51677">
        <ele>126.357182</ele>
        <time>2011-02-15T14:33:33Z</time>
      </trkpt>
      <trkpt lat="43.35548" lon="-0.51679">
        <ele>126.358364</ele>
        <time>2011-02-15T14:33:36Z</time>
      </trkpt>
      <trkpt lat="43.35561" lon="-0.51685">
        <ele>126.496819</ele>
        <time>2011-02-15T14:33:39Z</time>
      </trkpt>
      <trkpt lat="43.35569" lon="-0.51689">
        <ele>126.994794</ele>
        <time>2011-02-15T14:33:41Z</time>
      </trkpt>
      <trkpt lat="43.35578" lon="-0.51694">
        <ele>127.862181</ele>
        <time>2011-02-15T14:33:43Z</time>
      </trkpt>
      <trkpt lat="43.35591" lon="-0.51702">
        <ele>128.766733</ele>
        <time>2011-02-15T14:33:46Z</time>
      </trkpt>
      <trkpt lat="43.35605" lon="-0.51715">
        <ele>129.337988</ele>
        <time>2011-02-15T14:33:49Z</time>
      </trkpt>
      <trkpt lat="43.35616" lon="-0.51724">
        <ele>129.509847</ele>
        <time>2011-02-15T14:33:51Z</time>
      </trkpt>
      <trkpt lat="43.35632" lon="-0.51736">
        <ele>129.476338</ele>
        <time>2011-02-15T14:33:54Z</time>
      </trkpt>
      <trkpt lat="43.35646" lon="-0.51748">
        <ele>129.402185</ele>
        <time>2011-02-15T14:33:57Z</time>
      </trkpt>
      <trkpt lat="43.35659" lon="-0.51759">
        <ele>129.355976</ele>
        <time>2011-02-15T14:34:00Z</time>
      </trkpt>
      <trkpt lat="43.35668" lon="-0.51765">
        <ele>129.342359</ele>
        <time>2011-02-15T14:34:02Z</time>
      </trkpt>
      <trkpt lat="43.35676" lon="-0.51772">
        <ele>129.345291</ele>
        <time>2011-02-15T14:34:04Z</time>
      </trkpt>
      <trkpt lat="43.35689" lon="-0.51783">
        <ele>129.351385</ele>
        <time>2011-02-15T14:34:07Z</time>
      </trkpt>
      <trkpt lat="43.35698" lon="-0.51798">
        <ele>129.355145</ele>
        <time>2011-02-15T14:34:10Z</time>
      </trkpt>
      <trkpt lat="43.35691" lon="-0.51811">
        <ele>129.356247</ele>
        <time>2011-02-15T14:34:13Z</time>
      </trkpt>
      <trkpt lat="43.3568" lon="-0.51817">
        <ele>129.356007</ele>
        <time>2011-02-15T14:34:16Z</time>
      </trkpt>
      <trkpt lat="43.35668" lon="-0.51822">
        <ele>129.355513</ele>
        <time>2011-02-15T14:34:19Z</time>
      </trkpt>
      <trkpt lat="43.35656" lon="-0.51826">
        <ele>129.355201</ele>
        <time>2011-02-15T14:34:22Z</time>
      </trkpt>
      <trkpt lat="43.35648" lon="-0.5183">
        <ele>129.355084</ele>
        <time>2011-02-15T14:34:24Z</time>
      </trkpt>
      <trkpt lat="43.35634" lon="-0.51834">
        <ele>129.216873</ele>
        <time>2011-02-15T14:34:27Z</time>
      </trkpt>
      <trkpt lat="43.35622" lon="-0.51838">
        <ele>128.856955</ele>
        <time>2011-02-15T14:34:30Z</time>
      </trkpt>
      <trkpt lat="43.35611" lon="-0.51849">
        <ele>128.349298</ele>
        <time>2011-02-15T14:34:33Z</time>
      </trkpt>
      <trkpt lat="43.35605" lon="-0.51859">
        <ele>127.53773</ele>
        <time>2011-02-15T14:34:35Z</time>
      </trkpt>
      <trkpt lat="43.35597" lon="-0.51873">
        <ele>126.421896</ele>
        <time>2011-02-15T14:34:38Z</time>
      </trkpt>
      <trkpt lat="43.35588" lon="-0.51885">
        <ele>125.537642</ele>
        <time>2011-02-15T14:34:41Z</time>
      </trkpt>
      <trkpt lat="43.3558" lon="-0.51892">
        <ele>125.190611</ele>
        <time>2011-02-15T14:34:43Z</time>
      </trkpt>
      <trkpt lat="43.35576" lon="-0.5191">
        <ele>125.181599</ele>
        <time>2011-02-15T14:34:46Z</time>
      </trkpt>
      <trkpt lat="43.35579" lon="-0.51928">
        <ele>125.273699</ele>
        <time>2011-02-15T14:34:49Z</time>
      </trkpt>
      <trkpt lat="43.35585" lon="-0.51946">
        <ele>125.483648</ele>
        <time>2011-02-15T14:34:52Z</time>
      </trkpt>
      <trkpt lat="43.35593" lon="-0.51965">
        <ele>125.871169</ele>
        <time>2011-02-15T14:34:55Z</time>
      </trkpt>
      <trkpt lat="43.35602" lon="-0.51982">
        <ele>126.240878</ele>
        <time>2011-02-15T14:34:58Z</time>
      </trkpt>
      <trkpt lat="43.35609" lon="-0.51999">
        <ele>126.408469</ele>
        <time>2011-02-15T14:35:01Z</time>
      </trkpt>
      <trkpt lat="43.35614" lon="-0.52012">
        <ele>126.429142</ele>
        <time>2011-02-15T14:35:03Z</time>
      </trkpt>
      <trkpt lat="43.3562" lon="-0.5203">
        <ele>126.396924</ele>
        <time>2011-02-15T14:35:06Z</time>
      </trkpt>
      <trkpt lat="43.35625" lon="-0.52043">
        <ele>126.366798</ele>
        <time>2011-02-15T14:35:08Z</time>
      </trkpt>
      <trkpt lat="43.35632" lon="-0.52061">
        <ele>126.353318</ele>
        <time>2011-02-15T14:35:11Z</time>
      </trkpt>
      <trkpt lat="43.35639" lon="-0.52079">
        <ele>126.213577</ele>
        <time>2011-02-15T14:35:14Z</time>
      </trkpt>
      <trkpt lat="43.35644" lon="-0.52098">
        <ele>125.856335</ele>
        <time>2011-02-15T14:35:17Z</time>
      </trkpt>
      <trkpt lat="43.35646" lon="-0.52118">
        <ele>125.489324</ele>
        <time>2011-02-15T14:35:20Z</time>
      </trkpt>
      <trkpt lat="43.35645" lon="-0.52132">
        <ele>125.315117</ele>
        <time>2011-02-15T14:35:22Z</time>
      </trkpt>
      <trkpt lat="43.35643" lon="-0.52152">
        <ele>125.288672</ele>
        <time>2011-02-15T14:35:25Z</time>
      </trkpt>
      <trkpt lat="43.35641" lon="-0.52172">
        <ele>125.318398</ele>
        <time>2011-02-15T14:35:28Z</time>
      </trkpt>
      <trkpt lat="43.35648" lon="-0.52187">
        <ele>125.348256</ele>
        <time>2011-02-15T14:35:31Z</time>
      </trkpt>
      <trkpt lat="43.35659" lon="-0.52199">
        <ele>125.362207</ele>
        <time>2011-02-15T14:35:34Z</time>
      </trkpt>
      <trkpt lat="43.35669" lon="-0.5221">
        <ele>125.364152</ele>
        <time>2011-02-15T14:35:37Z</time>
      </trkpt>
      <trkpt lat="43.35679" lon="-0.52223">
        <ele>125.361609</ele>
        <time>2011-02-15T14:35:40Z</time>
      </trkpt>
      <trkpt lat="43.35688" lon="-0.52235">
        <ele>125.359131</ele>
        <time>2011-02-15T14:35:43Z</time>
      </trkpt>
      <trkpt lat="43.357" lon="-0.52248">
        <ele>125.357991</ele>
        <time>2011-02-15T14:35:46Z</time>
      </trkpt>
      <trkpt lat="43.35713" lon="-0.52263">
        <ele>125.357839</ele>
        <time>2011-02-15T14:35:49Z</time>
      </trkpt>
      <trkpt lat="43.35726" lon="-0.52278">
        <ele>125.358052</ele>
        <time>2011-02-15T14:35:52Z</time>
      </trkpt>
      <trkpt lat="43.35737" lon="-0.52293">
        <ele>125.358256</ele>
        <time>2011-02-15T14:35:55Z</time>
      </trkpt>
      <trkpt lat="43.35748" lon="-0.52308">
        <ele>125.358351</ele>
        <time>2011-02-15T14:35:58Z</time>
      </trkpt>
      <trkpt lat="43.35754" lon="-0.52319">
        <ele>125.358363</ele>
        <time>2011-02-15T14:36:00Z</time>
      </trkpt>
      <trkpt lat="43.35759" lon="-0.5233">
        <ele>125.358346</ele>
        <time>2011-02-15T14:36:02Z</time>
      </trkpt>
      <trkpt lat="43.35765" lon="-0.52348">
        <ele>125.220152</ele>
        <time>2011-02-15T14:36:05Z</time>
      </trkpt>
      <trkpt lat="43.35769" lon="-0.52366">
        <ele>124.860252</ele>
        <time>2011-02-15T14:36:08Z</time>
      </trkpt>
      <trkpt lat="43.35776" lon="-0.52383">
        <ele>124.490816</ele>
        <time>2011-02-15T14:36:11Z</time>
      </trkpt>
      <trkpt lat="43.35783" lon="-0.52392">
        <ele>124.315556</ele>
        <time>2011-02-15T14:36:13Z</time>
      </trkpt>
      <trkpt lat="43.35793" lon="-0.52405">
        <ele>124.289027</ele>
        <time>2011-02-15T14:36:16Z</time>
      </trkpt>
      <trkpt lat="43.35799" lon="-0.52421">
        <ele>124.45717</ele>
        <time>2011-02-15T14:36:19Z</time>
      </trkpt>
      <trkpt lat="43.35806" lon="-0.52435">
        <ele>124.847118</ele>
        <time>2011-02-15T14:36:22Z</time>
      </trkpt>
      <trkpt lat="43.35812" lon="-0.52448">
        <ele>125.2306</ele>
        <time>2011-02-15T14:36:25Z</time>
      </trkpt>
      <trkpt lat="43.35823" lon="-0.5245">
        <ele>125.407865</ele>
        <time>2011-02-15T14:36:28Z</time>
      </trkpt>
      <trkpt lat="43.35832" lon="-0.52456">
        <ele>125.4319</ele>
        <time>2011-02-15T14:36:31Z</time>
      </trkpt>
      <trkpt lat="43.35839" lon="-0.52465">
        <ele>125.399465</ele>
        <time>2011-02-15T14:36:34Z</time>
      </trkpt>
      <trkpt lat="43.35847" lon="-0.52474">
        <ele>125.368225</ele>
        <time>2011-02-15T14:36:37Z</time>
      </trkpt>
      <trkpt lat="43.35858" lon="-0.52483">
        <ele>125.353975</ele>
        <time>2011-02-15T14:36:40Z</time>
      </trkpt>
      <trkpt lat="43.35868" lon="-0.52494">
        <ele>125.352163</ele>
        <time>2011-02-15T14:36:43Z</time>
      </trkpt>
      <trkpt lat="43.35879" lon="-0.52505">
        <ele>125.354863</ele>
        <time>2011-02-15T14:36:46Z</time>
      </trkpt>
      <trkpt lat="43.35891" lon="-0.52516">
        <ele>125.357414</ele>
        <time>2011-02-15T14:36:49Z</time>
      </trkpt>
      <trkpt lat="43.35903" lon="-0.52526">
        <ele>125.358572</ele>
        <time>2011-02-15T14:36:52Z</time>
      </trkpt>
      <trkpt lat="43.35916" lon="-0.52534">
        <ele>125.358728</ele>
        <time>2011-02-15T14:36:55Z</time>
      </trkpt>
      <trkpt lat="43.35929" lon="-0.52542">
        <ele>125.358523</ele>
        <time>2011-02-15T14:36:58Z</time>
      </trkpt>
      <trkpt lat="43.35936" lon="-0.52555">
        <ele>125.358326</ele>
        <time>2011-02-15T14:37:01Z</time>
      </trkpt>
      <trkpt lat="43.35932" lon="-0.52571">
        <ele>125.358235</ele>
        <time>2011-02-15T14:37:04Z</time>
      </trkpt>
      <trkpt lat="43.35934" lon="-0.52587">
        <ele>125.220051</ele>
        <time>2011-02-15T14:37:07Z</time>
      </trkpt>
      <trkpt lat="43.35941" lon="-0.52602">
        <ele>124.860197</ele>
        <time>2011-02-15T14:37:10Z</time>
      </trkpt>
      <trkpt lat="43.35949" lon="-0.52617">
        <ele>124.49079</ele>
        <time>2011-02-15T14:37:13Z</time>
      </trkpt>
      <trkpt lat="43.35956" lon="-0.52625">
        <ele>124.315511</ele>
        <time>2011-02-15T14:37:15Z</time>
      </trkpt>
      <trkpt lat="43.35967" lon="-0.52637">
        <ele>124.150755</ele>
        <time>2011-02-15T14:37:18Z</time>
      </trkpt>
      <trkpt lat="43.35976" lon="-0.52649">
        <ele>123.820807</ele>
        <time>2011-02-15T14:37:21Z</time>
      </trkpt>
      <trkpt lat="43.35987" lon="-0.52659">
        <ele>123.481459</ele>
        <time>2011-02-15T14:37:24Z</time>
      </trkpt>
      <trkpt lat="43.35994" lon="-0.52667">
        <ele>123.320289</ele>
        <time>2011-02-15T14:37:26Z</time>
      </trkpt>
      <trkpt lat="43.36004" lon="-0.52679">
        <ele>123.295779</ele>
        <time>2011-02-15T14:37:29Z</time>
      </trkpt>
      <trkpt lat="43.36016" lon="-0.52683">
        <ele>123.185094</ele>
        <time>2011-02-15T14:37:33Z</time>
      </trkpt>
      <trkpt lat="43.36025" lon="-0.52683">
        <ele>122.852864</ele>
        <time>2011-02-15T14:37:37Z</time>
      </trkpt>
      <trkpt lat="43.36025" lon="-0.52683">
        <ele>122.4964</ele>
        <time>2011-02-15T14:37:38Z</time>
      </trkpt>
      <trkpt lat="43.36036" lon="-0.52702">
        <ele>122.323009</ele>
        <time>2011-02-15T14:37:43Z</time>
      </trkpt>
      <trkpt lat="43.36042" lon="-0.52716">
        <ele>122.156019</ele>
        <time>2011-02-15T14:37:46Z</time>
      </trkpt>
      <trkpt lat="43.3605" lon="-0.52726">
        <ele>121.823876</ele>
        <time>2011-02-15T14:37:49Z</time>
      </trkpt>
      <trkpt lat="43.36059" lon="-0.52723">
        <ele>121.483523</ele>
        <time>2011-02-15T14:37:52Z</time>
      </trkpt>
      <trkpt lat="43.36068" lon="-0.52717">
        <ele>121.322224</ele>
        <time>2011-02-15T14:37:55Z</time>
      </trkpt>
      <trkpt lat="43.36079" lon="-0.52714">
        <ele>121.297922</ele>
        <time>2011-02-15T14:37:58Z</time>
      </trkpt>
      <trkpt lat="43.36089" lon="-0.52724">
        <ele>121.325634</ele>
        <time>2011-02-15T14:38:01Z</time>
      </trkpt>
      <trkpt lat="43.36095" lon="-0.52738">
        <ele>121.353417</ele>
        <time>2011-02-15T14:38:04Z</time>
      </trkpt>
      <trkpt lat="43.36102" lon="-0.52749">
        <ele>121.366424</ele>
        <time>2011-02-15T14:38:07Z</time>
      </trkpt>
      <trkpt lat="43.36111" lon="-0.52761">
        <ele>121.368294</ele>
        <time>2011-02-15T14:38:10Z</time>
      </trkpt>
      <trkpt lat="43.36122" lon="-0.52771">
        <ele>121.365994</ele>
        <time>2011-02-15T14:38:13Z</time>
      </trkpt>
      <trkpt lat="43.36129" lon="-0.52778">
        <ele>121.363731</ele>
        <time>2011-02-15T14:38:15Z</time>
      </trkpt>
      <trkpt lat="43.36137" lon="-0.52785">
        <ele>121.362684</ele>
        <time>2011-02-15T14:38:17Z</time>
      </trkpt>
      <trkpt lat="43.36149" lon="-0.52794">
        <ele>121.22437</ele>
        <time>2011-02-15T14:38:20Z</time>
      </trkpt>
      <trkpt lat="43.3616" lon="-0.52802">
        <ele>120.864684</ele>
        <time>2011-02-15T14:38:23Z</time>
      </trkpt>
      <trkpt lat="43.36172" lon="-0.5281">
        <ele>120.495442</ele>
        <time>2011-02-15T14:38:26Z</time>
      </trkpt>
      <trkpt lat="43.36183" lon="-0.52819">
        <ele>120.320262</ele>
        <time>2011-02-15T14:38:29Z</time>
      </trkpt>
      <trkpt lat="43.36195" lon="-0.5283">
        <ele>120.293736</ele>
        <time>2011-02-15T14:38:32Z</time>
      </trkpt>
      <trkpt lat="43.36205" lon="-0.52843">
        <ele>120.185541</ele>
        <time>2011-02-15T14:38:35Z</time>
      </trkpt>
      <trkpt lat="43.36213" lon="-0.52857">
        <ele>119.855779</ele>
        <time>2011-02-15T14:38:38Z</time>
      </trkpt>
      <trkpt lat="43.36219" lon="-0.52872">
        <ele>119.500471</ele>
        <time>2011-02-15T14:38:41Z</time>
      </trkpt>
      <trkpt lat="43.36224" lon="-0.52888">
        <ele>119.327246</ele>
        <time>2011-02-15T14:38:44Z</time>
      </trkpt>
      <trkpt lat="43.36229" lon="-0.52906">
        <ele>119.298224</ele>
        <time>2011-02-15T14:38:47Z</time>
      </trkpt>
      <trkpt lat="43.36231" lon="-0.52918">
        <ele>119.463917</ele>
        <time>2011-02-15T14:38:49Z</time>
      </trkpt>
      <trkpt lat="43.36234" lon="-0.52936">
        <ele>119.852735</ele>
        <time>2011-02-15T14:38:52Z</time>
      </trkpt>
      <trkpt lat="43.36235" lon="-0.52955">
        <ele>120.236065</ele>
        <time>2011-02-15T14:38:55Z</time>
      </trkpt>
      <trkpt lat="43.36236" lon="-0.52972">
        <ele>120.413547</ele>
        <time>2011-02-15T14:38:58Z</time>
      </trkpt>
      <trkpt lat="43.36237" lon="-0.52988">
        <ele>120.575963</ele>
        <time>2011-02-15T14:39:01Z</time>
      </trkpt>
      <trkpt lat="43.36238" lon="-0.53004">
        <ele>121.041658</ele>
        <time>2011-02-15T14:39:04Z</time>
      </trkpt>
      <trkpt lat="43.36243" lon="-0.53018">
        <ele>121.739704</ele>
        <time>2011-02-15T14:39:07Z</time>
      </trkpt>
      <trkpt lat="43.36252" lon="-0.5303">
        <ele>122.270096</ele>
        <time>2011-02-15T14:39:10Z</time>
      </trkpt>
      <trkpt lat="43.36262" lon="-0.53038">
        <ele>122.470044</ele>
        <time>2011-02-15T14:39:13Z</time>
      </trkpt>
      <trkpt lat="43.36272" lon="-0.53045">
        <ele>122.469251</ele>
        <time>2011-02-15T14:39:16Z</time>
      </trkpt>
      <trkpt lat="43.36282" lon="-0.53041">
        <ele>122.27346</ele>
        <time>2011-02-15T14:39:20Z</time>
      </trkpt>
      <trkpt lat="43.36297" lon="-0.53047">
        <ele>121.732269</ele>
        <time>2011-02-15T14:39:31Z</time>
      </trkpt>
      <trkpt lat="43.36304" lon="-0.53055">
        <ele>120.84877</ele>
        <time>2011-02-15T14:39:34Z</time>
      </trkpt>
      <trkpt lat="43.36314" lon="-0.53065">
        <ele>119.944454</ele>
        <time>2011-02-15T14:39:37Z</time>
      </trkpt>
      <trkpt lat="43.36322" lon="-0.53076">
        <ele>118.963467</ele>
        <time>2011-02-15T14:39:40Z</time>
      </trkpt>
      <trkpt lat="43.36334" lon="-0.53084">
        <ele>117.715519</ele>
        <time>2011-02-15T14:39:43Z</time>
      </trkpt>
      <trkpt lat="43.36346" lon="-0.5309">
        <ele>116.642091</ele>
        <time>2011-02-15T14:39:46Z</time>
      </trkpt>
      <trkpt lat="43.36357" lon="-0.53098">
        <ele>116.190478</ele>
        <time>2011-02-15T14:39:49Z</time>
      </trkpt>
      <trkpt lat="43.36368" lon="-0.53108">
        <ele>116.156727</ele>
        <time>2011-02-15T14:39:52Z</time>
      </trkpt>
      <trkpt lat="43.36379" lon="-0.53119">
        <ele>116.26003</ele>
        <time>2011-02-15T14:39:55Z</time>
      </trkpt>
      <trkpt lat="43.36386" lon="-0.53127">
        <ele>116.34734</ele>
        <time>2011-02-15T14:39:57Z</time>
      </trkpt>
      <trkpt lat="43.36396" lon="-0.5314">
        <ele>116.383573</ele>
        <time>2011-02-15T14:40:00Z</time>
      </trkpt>
      <trkpt lat="43.36401" lon="-0.53151">
        <ele>116.38595</ele>
        <time>2011-02-15T14:40:02Z</time>
      </trkpt>
      <trkpt lat="43.36407" lon="-0.53169">
        <ele>116.377417</ele>
        <time>2011-02-15T14:40:05Z</time>
      </trkpt>
      <trkpt lat="43.3641" lon="-0.53181">
        <ele>116.370323</ele>
        <time>2011-02-15T14:40:07Z</time>
      </trkpt>
      <trkpt lat="43.36416" lon="-0.53199">
        <ele>116.367419</ele>
        <time>2011-02-15T14:40:10Z</time>
      </trkpt>
      <trkpt lat="43.36424" lon="-0.53214">
        <ele>116.367251</ele>
        <time>2011-02-15T14:40:13Z</time>
      </trkpt>
      <trkpt lat="43.36434" lon="-0.53229">
        <ele>116.367938</ele>
        <time>2011-02-15T14:40:16Z</time>
      </trkpt>
      <trkpt lat="43.36443" lon="-0.53244">
        <ele>116.368492</ele>
        <time>2011-02-15T14:40:19Z</time>
      </trkpt>
      <trkpt lat="43.36451" lon="-0.53261">
        <ele>116.368709</ele>
        <time>2011-02-15T14:40:22Z</time>
      </trkpt>
      <trkpt lat="43.36458" lon="-0.53279">
        <ele>116.368715</ele>
        <time>2011-02-15T14:40:25Z</time>
      </trkpt>
      <trkpt lat="43.36465" lon="-0.53297">
        <ele>116.506821</ele>
        <time>2011-02-15T14:40:28Z</time>
      </trkpt>
      <trkpt lat="43.36471" lon="-0.53316">
        <ele>116.866637</ele>
        <time>2011-02-15T14:40:31Z</time>
      </trkpt>
      <trkpt lat="43.36475" lon="-0.53329">
        <ele>117.374194</ele>
        <time>2011-02-15T14:40:33Z</time>
      </trkpt>
      <trkpt lat="43.36482" lon="-0.53347">
        <ele>117.909313</ele>
        <time>2011-02-15T14:40:36Z</time>
      </trkpt>
      <trkpt lat="43.36488" lon="-0.53359">
        <ele>118.443427</ele>
        <time>2011-02-15T14:40:38Z</time>
      </trkpt>
      <trkpt lat="43.36498" lon="-0.53377">
        <ele>118.948564</ele>
        <time>2011-02-15T14:40:41Z</time>
      </trkpt>
      <trkpt lat="43.36503" lon="-0.53391">
        <ele>119.314394</ele>
        <time>2011-02-15T14:40:43Z</time>
      </trkpt>
      <trkpt lat="43.36509" lon="-0.53404">
        <ele>119.445561</ele>
        <time>2011-02-15T14:40:45Z</time>
      </trkpt>
      <trkpt lat="43.36518" lon="-0.53422">
        <ele>119.439952</ele>
        <time>2011-02-15T14:40:48Z</time>
      </trkpt>
      <trkpt lat="43.36524" lon="-0.53435">
        <ele>119.398341</ele>
        <time>2011-02-15T14:40:50Z</time>
      </trkpt>
      <trkpt lat="43.36532" lon="-0.53455">
        <ele>119.368637</ele>
        <time>2011-02-15T14:40:53Z</time>
      </trkpt>
      <trkpt lat="43.36539" lon="-0.53476">
        <ele>119.358153</ele>
        <time>2011-02-15T14:40:56Z</time>
      </trkpt>
      <trkpt lat="43.36545" lon="-0.53495">
        <ele>119.358734</ele>
        <time>2011-02-15T14:40:59Z</time>
      </trkpt>
      <trkpt lat="43.36549" lon="-0.53508">
        <ele>119.50031</ele>
        <time>2011-02-15T14:41:01Z</time>
      </trkpt>
      <trkpt lat="43.36556" lon="-0.53522">
        <ele>119.862553</ele>
        <time>2011-02-15T14:41:04Z</time>
      </trkpt>
      <trkpt lat="43.36565" lon="-0.53535">
        <ele>120.232772</ele>
        <time>2011-02-15T14:41:07Z</time>
      </trkpt>
      <trkpt lat="43.36572" lon="-0.53549">
        <ele>120.407966</ele>
        <time>2011-02-15T14:41:10Z</time>
      </trkpt>
      <trkpt lat="43.36579" lon="-0.53565">
        <ele>120.572386</ele>
        <time>2011-02-15T14:41:13Z</time>
      </trkpt>
      <trkpt lat="43.36588" lon="-0.53581">
        <ele>120.902057</ele>
        <time>2011-02-15T14:41:16Z</time>
      </trkpt>
      <trkpt lat="43.36598" lon="-0.53599">
        <ele>121.241266</ele>
        <time>2011-02-15T14:41:19Z</time>
      </trkpt>
      <trkpt lat="43.36607" lon="-0.53618">
        <ele>121.402407</ele>
        <time>2011-02-15T14:41:22Z</time>
      </trkpt>
      <trkpt lat="43.36618" lon="-0.53636">
        <ele>121.426926</ele>
        <time>2011-02-15T14:41:25Z</time>
      </trkpt>
      <trkpt lat="43.36625" lon="-0.53648">
        <ele>121.399444</ele>
        <time>2011-02-15T14:41:27Z</time>
      </trkpt>
      <trkpt lat="43.36634" lon="-0.53665">
        <ele>121.371787</ele>
        <time>2011-02-15T14:41:30Z</time>
      </trkpt>
      <trkpt lat="43.3664" lon="-0.53677">
        <ele>121.358812</ele>
        <time>2011-02-15T14:41:32Z</time>
      </trkpt>
      <trkpt lat="43.36649" lon="-0.53694">
        <ele>121.356928</ele>
        <time>2011-02-15T14:41:35Z</time>
      </trkpt>
      <trkpt lat="43.36654" lon="-0.53713">
        <ele>121.359207</ele>
        <time>2011-02-15T14:41:38Z</time>
      </trkpt>
      <trkpt lat="43.3666" lon="-0.53733">
        <ele>121.361457</ele>
        <time>2011-02-15T14:41:41Z</time>
      </trkpt>
      <trkpt lat="43.36662" lon="-0.53746">
        <ele>121.362497</ele>
        <time>2011-02-15T14:41:43Z</time>
      </trkpt>
      <trkpt lat="43.36664" lon="-0.53766">
        <ele>121.362632</ele>
        <time>2011-02-15T14:41:46Z</time>
      </trkpt>
      <trkpt lat="43.36664" lon="-0.53784">
        <ele>121.362429</ele>
        <time>2011-02-15T14:41:49Z</time>
      </trkpt>
      <trkpt lat="43.36666" lon="-0.53802">
        <ele>121.362214</ele>
        <time>2011-02-15T14:41:52Z</time>
      </trkpt>
      <trkpt lat="43.36668" lon="-0.53821">
        <ele>121.362066</ele>
        <time>2011-02-15T14:41:55Z</time>
      </trkpt>
      <trkpt lat="43.36672" lon="-0.53835">
        <ele>121.361979</ele>
        <time>2011-02-15T14:41:57Z</time>
      </trkpt>
      <trkpt lat="43.36675" lon="-0.53849">
        <ele>121.361948</ele>
        <time>2011-02-15T14:41:59Z</time>
      </trkpt>
      <trkpt lat="43.36682" lon="-0.53868">
        <ele>121.361949</ele>
        <time>2011-02-15T14:42:02Z</time>
      </trkpt>
      <trkpt lat="43.36688" lon="-0.53888">
        <ele>121.500105</ele>
        <time>2011-02-15T14:42:05Z</time>
      </trkpt>
      <trkpt lat="43.36689" lon="-0.53902">
        <ele>121.859926</ele>
        <time>2011-02-15T14:42:07Z</time>
      </trkpt>
      <trkpt lat="43.36687" lon="-0.53922">
        <ele>122.367446</ele>
        <time>2011-02-15T14:42:10Z</time>
      </trkpt>
      <trkpt lat="43.36692" lon="-0.53942">
        <ele>122.902521</ele>
        <time>2011-02-15T14:42:13Z</time>
      </trkpt>
      <trkpt lat="43.36696" lon="-0.53955">
        <ele>123.298449</ele>
        <time>2011-02-15T14:42:15Z</time>
      </trkpt>
      <trkpt lat="43.36698" lon="-0.53968">
        <ele>123.581892</ele>
        <time>2011-02-15T14:42:17Z</time>
      </trkpt>
      <trkpt lat="43.36701" lon="-0.53987">
        <ele>124.076346</ele>
        <time>2011-02-15T14:42:20Z</time>
      </trkpt>
      <trkpt lat="43.36703" lon="-0.54">
        <ele>124.899688</ele>
        <time>2011-02-15T14:42:22Z</time>
      </trkpt>
      <trkpt lat="43.36707" lon="-0.54013">
        <ele>125.772054</ele>
        <time>2011-02-15T14:42:24Z</time>
      </trkpt>
      <trkpt lat="43.36712" lon="-0.54032">
        <ele>126.331613</ele>
        <time>2011-02-15T14:42:27Z</time>
      </trkpt>
      <trkpt lat="43.36717" lon="-0.54052">
        <ele>126.503826</ele>
        <time>2011-02-15T14:42:30Z</time>
      </trkpt>
      <trkpt lat="43.36722" lon="-0.54071">
        <ele>126.335711</ele>
        <time>2011-02-15T14:42:33Z</time>
      </trkpt>
      <trkpt lat="43.36726" lon="-0.54083">
        <ele>125.904226</ele>
        <time>2011-02-15T14:42:35Z</time>
      </trkpt>
      <trkpt lat="43.36732" lon="-0.54102">
        <ele>125.351286</ele>
        <time>2011-02-15T14:42:38Z</time>
      </trkpt>
      <trkpt lat="43.36737" lon="-0.54116">
        <ele>124.802423</ele>
        <time>2011-02-15T14:42:40Z</time>
      </trkpt>
      <trkpt lat="43.36741" lon="-0.54129">
        <ele>124.409043</ele>
        <time>2011-02-15T14:42:42Z</time>
      </trkpt>
      <trkpt lat="43.36749" lon="-0.54148">
        <ele>124.131424</ele>
        <time>2011-02-15T14:42:45Z</time>
      </trkpt>
      <trkpt lat="43.36756" lon="-0.54158">
        <ele>123.778744</ele>
        <time>2011-02-15T14:42:47Z</time>
      </trkpt>
      <trkpt lat="43.36763" lon="-0.54167">
        <ele>123.454447</ele>
        <time>2011-02-15T14:42:49Z</time>
      </trkpt>
      <trkpt lat="43.36775" lon="-0.54179">
        <ele>123.311058</ele>
        <time>2011-02-15T14:42:52Z</time>
      </trkpt>
      <trkpt lat="43.36786" lon="-0.54192">
        <ele>123.157445</ele>
        <time>2011-02-15T14:42:55Z</time>
      </trkpt>
      <trkpt lat="43.36797" lon="-0.54205">
        <ele>122.826795</ele>
        <time>2011-02-15T14:42:58Z</time>
      </trkpt>
      <trkpt lat="43.36808" lon="-0.5422">
        <ele>122.345572</ele>
        <time>2011-02-15T14:43:01Z</time>
      </trkpt>
      <trkpt lat="43.36814" lon="-0.54229">
        <ele>121.821934</ele>
        <time>2011-02-15T14:43:03Z</time>
      </trkpt>
      <trkpt lat="43.36821" lon="-0.54239">
        <ele>121.427111</ele>
        <time>2011-02-15T14:43:05Z</time>
      </trkpt>
      <trkpt lat="43.36828" lon="-0.54248">
        <ele>121.279413</ele>
        <time>2011-02-15T14:43:07Z</time>
      </trkpt>
      <trkpt lat="43.36837" lon="-0.54264">
        <ele>121.280841</ele>
        <time>2011-02-15T14:43:10Z</time>
      </trkpt>
      <trkpt lat="43.36847" lon="-0.54281">
        <ele>121.323995</ele>
        <time>2011-02-15T14:43:13Z</time>
      </trkpt>
      <trkpt lat="43.36853" lon="-0.54292">
        <ele>121.356038</ele>
        <time>2011-02-15T14:43:15Z</time>
      </trkpt>
      <trkpt lat="43.36862" lon="-0.54309">
        <ele>121.367834</ele>
        <time>2011-02-15T14:43:18Z</time>
      </trkpt>
      <trkpt lat="43.36868" lon="-0.54321">
        <ele>121.367568</ele>
        <time>2011-02-15T14:43:20Z</time>
      </trkpt>
      <trkpt lat="43.36874" lon="-0.54332">
        <ele>121.225822</ele>
        <time>2011-02-15T14:43:22Z</time>
      </trkpt>
      <trkpt lat="43.36882" lon="-0.54349">
        <ele>120.863314</ele>
        <time>2011-02-15T14:43:25Z</time>
      </trkpt>
      <trkpt lat="43.36889" lon="-0.54359">
        <ele>120.492917</ele>
        <time>2011-02-15T14:43:27Z</time>
      </trkpt>
      <trkpt lat="43.36901" lon="-0.54371">
        <ele>120.317663</ele>
        <time>2011-02-15T14:43:30Z</time>
      </trkpt>
      <trkpt lat="43.36914" lon="-0.54382">
        <ele>120.291406</ele>
        <time>2011-02-15T14:43:33Z</time>
      </trkpt>
      <trkpt lat="43.36922" lon="-0.54389">
        <ele>120.321595</ele>
        <time>2011-02-15T14:43:35Z</time>
      </trkpt>
      <trkpt lat="43.3693" lon="-0.54397">
        <ele>120.351779</ele>
        <time>2011-02-15T14:43:37Z</time>
      </trkpt>
      <trkpt lat="43.36942" lon="-0.54408">
        <ele>120.365876</ele>
        <time>2011-02-15T14:43:40Z</time>
      </trkpt>
      <trkpt lat="43.36956" lon="-0.54417">
        <ele>120.367878</ele>
        <time>2011-02-15T14:43:43Z</time>
      </trkpt>
      <trkpt lat="43.36967" lon="-0.5443">
        <ele>120.365367</ele>
        <time>2011-02-15T14:43:46Z</time>
      </trkpt>
      <trkpt lat="43.36978" lon="-0.54448">
        <ele>120.224742</ele>
        <time>2011-02-15T14:43:49Z</time>
      </trkpt>
      <trkpt lat="43.36988" lon="-0.54465">
        <ele>119.863746</ele>
        <time>2011-02-15T14:43:52Z</time>
      </trkpt>
      <trkpt lat="43.36996" lon="-0.54484">
        <ele>119.494186</ele>
        <time>2011-02-15T14:43:55Z</time>
      </trkpt>
      <trkpt lat="43.37001" lon="-0.54505">
        <ele>119.319139</ele>
        <time>2011-02-15T14:43:58Z</time>
      </trkpt>
      <trkpt lat="43.37002" lon="-0.54524">
        <ele>119.292801</ele>
        <time>2011-02-15T14:44:01Z</time>
      </trkpt>
      <trkpt lat="43.37002" lon="-0.54543">
        <ele>119.046509</ele>
        <time>2011-02-15T14:44:04Z</time>
      </trkpt>
      <trkpt lat="43.37003" lon="-0.54561">
        <ele>118.356822</ele>
        <time>2011-02-15T14:44:07Z</time>
      </trkpt>
      <trkpt lat="43.37008" lon="-0.54579">
        <ele>117.493818</ele>
        <time>2011-02-15T14:44:10Z</time>
      </trkpt>
      <trkpt lat="43.37012" lon="-0.5459">
        <ele>116.785356</ele>
        <time>2011-02-15T14:44:12Z</time>
      </trkpt>
      <trkpt lat="43.37021" lon="-0.54607">
        <ele>116.360296</ele>
        <time>2011-02-15T14:44:15Z</time>
      </trkpt>
      <trkpt lat="43.37032" lon="-0.54622">
        <ele>116.242492</ele>
        <time>2011-02-15T14:44:18Z</time>
      </trkpt>
      <trkpt lat="43.37045" lon="-0.54636">
        <ele>116.274996</ele>
        <time>2011-02-15T14:44:21Z</time>
      </trkpt>
      <trkpt lat="43.37057" lon="-0.54649">
        <ele>116.332992</ele>
        <time>2011-02-15T14:44:24Z</time>
      </trkpt>
      <trkpt lat="43.37065" lon="-0.54658">
        <ele>116.367335</ele>
        <time>2011-02-15T14:44:26Z</time>
      </trkpt>
      <trkpt lat="43.37079" lon="-0.5467">
        <ele>116.376634</ele>
        <time>2011-02-15T14:44:29Z</time>
      </trkpt>
      <trkpt lat="43.37088" lon="-0.54676">
        <ele>116.373839</ele>
        <time>2011-02-15T14:44:31Z</time>
      </trkpt>
      <trkpt lat="43.37103" lon="-0.54681">
        <ele>116.369086</ele>
        <time>2011-02-15T14:44:34Z</time>
      </trkpt>
      <trkpt lat="43.37116" lon="-0.54692">
        <ele>116.228147</ele>
        <time>2011-02-15T14:44:37Z</time>
      </trkpt>
      <trkpt lat="43.37127" lon="-0.54707">
        <ele>115.867564</ele>
        <time>2011-02-15T14:44:40Z</time>
      </trkpt>
      <trkpt lat="43.37136" lon="-0.54725">
        <ele>115.49841</ele>
        <time>2011-02-15T14:44:43Z</time>
      </trkpt>
      <trkpt lat="43.37143" lon="-0.54744">
        <ele>115.323549</ele>
        <time>2011-02-15T14:44:46Z</time>
      </trkpt>
      <trkpt lat="43.3715" lon="-0.54761">
        <ele>115.297236</ele>
        <time>2011-02-15T14:44:49Z</time>
      </trkpt>
      <trkpt lat="43.37154" lon="-0.54772">
        <ele>115.327272</ele>
        <time>2011-02-15T14:44:51Z</time>
      </trkpt>
      <trkpt lat="43.37158" lon="-0.54783">
        <ele>115.357355</ele>
        <time>2011-02-15T14:44:53Z</time>
      </trkpt>
      <trkpt lat="43.37166" lon="-0.548">
        <ele>115.371414</ele>
        <time>2011-02-15T14:44:56Z</time>
      </trkpt>
      <trkpt lat="43.37175" lon="-0.54817">
        <ele>115.373403</ele>
        <time>2011-02-15T14:44:59Z</time>
      </trkpt>
      <trkpt lat="43.3718" lon="-0.54828">
        <ele>115.370875</ele>
        <time>2011-02-15T14:45:01Z</time>
      </trkpt>
      <trkpt lat="43.37187" lon="-0.54845">
        <ele>115.36839</ele>
        <time>2011-02-15T14:45:04Z</time>
      </trkpt>
      <trkpt lat="43.37195" lon="-0.54863">
        <ele>115.367229</ele>
        <time>2011-02-15T14:45:07Z</time>
      </trkpt>
      <trkpt lat="43.37201" lon="-0.54876">
        <ele>115.36706</ele>
        <time>2011-02-15T14:45:09Z</time>
      </trkpt>
      <trkpt lat="43.37206" lon="-0.54889">
        <ele>115.367264</ele>
        <time>2011-02-15T14:45:11Z</time>
      </trkpt>
      <trkpt lat="43.37214" lon="-0.54908">
        <ele>115.505632</ele>
        <time>2011-02-15T14:45:14Z</time>
      </trkpt>
      <trkpt lat="43.37222" lon="-0.54928">
        <ele>116.00375</ele>
        <time>2011-02-15T14:45:17Z</time>
      </trkpt>
      <trkpt lat="43.37229" lon="-0.54948">
        <ele>116.733028</ele>
        <time>2011-02-15T14:45:20Z</time>
      </trkpt>
      <trkpt lat="43.37239" lon="-0.54966">
        <ele>117.277679</ele>
        <time>2011-02-15T14:45:23Z</time>
      </trkpt>
      <trkpt lat="43.37247" lon="-0.54984">
        <ele>117.479465</ele>
        <time>2011-02-15T14:45:26Z</time>
      </trkpt>
      <trkpt lat="43.37252" lon="-0.55002">
        <ele>117.476017</ele>
        <time>2011-02-15T14:45:29Z</time>
      </trkpt>
      <trkpt lat="43.37257" lon="-0.55013">
        <ele>117.554077</ele>
        <time>2011-02-15T14:45:31Z</time>
      </trkpt>
      <trkpt lat="43.37265" lon="-0.5503">
        <ele>117.869686</ele>
        <time>2011-02-15T14:45:34Z</time>
      </trkpt>
      <trkpt lat="43.37273" lon="-0.55047">
        <ele>118.222916</ele>
        <time>2011-02-15T14:45:37Z</time>
      </trkpt>
      <trkpt lat="43.37277" lon="-0.55058">
        <ele>118.398601</ele>
        <time>2011-02-15T14:45:39Z</time>
      </trkpt>
      <trkpt lat="43.37282" lon="-0.55069">
        <ele>118.430061</ele>
        <time>2011-02-15T14:45:41Z</time>
      </trkpt>
      <trkpt lat="43.37288" lon="-0.5508">
        <ele>118.403657</ele>
        <time>2011-02-15T14:45:43Z</time>
      </trkpt>
      <trkpt lat="43.37296" lon="-0.55098">
        <ele>118.374838</ele>
        <time>2011-02-15T14:45:46Z</time>
      </trkpt>
      <trkpt lat="43.37299" lon="-0.55111">
        <ele>118.360689</ele>
        <time>2011-02-15T14:45:48Z</time>
      </trkpt>
      <trkpt lat="43.373" lon="-0.55126">
        <ele>118.358254</ele>
        <time>2011-02-15T14:45:50Z</time>
      </trkpt>
      <trkpt lat="43.37299" lon="-0.55147">
        <ele>118.36044</ele>
        <time>2011-02-15T14:45:53Z</time>
      </trkpt>
      <trkpt lat="43.37303" lon="-0.55166">
        <ele>118.362763</ele>
        <time>2011-02-15T14:45:56Z</time>
      </trkpt>
      <trkpt lat="43.37315" lon="-0.55178">
        <ele>118.363852</ele>
        <time>2011-02-15T14:45:59Z</time>
      </trkpt>
      <trkpt lat="43.3732" lon="-0.55188">
        <ele>118.2258</ele>
        <time>2011-02-15T14:46:01Z</time>
      </trkpt>
      <trkpt lat="43.37325" lon="-0.55206">
        <ele>117.8657</ele>
        <time>2011-02-15T14:46:04Z</time>
      </trkpt>
      <trkpt lat="43.37332" lon="-0.55225">
        <ele>117.496089</ele>
        <time>2011-02-15T14:46:07Z</time>
      </trkpt>
      <trkpt lat="43.3734" lon="-0.55245">
        <ele>117.458905</ele>
        <time>2011-02-15T14:46:10Z</time>
      </trkpt>
      <trkpt lat="43.37346" lon="-0.55259">
        <ele>117.792197</ele>
        <time>2011-02-15T14:46:12Z</time>
      </trkpt>
      <trkpt lat="43.37352" lon="-0.55273">
        <ele>118.191575</ele>
        <time>2011-02-15T14:46:14Z</time>
      </trkpt>
      <trkpt lat="43.3736" lon="-0.55294">
        <ele>118.396938</ele>
        <time>2011-02-15T14:46:17Z</time>
      </trkpt>
      <trkpt lat="43.37369" lon="-0.55314">
        <ele>118.437571</ele>
        <time>2011-02-15T14:46:20Z</time>
      </trkpt>
      <trkpt lat="43.37379" lon="-0.55333">
        <ele>118.409609</ele>
        <time>2011-02-15T14:46:23Z</time>
      </trkpt>
      <trkpt lat="43.37388" lon="-0.5535">
        <ele>118.376979</ele>
        <time>2011-02-15T14:46:26Z</time>
      </trkpt>
      <trkpt lat="43.37397" lon="-0.55367">
        <ele>118.360373</ele>
        <time>2011-02-15T14:46:29Z</time>
      </trkpt>
      <trkpt lat="43.37405" lon="-0.55383">
        <ele>118.357157</ele>
        <time>2011-02-15T14:46:32Z</time>
      </trkpt>
      <trkpt lat="43.37414" lon="-0.55398">
        <ele>118.359459</ele>
        <time>2011-02-15T14:46:35Z</time>
      </trkpt>
      <trkpt lat="43.37424" lon="-0.55412">
        <ele>118.362096</ele>
        <time>2011-02-15T14:46:38Z</time>
      </trkpt>
      <trkpt lat="43.37432" lon="-0.55422">
        <ele>118.363413</ele>
        <time>2011-02-15T14:46:40Z</time>
      </trkpt>
      <trkpt lat="43.37441" lon="-0.55437">
        <ele>118.363642</ele>
        <time>2011-02-15T14:46:43Z</time>
      </trkpt>
      <trkpt lat="43.3745" lon="-0.55453">
        <ele>118.363433</ele>
        <time>2011-02-15T14:46:46Z</time>
      </trkpt>
      <trkpt lat="43.37459" lon="-0.55469">
        <ele>118.363203</ele>
        <time>2011-02-15T14:46:49Z</time>
      </trkpt>
      <trkpt lat="43.37467" lon="-0.55485">
        <ele>118.363079</ele>
        <time>2011-02-15T14:46:52Z</time>
      </trkpt>
      <trkpt lat="43.37474" lon="-0.55502">
        <ele>118.363041</ele>
        <time>2011-02-15T14:46:55Z</time>
      </trkpt>
      <trkpt lat="43.3748" lon="-0.5552">
        <ele>118.224871</ele>
        <time>2011-02-15T14:46:58Z</time>
      </trkpt>
      <trkpt lat="43.37484" lon="-0.55537">
        <ele>117.865008</ele>
        <time>2011-02-15T14:47:01Z</time>
      </trkpt>
      <trkpt lat="43.37488" lon="-0.55555">
        <ele>117.495587</ele>
        <time>2011-02-15T14:47:04Z</time>
      </trkpt>
      <trkpt lat="43.37491" lon="-0.55568">
        <ele>117.320302</ele>
        <time>2011-02-15T14:47:06Z</time>
      </trkpt>
      <trkpt lat="43.37492" lon="-0.55581">
        <ele>117.155546</ele>
        <time>2011-02-15T14:47:08Z</time>
      </trkpt>
      <trkpt lat="43.37492" lon="-0.55602">
        <ele>116.825589</ele>
        <time>2011-02-15T14:47:11Z</time>
      </trkpt>
      <trkpt lat="43.37494" lon="-0.55623">
        <ele>116.486218</ele>
        <time>2011-02-15T14:47:14Z</time>
      </trkpt>
      <trkpt lat="43.37497" lon="-0.55644">
        <ele>116.325014</ele>
        <time>2011-02-15T14:47:17Z</time>
      </trkpt>
      <trkpt lat="43.37506" lon="-0.5566">
        <ele>116.162286</ele>
        <time>2011-02-15T14:47:20Z</time>
      </trkpt>
      <trkpt lat="43.37512" lon="-0.5567">
        <ele>115.82983</ele>
        <time>2011-02-15T14:47:22Z</time>
      </trkpt>
      <trkpt lat="43.37524" lon="-0.55684">
        <ele>115.487994</ele>
        <time>2011-02-15T14:47:25Z</time>
      </trkpt>
      <trkpt lat="43.37535" lon="-0.55697">
        <ele>115.325652</ele>
        <time>2011-02-15T14:47:28Z</time>
      </trkpt>
      <trkpt lat="43.37546" lon="-0.5571">
        <ele>115.300958</ele>
        <time>2011-02-15T14:47:31Z</time>
      </trkpt>
      <trkpt lat="43.37557" lon="-0.55723">
        <ele>115.328635</ele>
        <time>2011-02-15T14:47:34Z</time>
      </trkpt>
      <trkpt lat="43.37568" lon="-0.55738">
        <ele>115.35648</ele>
        <time>2011-02-15T14:47:37Z</time>
      </trkpt>
      <trkpt lat="43.37575" lon="-0.55747">
        <ele>115.369531</ele>
        <time>2011-02-15T14:47:39Z</time>
      </trkpt>
      <trkpt lat="43.37587" lon="-0.55758">
        <ele>115.371413</ele>
        <time>2011-02-15T14:47:42Z</time>
      </trkpt>
      <trkpt lat="43.37597" lon="-0.5577">
        <ele>115.369109</ele>
        <time>2011-02-15T14:47:45Z</time>
      </trkpt>
      <trkpt lat="43.37605" lon="-0.55781">
        <ele>115.366842</ele>
        <time>2011-02-15T14:47:48Z</time>
      </trkpt>
      <trkpt lat="43.37612" lon="-0.55796">
        <ele>115.365793</ele>
        <time>2011-02-15T14:47:51Z</time>
      </trkpt>
      <trkpt lat="43.37615" lon="-0.55808">
        <ele>115.36565</ele>
        <time>2011-02-15T14:47:53Z</time>
      </trkpt>
      <trkpt lat="43.37617" lon="-0.55828">
        <ele>115.365841</ele>
        <time>2011-02-15T14:47:56Z</time>
      </trkpt>
      <trkpt lat="43.37621" lon="-0.5585">
        <ele>115.366024</ele>
        <time>2011-02-15T14:47:59Z</time>
      </trkpt>
      <trkpt lat="43.3762" lon="-0.55871">
        <ele>115.366101</ele>
        <time>2011-02-15T14:48:02Z</time>
      </trkpt>
      <trkpt lat="43.37613" lon="-0.5589">
        <ele>115.366089</ele>
        <time>2011-02-15T14:48:05Z</time>
      </trkpt>
      <trkpt lat="43.37609" lon="-0.55902">
        <ele>115.366032</ele>
        <time>2011-02-15T14:48:07Z</time>
      </trkpt>
      <trkpt lat="43.37605" lon="-0.55922">
        <ele>115.365946</ele>
        <time>2011-02-15T14:48:10Z</time>
      </trkpt>
      <trkpt lat="43.37604" lon="-0.55942">
        <ele>115.365837</ele>
        <time>2011-02-15T14:48:13Z</time>
      </trkpt>
      <trkpt lat="43.37604" lon="-0.55963">
        <ele>115.36573</ele>
        <time>2011-02-15T14:48:16Z</time>
      </trkpt>
      <trkpt lat="43.3761" lon="-0.55976">
        <ele>115.365651</ele>
        <time>2011-02-15T14:48:18Z</time>
      </trkpt>
      <trkpt lat="43.37617" lon="-0.55995">
        <ele>115.365621</ele>
        <time>2011-02-15T14:48:21Z</time>
      </trkpt>
      <trkpt lat="43.37622" lon="-0.56008">
        <ele>115.365643</ele>
        <time>2011-02-15T14:48:23Z</time>
      </trkpt>
      <trkpt lat="43.37629" lon="-0.56026">
        <ele>115.503811</ele>
        <time>2011-02-15T14:48:26Z</time>
      </trkpt>
      <trkpt lat="43.37634" lon="-0.56038">
        <ele>115.863604</ele>
        <time>2011-02-15T14:48:28Z</time>
      </trkpt>
      <trkpt lat="43.37639" lon="-0.56057">
        <ele>116.23292</ele>
        <time>2011-02-15T14:48:31Z</time>
      </trkpt>
      <trkpt lat="43.37632" lon="-0.56075">
        <ele>116.408121</ele>
        <time>2011-02-15T14:48:34Z</time>
      </trkpt>
      <trkpt lat="43.37624" lon="-0.56083">
        <ele>116.434636</ele>
        <time>2011-02-15T14:48:36Z</time>
      </trkpt>
      <trkpt lat="43.37616" lon="-0.5609">
        <ele>116.404634</ele>
        <time>2011-02-15T14:48:38Z</time>
      </trkpt>
      <trkpt lat="43.37609" lon="-0.56098">
        <ele>116.374475</ele>
        <time>2011-02-15T14:48:40Z</time>
      </trkpt>
      <trkpt lat="43.37599" lon="-0.56111">
        <ele>116.360303</ele>
        <time>2011-02-15T14:48:43Z</time>
      </trkpt>
      <trkpt lat="43.37592" lon="-0.56119">
        <ele>116.358215</ele>
        <time>2011-02-15T14:48:45Z</time>
      </trkpt>
      <trkpt lat="43.3758" lon="-0.5613">
        <ele>116.360683</ele>
        <time>2011-02-15T14:48:48Z</time>
      </trkpt>
      <trkpt lat="43.37571" lon="-0.56137">
        <ele>116.363149</ele>
        <time>2011-02-15T14:48:50Z</time>
      </trkpt>
      <trkpt lat="43.37558" lon="-0.56148">
        <ele>116.502415</ele>
        <time>2011-02-15T14:48:53Z</time>
      </trkpt>
      <trkpt lat="43.37548" lon="-0.56157">
        <ele>116.862293</ele>
        <time>2011-02-15T14:48:55Z</time>
      </trkpt>
      <trkpt lat="43.3754" lon="-0.56165">
        <ele>117.231338</ele>
        <time>2011-02-15T14:48:57Z</time>
      </trkpt>
      <trkpt lat="43.37527" lon="-0.56178">
        <ele>117.406309</ele>
        <time>2011-02-15T14:49:00Z</time>
      </trkpt>
      <trkpt lat="43.37518" lon="-0.56188">
        <ele>117.294546</ele>
        <time>2011-02-15T14:49:02Z</time>
      </trkpt>
      <trkpt lat="43.37509" lon="-0.56198">
        <ele>116.904638</ele>
        <time>2011-02-15T14:49:04Z</time>
      </trkpt>
      <trkpt lat="43.37495" lon="-0.56212">
        <ele>116.505067</ele>
        <time>2011-02-15T14:49:07Z</time>
      </trkpt>
      <trkpt lat="43.37482" lon="-0.56225">
        <ele>116.315652</ele>
        <time>2011-02-15T14:49:10Z</time>
      </trkpt>
      <trkpt lat="43.37469" lon="-0.56239">
        <ele>116.287022</ele>
        <time>2011-02-15T14:49:13Z</time>
      </trkpt>
      <trkpt lat="43.37457" lon="-0.56252">
        <ele>116.319419</ele>
        <time>2011-02-15T14:49:16Z</time>
      </trkpt>
      <trkpt lat="43.37446" lon="-0.56261">
        <ele>116.351886</ele>
        <time>2011-02-15T14:49:19Z</time>
      </trkpt>
      <trkpt lat="43.37435" lon="-0.56269">
        <ele>116.367015</ele>
        <time>2011-02-15T14:49:22Z</time>
      </trkpt>
      <trkpt lat="43.37427" lon="-0.56283">
        <ele>116.369087</ele>
        <time>2011-02-15T14:49:25Z</time>
      </trkpt>
      <trkpt lat="43.37422" lon="-0.56299">
        <ele>116.228108</ele>
        <time>2011-02-15T14:49:28Z</time>
      </trkpt>
      <trkpt lat="43.37416" lon="-0.56317">
        <ele>115.865488</ele>
        <time>2011-02-15T14:49:31Z</time>
      </trkpt>
      <trkpt lat="43.37413" lon="-0.5633">
        <ele>115.494789</ele>
        <time>2011-02-15T14:49:33Z</time>
      </trkpt>
      <trkpt lat="43.37409" lon="-0.56349">
        <ele>115.319354</ele>
        <time>2011-02-15T14:49:36Z</time>
      </trkpt>
      <trkpt lat="43.37408" lon="-0.56367">
        <ele>115.431168</ele>
        <time>2011-02-15T14:49:39Z</time>
      </trkpt>
      <trkpt lat="43.3741" lon="-0.56384">
        <ele>115.821115</ele>
        <time>2011-02-15T14:49:42Z</time>
      </trkpt>
      <trkpt lat="43.37412" lon="-0.56401">
        <ele>116.220627</ele>
        <time>2011-02-15T14:49:45Z</time>
      </trkpt>
      <trkpt lat="43.37413" lon="-0.56419">
        <ele>116.548118</ele>
        <time>2011-02-15T14:49:48Z</time>
      </trkpt>
      <trkpt lat="43.37415" lon="-0.56431">
        <ele>117.074646</ele>
        <time>2011-02-15T14:49:50Z</time>
      </trkpt>
      <trkpt lat="43.37417" lon="-0.56444">
        <ele>117.771357</ele>
        <time>2011-02-15T14:49:52Z</time>
      </trkpt>
      <trkpt lat="43.37418" lon="-0.56463">
        <ele>118.283392</ele>
        <time>2011-02-15T14:49:55Z</time>
      </trkpt>
      <trkpt lat="43.3742" lon="-0.56483">
        <ele>118.46992</ele>
        <time>2011-02-15T14:49:58Z</time>
      </trkpt>
      <trkpt lat="43.3742" lon="-0.56501">
        <ele>118.464301</ele>
        <time>2011-02-15T14:50:01Z</time>
      </trkpt>
      <trkpt lat="43.37418" lon="-0.5652">
        <ele>118.406933</ele>
        <time>2011-02-15T14:50:04Z</time>
      </trkpt>
      <trkpt lat="43.37416" lon="-0.56539">
        <ele>118.503529</ele>
        <time>2011-02-15T14:50:07Z</time>
      </trkpt>
      <trkpt lat="43.37415" lon="-0.56559">
        <ele>118.848425</ele>
        <time>2011-02-15T14:50:10Z</time>
      </trkpt>
      <trkpt lat="43.37415" lon="-0.56582">
        <ele>119.218414</ele>
        <time>2011-02-15T14:50:13Z</time>
      </trkpt>
      <trkpt lat="43.37415" lon="-0.56606">
        <ele>119.53654</ele>
        <time>2011-02-15T14:50:16Z</time>
      </trkpt>
      <trkpt lat="43.37411" lon="-0.56628">
        <ele>120.064454</ele>
        <time>2011-02-15T14:50:19Z</time>
      </trkpt>
      <trkpt lat="43.37403" lon="-0.56645">
        <ele>120.903059</ele>
        <time>2011-02-15T14:50:22Z</time>
      </trkpt>
      <trkpt lat="43.37392" lon="-0.56656">
        <ele>121.777374</ele>
        <time>2011-02-15T14:50:25Z</time>
      </trkpt>
      <trkpt lat="43.37385" lon="-0.56666">
        <ele>122.472225</ele>
        <time>2011-02-15T14:50:27Z</time>
      </trkpt>
      <trkpt lat="43.37379" lon="-0.56685">
        <ele>123.139704</ele>
        <time>2011-02-15T14:50:30Z</time>
      </trkpt>
      <trkpt lat="43.37379" lon="-0.567">
        <ele>123.837704</ele>
        <time>2011-02-15T14:50:32Z</time>
      </trkpt>
      <trkpt lat="43.37378" lon="-0.56715">
        <ele>124.310528</ele>
        <time>2011-02-15T14:50:34Z</time>
      </trkpt>
      <trkpt lat="43.37376" lon="-0.56736">
        <ele>124.467201</ele>
        <time>2011-02-15T14:50:37Z</time>
      </trkpt>
      <trkpt lat="43.37371" lon="-0.56757">
        <ele>124.450287</ele>
        <time>2011-02-15T14:50:40Z</time>
      </trkpt>
      <trkpt lat="43.37367" lon="-0.56779">
        <ele>124.392906</ele>
        <time>2011-02-15T14:50:43Z</time>
      </trkpt>
      <trkpt lat="43.37362" lon="-0.568">
        <ele>124.354544</ele>
        <time>2011-02-15T14:50:46Z</time>
      </trkpt>
      <trkpt lat="43.37357" lon="-0.56814">
        <ele>124.342005</ele>
        <time>2011-02-15T14:50:48Z</time>
      </trkpt>
      <trkpt lat="43.37351" lon="-0.56827">
        <ele>124.34346</ele>
        <time>2011-02-15T14:50:50Z</time>
      </trkpt>
      <trkpt lat="43.37344" lon="-0.56839">
        <ele>124.348079</ele>
        <time>2011-02-15T14:50:52Z</time>
      </trkpt>
      <trkpt lat="43.37333" lon="-0.56856">
        <ele>124.212912</ele>
        <time>2011-02-15T14:50:55Z</time>
      </trkpt>
      <trkpt lat="43.37321" lon="-0.56872">
        <ele>123.853927</ele>
        <time>2011-02-15T14:50:58Z</time>
      </trkpt>
      <trkpt lat="43.37313" lon="-0.56882">
        <ele>123.48428</ele>
        <time>2011-02-15T14:51:00Z</time>
      </trkpt>
      <trkpt lat="43.37302" lon="-0.56898">
        <ele>123.308573</ele>
        <time>2011-02-15T14:51:03Z</time>
      </trkpt>
      <trkpt lat="43.37299" lon="-0.56912">
        <ele>123.28176</ele>
        <time>2011-02-15T14:51:05Z</time>
      </trkpt>
      <trkpt lat="43.37298" lon="-0.56925">
        <ele>123.31166</ele>
        <time>2011-02-15T14:51:07Z</time>
      </trkpt>
      <trkpt lat="43.373" lon="-0.56946">
        <ele>123.479886</ele>
        <time>2011-02-15T14:51:10Z</time>
      </trkpt>
      <trkpt lat="43.37302" lon="-0.56966">
        <ele>123.853713</ele>
        <time>2011-02-15T14:51:13Z</time>
      </trkpt>
      <trkpt lat="43.37304" lon="-0.56985">
        <ele>124.224989</ele>
        <time>2011-02-15T14:51:16Z</time>
      </trkpt>
      <trkpt lat="43.37306" lon="-0.57002">
        <ele>124.397665</ele>
        <time>2011-02-15T14:51:19Z</time>
      </trkpt>
      <trkpt lat="43.37309" lon="-0.57021">
        <ele>124.421718</ele>
        <time>2011-02-15T14:51:22Z</time>
      </trkpt>
      <trkpt lat="43.37314" lon="-0.57043">
        <ele>124.390583</ele>
        <time>2011-02-15T14:51:25Z</time>
      </trkpt>
      <trkpt lat="43.37322" lon="-0.57064">
        <ele>124.360285</ele>
        <time>2011-02-15T14:51:28Z</time>
      </trkpt>
      <trkpt lat="43.37328" lon="-0.57077">
        <ele>124.346346</ele>
        <time>2011-02-15T14:51:30Z</time>
      </trkpt>
      <trkpt lat="43.37339" lon="-0.57094">
        <ele>124.34447</ele>
        <time>2011-02-15T14:51:33Z</time>
      </trkpt>
      <trkpt lat="43.37347" lon="-0.57105">
        <ele>124.347006</ele>
        <time>2011-02-15T14:51:35Z</time>
      </trkpt>
      <trkpt lat="43.3736" lon="-0.57119">
        <ele>124.349429</ele>
        <time>2011-02-15T14:51:38Z</time>
      </trkpt>
      <trkpt lat="43.37372" lon="-0.57133">
        <ele>124.212339</ele>
        <time>2011-02-15T14:51:41Z</time>
      </trkpt>
      <trkpt lat="43.37384" lon="-0.57146">
        <ele>123.714392</ele>
        <time>2011-02-15T14:51:44Z</time>
      </trkpt>
      <trkpt lat="43.37396" lon="-0.57159">
        <ele>122.846668</ele>
        <time>2011-02-15T14:51:47Z</time>
      </trkpt>
      <trkpt lat="43.37409" lon="-0.57172">
        <ele>121.803704</ele>
        <time>2011-02-15T14:51:50Z</time>
      </trkpt>
      <trkpt lat="43.37422" lon="-0.57186">
        <ele>120.872504</ele>
        <time>2011-02-15T14:51:53Z</time>
      </trkpt>
      <trkpt lat="43.37436" lon="-0.57201">
        <ele>120.193082</ele>
        <time>2011-02-15T14:51:56Z</time>
      </trkpt>
      <trkpt lat="43.37448" lon="-0.57213">
        <ele>119.553341</ele>
        <time>2011-02-15T14:51:59Z</time>
      </trkpt>
      <trkpt lat="43.3746" lon="-0.57225">
        <ele>118.871702</ele>
        <time>2011-02-15T14:52:02Z</time>
      </trkpt>
      <trkpt lat="43.37471" lon="-0.57238">
        <ele>118.403231</ele>
        <time>2011-02-15T14:52:05Z</time>
      </trkpt>
      <trkpt lat="43.37479" lon="-0.57249">
        <ele>118.106994</ele>
        <time>2011-02-15T14:52:07Z</time>
      </trkpt>
      <trkpt lat="43.3749" lon="-0.57266">
        <ele>117.623555</ele>
        <time>2011-02-15T14:52:10Z</time>
      </trkpt>
      <trkpt lat="43.37502" lon="-0.57284">
        <ele>116.950272</ele>
        <time>2011-02-15T14:52:13Z</time>
      </trkpt>
      <trkpt lat="43.37509" lon="-0.57296">
        <ele>116.443551</ele>
        <time>2011-02-15T14:52:15Z</time>
      </trkpt>
      <trkpt lat="43.3752" lon="-0.57313">
        <ele>116.254344</ele>
        <time>2011-02-15T14:52:18Z</time>
      </trkpt>
      <trkpt lat="43.37527" lon="-0.57325">
        <ele>116.256435</ele>
        <time>2011-02-15T14:52:20Z</time>
      </trkpt>
      <trkpt lat="43.37538" lon="-0.57343">
        <ele>116.311902</ele>
        <time>2011-02-15T14:52:23Z</time>
      </trkpt>
      <trkpt lat="43.37548" lon="-0.5736">
        <ele>116.214835</ele>
        <time>2011-02-15T14:52:26Z</time>
      </trkpt>
      <trkpt lat="43.37558" lon="-0.57377">
        <ele>115.870062</ele>
        <time>2011-02-15T14:52:29Z</time>
      </trkpt>
      <trkpt lat="43.37565" lon="-0.57389">
        <ele>115.500285</ele>
        <time>2011-02-15T14:52:31Z</time>
      </trkpt>
      <trkpt lat="43.37576" lon="-0.57406">
        <ele>115.320454</ele>
        <time>2011-02-15T14:52:34Z</time>
      </trkpt>
      <trkpt lat="43.37586" lon="-0.57424">
        <ele>115.428748</ele>
        <time>2011-02-15T14:52:37Z</time>
      </trkpt>
      <trkpt lat="43.37597" lon="-0.57441">
        <ele>115.817383</ele>
        <time>2011-02-15T14:52:40Z</time>
      </trkpt>
      <trkpt lat="43.37607" lon="-0.57458">
        <ele>116.216927</ele>
        <time>2011-02-15T14:52:43Z</time>
      </trkpt>
      <trkpt lat="43.37613" lon="-0.57469">
        <ele>116.406634</ele>
        <time>2011-02-15T14:52:45Z</time>
      </trkpt>
      <trkpt lat="43.37624" lon="-0.57486">
        <ele>116.435446</ele>
        <time>2011-02-15T14:52:48Z</time>
      </trkpt>
      <trkpt lat="43.3763" lon="-0.57497">
        <ele>116.40306</ele>
        <time>2011-02-15T14:52:50Z</time>
      </trkpt>
      <trkpt lat="43.3764" lon="-0.57514">
        <ele>116.370496</ele>
        <time>2011-02-15T14:52:53Z</time>
      </trkpt>
      <trkpt lat="43.37647" lon="-0.57525">
        <ele>116.355233</ele>
        <time>2011-02-15T14:52:55Z</time>
      </trkpt>
      <trkpt lat="43.37654" lon="-0.57536">
        <ele>116.353027</ele>
        <time>2011-02-15T14:52:57Z</time>
      </trkpt>
      <trkpt lat="43.37664" lon="-0.57552">
        <ele>116.355714</ele>
        <time>2011-02-15T14:53:00Z</time>
      </trkpt>
      <trkpt lat="43.37674" lon="-0.57568">
        <ele>116.358359</ele>
        <time>2011-02-15T14:53:03Z</time>
      </trkpt>
      <trkpt lat="43.37684" lon="-0.57584">
        <ele>116.359576</ele>
        <time>2011-02-15T14:53:06Z</time>
      </trkpt>
      <trkpt lat="43.3769" lon="-0.57595">
        <ele>116.359734</ele>
        <time>2011-02-15T14:53:08Z</time>
      </trkpt>
      <trkpt lat="43.37698" lon="-0.57613">
        <ele>116.359506</ele>
        <time>2011-02-15T14:53:11Z</time>
      </trkpt>
      <trkpt lat="43.37708" lon="-0.57629">
        <ele>116.359285</ele>
        <time>2011-02-15T14:53:14Z</time>
      </trkpt>
      <trkpt lat="43.37715" lon="-0.5764">
        <ele>116.359177</ele>
        <time>2011-02-15T14:53:16Z</time>
      </trkpt>
      <trkpt lat="43.37725" lon="-0.57657">
        <ele>116.359147</ele>
        <time>2011-02-15T14:53:19Z</time>
      </trkpt>
      <trkpt lat="43.37732" lon="-0.57668">
        <ele>116.359141</ele>
        <time>2011-02-15T14:53:21Z</time>
      </trkpt>
      <trkpt lat="43.37741" lon="-0.57686">
        <ele>116.359138</ele>
        <time>2011-02-15T14:53:24Z</time>
      </trkpt>
      <trkpt lat="43.3775" lon="-0.57704">
        <ele>116.359138</ele>
        <time>2011-02-15T14:53:27Z</time>
      </trkpt>
      <trkpt lat="43.37755" lon="-0.57716">
        <ele>116.497301</ele>
        <time>2011-02-15T14:53:29Z</time>
      </trkpt>
      <trkpt lat="43.37761" lon="-0.57735">
        <ele>116.857156</ele>
        <time>2011-02-15T14:53:32Z</time>
      </trkpt>
      <trkpt lat="43.37766" lon="-0.57748">
        <ele>117.226551</ele>
        <time>2011-02-15T14:53:34Z</time>
      </trkpt>
      <trkpt lat="43.37772" lon="-0.57767">
        <ele>117.401794</ele>
        <time>2011-02-15T14:53:37Z</time>
      </trkpt>
      <trkpt lat="43.37778" lon="-0.57785">
        <ele>117.428316</ele>
        <time>2011-02-15T14:53:40Z</time>
      </trkpt>
      <trkpt lat="43.37781" lon="-0.57797">
        <ele>117.398315</ele>
        <time>2011-02-15T14:53:42Z</time>
      </trkpt>
      <trkpt lat="43.37785" lon="-0.57809">
        <ele>117.368181</ele>
        <time>2011-02-15T14:53:44Z</time>
      </trkpt>
      <trkpt lat="43.37791" lon="-0.57827">
        <ele>117.354052</ele>
        <time>2011-02-15T14:53:47Z</time>
      </trkpt>
      <trkpt lat="43.37795" lon="-0.57839">
        <ele>117.351995</ele>
        <time>2011-02-15T14:53:49Z</time>
      </trkpt>
      <trkpt lat="43.37801" lon="-0.57858">
        <ele>117.354464</ele>
        <time>2011-02-15T14:53:52Z</time>
      </trkpt>
      <trkpt lat="43.37808" lon="-0.57877">
        <ele>117.356903</ele>
        <time>2011-02-15T14:53:55Z</time>
      </trkpt>
      <trkpt lat="43.37813" lon="-0.5789">
        <ele>117.358034</ele>
        <time>2011-02-15T14:53:57Z</time>
      </trkpt>
      <trkpt lat="43.3782" lon="-0.5791">
        <ele>117.496337</ele>
        <time>2011-02-15T14:54:00Z</time>
      </trkpt>
      <trkpt lat="43.37826" lon="-0.57928">
        <ele>117.855944</ele>
        <time>2011-02-15T14:54:03Z</time>
      </trkpt>
      <trkpt lat="43.3783" lon="-0.57941">
        <ele>118.225099</ele>
        <time>2011-02-15T14:54:05Z</time>
      </trkpt>
      <trkpt lat="43.37835" lon="-0.57953">
        <ele>118.400236</ele>
        <time>2011-02-15T14:54:07Z</time>
      </trkpt>
      <trkpt lat="43.37841" lon="-0.57973">
        <ele>118.426762</ele>
        <time>2011-02-15T14:54:10Z</time>
      </trkpt>
      <trkpt lat="43.37848" lon="-0.57992">
        <ele>118.396814</ele>
        <time>2011-02-15T14:54:13Z</time>
      </trkpt>
      <trkpt lat="43.37854" lon="-0.58011">
        <ele>118.36673</ele>
        <time>2011-02-15T14:54:16Z</time>
      </trkpt>
      <trkpt lat="43.3786" lon="-0.5803">
        <ele>118.352626</ele>
        <time>2011-02-15T14:54:19Z</time>
      </trkpt>
      <trkpt lat="43.37867" lon="-0.58049">
        <ele>118.350574</ele>
        <time>2011-02-15T14:54:22Z</time>
      </trkpt>
      <trkpt lat="43.37873" lon="-0.58068">
        <ele>118.353018</ele>
        <time>2011-02-15T14:54:25Z</time>
      </trkpt>
      <trkpt lat="43.37878" lon="-0.58081">
        <ele>118.355398</ele>
        <time>2011-02-15T14:54:27Z</time>
      </trkpt>
      <trkpt lat="43.37884" lon="-0.581">
        <ele>118.356457</ele>
        <time>2011-02-15T14:54:30Z</time>
      </trkpt>
      <trkpt lat="43.37889" lon="-0.58114">
        <ele>118.356555</ele>
        <time>2011-02-15T14:54:32Z</time>
      </trkpt>
      <trkpt lat="43.37893" lon="-0.58127">
        <ele>118.356307</ele>
        <time>2011-02-15T14:54:34Z</time>
      </trkpt>
      <trkpt lat="43.379" lon="-0.58145">
        <ele>118.356077</ele>
        <time>2011-02-15T14:54:37Z</time>
      </trkpt>
      <trkpt lat="43.37905" lon="-0.58158">
        <ele>118.217782</ele>
        <time>2011-02-15T14:54:39Z</time>
      </trkpt>
      <trkpt lat="43.37909" lon="-0.5817">
        <ele>117.857851</ele>
        <time>2011-02-15T14:54:41Z</time>
      </trkpt>
      <trkpt lat="43.37916" lon="-0.5819">
        <ele>117.488405</ele>
        <time>2011-02-15T14:54:44Z</time>
      </trkpt>
      <trkpt lat="43.3792" lon="-0.58203">
        <ele>117.313132</ele>
        <time>2011-02-15T14:54:46Z</time>
      </trkpt>
      <trkpt lat="43.37927" lon="-0.58223">
        <ele>117.286582</ele>
        <time>2011-02-15T14:54:49Z</time>
      </trkpt>
      <trkpt lat="43.37934" lon="-0.58243">
        <ele>117.316538</ele>
        <time>2011-02-15T14:54:52Z</time>
      </trkpt>
      <trkpt lat="43.37942" lon="-0.58264">
        <ele>117.208436</ele>
        <time>2011-02-15T14:54:55Z</time>
      </trkpt>
      <trkpt lat="43.3795" lon="-0.58284">
        <ele>116.862615</ele>
        <time>2011-02-15T14:54:58Z</time>
      </trkpt>
      <trkpt lat="43.3796" lon="-0.58303">
        <ele>116.495174</ele>
        <time>2011-02-15T14:55:01Z</time>
      </trkpt>
      <trkpt lat="43.37967" lon="-0.58314">
        <ele>116.317379</ele>
        <time>2011-02-15T14:55:03Z</time>
      </trkpt>
      <trkpt lat="43.3798" lon="-0.58327">
        <ele>116.288353</ele>
        <time>2011-02-15T14:55:06Z</time>
      </trkpt>
      <trkpt lat="43.3799" lon="-0.58334">
        <ele>116.317165</ele>
        <time>2011-02-15T14:55:08Z</time>
      </trkpt>
      <trkpt lat="43.38" lon="-0.58339">
        <ele>116.347089</ele>
        <time>2011-02-15T14:55:10Z</time>
      </trkpt>
      <trkpt lat="43.38015" lon="-0.58344">
        <ele>116.361379</ele>
        <time>2011-02-15T14:55:13Z</time>
      </trkpt>
      <trkpt lat="43.38029" lon="-0.58349">
        <ele>116.363599</ele>
        <time>2011-02-15T14:55:16Z</time>
      </trkpt>
      <trkpt lat="43.38044" lon="-0.58354">
        <ele>116.361204</ele>
        <time>2011-02-15T14:55:19Z</time>
      </trkpt>
      <trkpt lat="43.38054" lon="-0.58359">
        <ele>116.358797</ele>
        <time>2011-02-15T14:55:21Z</time>
      </trkpt>
      <trkpt lat="43.38063" lon="-0.58365">
        <ele>116.357707</ele>
        <time>2011-02-15T14:55:23Z</time>
      </trkpt>
      <trkpt lat="43.38072" lon="-0.58373">
        <ele>116.357601</ele>
        <time>2011-02-15T14:55:25Z</time>
      </trkpt>
      <trkpt lat="43.38085" lon="-0.58387">
        <ele>116.357843</ele>
        <time>2011-02-15T14:55:28Z</time>
      </trkpt>
      <trkpt lat="43.38097" lon="-0.58402">
        <ele>116.358055</ele>
        <time>2011-02-15T14:55:31Z</time>
      </trkpt>
      <trkpt lat="43.38105" lon="-0.58412">
        <ele>116.35814</ele>
        <time>2011-02-15T14:55:33Z</time>
      </trkpt>
      <trkpt lat="43.38118" lon="-0.58426">
        <ele>116.21997</ele>
        <time>2011-02-15T14:55:36Z</time>
      </trkpt>
      <trkpt lat="43.3813" lon="-0.58441">
        <ele>115.721898</ele>
        <time>2011-02-15T14:55:39Z</time>
      </trkpt>
      <trkpt lat="43.38143" lon="-0.58456">
        <ele>114.992577</ele>
        <time>2011-02-15T14:55:42Z</time>
      </trkpt>
      <trkpt lat="43.38151" lon="-0.58466">
        <ele>114.447886</ele>
        <time>2011-02-15T14:55:44Z</time>
      </trkpt>
      <trkpt lat="43.38159" lon="-0.58476">
        <ele>114.107918</ele>
        <time>2011-02-15T14:55:46Z</time>
      </trkpt>
      <trkpt lat="43.38173" lon="-0.58491">
        <ele>113.613307</ele>
        <time>2011-02-15T14:55:49Z</time>
      </trkpt>
      <trkpt lat="43.38186" lon="-0.58506">
        <ele>112.944078</ele>
        <time>2011-02-15T14:55:52Z</time>
      </trkpt>
      <trkpt lat="43.382" lon="-0.58522">
        <ele>112.44359</ele>
        <time>2011-02-15T14:55:55Z</time>
      </trkpt>
      <trkpt lat="43.38214" lon="-0.58538">
        <ele>112.257918</ele>
        <time>2011-02-15T14:55:58Z</time>
      </trkpt>
      <trkpt lat="43.38228" lon="-0.58554">
        <ele>112.2609</ele>
        <time>2011-02-15T14:56:01Z</time>
      </trkpt>
      <trkpt lat="43.38237" lon="-0.58566">
        <ele>112.316048</ele>
        <time>2011-02-15T14:56:03Z</time>
      </trkpt>
      <trkpt lat="43.38246" lon="-0.58577">
        <ele>112.49485</ele>
        <time>2011-02-15T14:56:05Z</time>
      </trkpt>
      <trkpt lat="43.38258" lon="-0.58595">
        <ele>112.869579</ele>
        <time>2011-02-15T14:56:08Z</time>
      </trkpt>
      <trkpt lat="43.3827" lon="-0.58612">
        <ele>113.238596</ele>
        <time>2011-02-15T14:56:11Z</time>
      </trkpt>
      <trkpt lat="43.38281" lon="-0.58628">
        <ele>113.409313</ele>
        <time>2011-02-15T14:56:14Z</time>
      </trkpt>
      <trkpt lat="43.38291" lon="-0.58644">
        <ele>113.43254</ele>
        <time>2011-02-15T14:56:17Z</time>
      </trkpt>
      <trkpt lat="43.38302" lon="-0.58659">
        <ele>113.263186</ele>
        <time>2011-02-15T14:56:20Z</time>
      </trkpt>
      <trkpt lat="43.38312" lon="-0.58675">
        <ele>112.873233</ele>
        <time>2011-02-15T14:56:23Z</time>
      </trkpt>
      <trkpt lat="43.38323" lon="-0.58691">
        <ele>112.490073</ele>
        <time>2011-02-15T14:56:26Z</time>
      </trkpt>
      <trkpt lat="43.3833" lon="-0.58702">
        <ele>112.31305</ele>
        <time>2011-02-15T14:56:28Z</time>
      </trkpt>
      <trkpt lat="43.38341" lon="-0.58719">
        <ele>112.289103</ele>
        <time>2011-02-15T14:56:31Z</time>
      </trkpt>
      <trkpt lat="43.38348" lon="-0.58729">
        <ele>112.183351</ele>
        <time>2011-02-15T14:56:33Z</time>
      </trkpt>
      <trkpt lat="43.38359" lon="-0.58745">
        <ele>111.854659</ele>
        <time>2011-02-15T14:56:36Z</time>
      </trkpt>
      <trkpt lat="43.38367" lon="-0.58755">
        <ele>111.499442</ele>
        <time>2011-02-15T14:56:38Z</time>
      </trkpt>
      <trkpt lat="43.38375" lon="-0.58763">
        <ele>111.32598</ele>
        <time>2011-02-15T14:56:40Z</time>
      </trkpt>
      <trkpt lat="43.38388" lon="-0.58775">
        <ele>111.296748</ele>
        <time>2011-02-15T14:56:43Z</time>
      </trkpt>
      <trkpt lat="43.38398" lon="-0.5878">
        <ele>111.324189</ele>
        <time>2011-02-15T14:56:45Z</time>
      </trkpt>
      <trkpt lat="43.38408" lon="-0.58783">
        <ele>111.353152</ele>
        <time>2011-02-15T14:56:47Z</time>
      </trkpt>
      <trkpt lat="43.38418" lon="-0.58784">
        <ele>111.367115</ele>
        <time>2011-02-15T14:56:49Z</time>
      </trkpt>
      <trkpt lat="43.38432" lon="-0.58782">
        <ele>111.369368</ele>
        <time>2011-02-15T14:56:52Z</time>
      </trkpt>
      <trkpt lat="43.38446" lon="-0.58777">
        <ele>111.367096</ele>
        <time>2011-02-15T14:56:55Z</time>
      </trkpt>
      <trkpt lat="43.38458" lon="-0.58769">
        <ele>111.50294</ele>
        <time>2011-02-15T14:56:58Z</time>
      </trkpt>
      <trkpt lat="43.38468" lon="-0.58758">
        <ele>111.861749</ele>
        <time>2011-02-15T14:57:01Z</time>
      </trkpt>
      <trkpt lat="43.38476" lon="-0.58746">
        <ele>112.369245</ele>
        <time>2011-02-15T14:57:04Z</time>
      </trkpt>
      <trkpt lat="43.38485" lon="-0.58734">
        <ele>112.904659</ele>
        <time>2011-02-15T14:57:07Z</time>
      </trkpt>
      <trkpt lat="43.38494" lon="-0.58721">
        <ele>113.300927</ele>
        <time>2011-02-15T14:57:10Z</time>
      </trkpt>
      <trkpt lat="43.38504" lon="-0.58717">
        <ele>113.584592</ele>
        <time>2011-02-15T14:57:13Z</time>
      </trkpt>
      <trkpt lat="43.38514" lon="-0.58716">
        <ele>113.940962</ele>
        <time>2011-02-15T14:57:16Z</time>
      </trkpt>
      <trkpt lat="43.3852" lon="-0.58704">
        <ele>114.266263</ele>
        <time>2011-02-15T14:57:19Z</time>
      </trkpt>
      <trkpt lat="43.38525" lon="-0.58691">
        <ele>114.409352</ele>
        <time>2011-02-15T14:57:22Z</time>
      </trkpt>
      <trkpt lat="43.38529" lon="-0.58677">
        <ele>114.424295</ele>
        <time>2011-02-15T14:57:25Z</time>
      </trkpt>
      <trkpt lat="43.38534" lon="-0.58662">
        <ele>114.256678</ele>
        <time>2011-02-15T14:57:28Z</time>
      </trkpt>
      <trkpt lat="43.38539" lon="-0.58647">
        <ele>113.870529</ele>
        <time>2011-02-15T14:57:31Z</time>
      </trkpt>
      <trkpt lat="43.38545" lon="-0.58631">
        <ele>113.489808</ele>
        <time>2011-02-15T14:57:34Z</time>
      </trkpt>
      <trkpt lat="43.3855" lon="-0.58616">
        <ele>113.313532</ele>
        <time>2011-02-15T14:57:37Z</time>
      </trkpt>
      <trkpt lat="43.38555" lon="-0.58602">
        <ele>113.289445</ele>
        <time>2011-02-15T14:57:40Z</time>
      </trkpt>
      <trkpt lat="43.3856" lon="-0.58587">
        <ele>113.18343</ele>
        <time>2011-02-15T14:57:43Z</time>
      </trkpt>
      <trkpt lat="43.38566" lon="-0.58572">
        <ele>112.854671</ele>
        <time>2011-02-15T14:57:46Z</time>
      </trkpt>
      <trkpt lat="43.38571" lon="-0.58556">
        <ele>112.499494</ele>
        <time>2011-02-15T14:57:49Z</time>
      </trkpt>
      <trkpt lat="43.38577" lon="-0.58539">
        <ele>112.187922</ele>
        <time>2011-02-15T14:57:52Z</time>
      </trkpt>
      <trkpt lat="43.38581" lon="-0.58528">
        <ele>111.798936</ele>
        <time>2011-02-15T14:57:54Z</time>
      </trkpt>
      <trkpt lat="43.38585" lon="-0.58516">
        <ele>111.457099</ele>
        <time>2011-02-15T14:57:56Z</time>
      </trkpt>
      <trkpt lat="43.38592" lon="-0.58498">
        <ele>111.310895</ele>
        <time>2011-02-15T14:57:59Z</time>
      </trkpt>
      <trkpt lat="43.386" lon="-0.58481">
        <ele>111.298359</ele>
        <time>2011-02-15T14:58:02Z</time>
      </trkpt>
      <trkpt lat="43.38605" lon="-0.58469">
        <ele>111.330598</ele>
        <time>2011-02-15T14:58:04Z</time>
      </trkpt>
      <trkpt lat="43.38613" lon="-0.58453">
        <ele>111.358438</ele>
        <time>2011-02-15T14:58:07Z</time>
      </trkpt>
      <trkpt lat="43.38623" lon="-0.58438">
        <ele>111.508407</ele>
        <time>2011-02-15T14:58:10Z</time>
      </trkpt>
      <trkpt lat="43.38632" lon="-0.58425">
        <ele>111.869277</ele>
        <time>2011-02-15T14:58:13Z</time>
      </trkpt>
      <trkpt lat="43.38641" lon="-0.58414">
        <ele>112.236129</ele>
        <time>2011-02-15T14:58:16Z</time>
      </trkpt>
      <trkpt lat="43.38651" lon="-0.58403">
        <ele>112.409215</ele>
        <time>2011-02-15T14:58:19Z</time>
      </trkpt>
      <trkpt lat="43.38653" lon="-0.5839">
        <ele>112.434893</ele>
        <time>2011-02-15T14:58:25Z</time>
      </trkpt>
      <trkpt lat="43.38644" lon="-0.58382">
        <ele>112.404919</ele>
        <time>2011-02-15T14:58:29Z</time>
      </trkpt>
      <trkpt lat="43.3863" lon="-0.58372">
        <ele>112.375075</ele>
        <time>2011-02-15T14:58:32Z</time>
      </trkpt>
      <trkpt lat="43.3862" lon="-0.58367">
        <ele>112.361173</ele>
        <time>2011-02-15T14:58:34Z</time>
      </trkpt>
      <trkpt lat="43.38604" lon="-0.58362">
        <ele>112.221072</ele>
        <time>2011-02-15T14:58:37Z</time>
      </trkpt>
      <trkpt lat="43.38589" lon="-0.58357">
        <ele>111.863742</ele>
        <time>2011-02-15T14:58:40Z</time>
      </trkpt>
      <trkpt lat="43.38582" lon="-0.58347">
        <ele>111.496799</ele>
        <time>2011-02-15T14:58:44Z</time>
      </trkpt>
      <trkpt lat="43.38585" lon="-0.58331">
        <ele>111.32267</ele>
        <time>2011-02-15T14:58:49Z</time>
      </trkpt>
      <trkpt lat="43.38588" lon="-0.5832">
        <ele>111.29626</ele>
        <time>2011-02-15T14:58:52Z</time>
      </trkpt>
      <trkpt lat="43.38593" lon="-0.58305">
        <ele>111.18783</ele>
        <time>2011-02-15T14:58:56Z</time>
      </trkpt>
      <trkpt lat="43.38596" lon="-0.58292">
        <ele>110.857855</ele>
        <time>2011-02-15T14:58:59Z</time>
      </trkpt>
      <trkpt lat="43.38599" lon="-0.5828">
        <ele>110.502458</ele>
        <time>2011-02-15T14:59:02Z</time>
      </trkpt>
      <trkpt lat="43.38602" lon="-0.58267">
        <ele>110.329229</ele>
        <time>2011-02-15T14:59:05Z</time>
      </trkpt>
      <trkpt lat="43.38605" lon="-0.58253">
        <ele>110.162082</ele>
        <time>2011-02-15T14:59:08Z</time>
      </trkpt>
      <trkpt lat="43.38608" lon="-0.58239">
        <ele>109.829816</ele>
        <time>2011-02-15T14:59:11Z</time>
      </trkpt>
      <trkpt lat="43.38611" lon="-0.58224">
        <ele>109.489428</ele>
        <time>2011-02-15T14:59:14Z</time>
      </trkpt>
      <trkpt lat="43.38615" lon="-0.58211">
        <ele>109.328138</ele>
        <time>2011-02-15T14:59:17Z</time>
      </trkpt>
      <trkpt lat="43.38619" lon="-0.58197">
        <ele>109.303851</ele>
        <time>2011-02-15T14:59:20Z</time>
      </trkpt>
      <trkpt lat="43.38622" lon="-0.58182">
        <ele>109.331576</ele>
        <time>2011-02-15T14:59:23Z</time>
      </trkpt>
      <trkpt lat="43.38626" lon="-0.58167">
        <ele>109.3594</ele>
        <time>2011-02-15T14:59:26Z</time>
      </trkpt>
      <trkpt lat="43.38629" lon="-0.58153">
        <ele>109.372473</ele>
        <time>2011-02-15T14:59:29Z</time>
      </trkpt>
      <trkpt lat="43.38632" lon="-0.58138">
        <ele>109.3744</ele>
        <time>2011-02-15T14:59:32Z</time>
      </trkpt>
      <trkpt lat="43.38635" lon="-0.58125">
        <ele>109.372131</ele>
        <time>2011-02-15T14:59:35Z</time>
      </trkpt>
      <trkpt lat="43.38639" lon="-0.58111">
        <ele>109.369877</ele>
        <time>2011-02-15T14:59:38Z</time>
      </trkpt>
      <trkpt lat="43.38642" lon="-0.58096">
        <ele>109.230711</ele>
        <time>2011-02-15T14:59:41Z</time>
      </trkpt>
      <trkpt lat="43.38644" lon="-0.58083">
        <ele>108.870822</ele>
        <time>2011-02-15T14:59:44Z</time>
      </trkpt>
      <trkpt lat="43.38648" lon="-0.5807">
        <ele>108.501709</ele>
        <time>2011-02-15T14:59:47Z</time>
      </trkpt>
      <trkpt lat="43.38651" lon="-0.58056">
        <ele>108.326656</ele>
        <time>2011-02-15T14:59:50Z</time>
      </trkpt>
      <trkpt lat="43.38654" lon="-0.58044">
        <ele>108.162032</ele>
        <time>2011-02-15T14:59:53Z</time>
      </trkpt>
      <trkpt lat="43.38657" lon="-0.58031">
        <ele>107.832188</ele>
        <time>2011-02-15T14:59:56Z</time>
      </trkpt>
      <trkpt lat="43.38661" lon="-0.58018">
        <ele>107.354773</ele>
        <time>2011-02-15T14:59:59Z</time>
      </trkpt>
      <trkpt lat="43.38664" lon="-0.58004">
        <ele>106.833815</ele>
        <time>2011-02-15T15:00:02Z</time>
      </trkpt>
      <trkpt lat="43.38667" lon="-0.5799">
        <ele>106.439923</ele>
        <time>2011-02-15T15:00:05Z</time>
      </trkpt>
      <trkpt lat="43.38671" lon="-0.57975">
        <ele>106.292131</ele>
        <time>2011-02-15T15:00:08Z</time>
      </trkpt>
      <trkpt lat="43.38676" lon="-0.57962">
        <ele>106.1551</ele>
        <time>2011-02-15T15:00:11Z</time>
      </trkpt>
      <trkpt lat="43.38684" lon="-0.57953">
        <ele>105.838289</ele>
        <time>2011-02-15T15:00:14Z</time>
      </trkpt>
      <trkpt lat="43.38684" lon="-0.57953">
        <ele>105.500991</ele>
        <time>2011-02-15T15:00:18Z</time>
      </trkpt>
      <trkpt lat="43.38699" lon="-0.57935">
        <ele>105.337637</ele>
        <time>2011-02-15T15:00:25Z</time>
      </trkpt>
      <trkpt lat="43.38703" lon="-0.5792">
        <ele>105.358181</ele>
        <time>2011-02-15T15:00:29Z</time>
      </trkpt>
      <trkpt lat="43.38703" lon="-0.57905">
        <ele>105.598631</ele>
        <time>2011-02-15T15:00:33Z</time>
      </trkpt>
      <trkpt lat="43.38702" lon="-0.57889">
        <ele>105.89835</ele>
        <time>2011-02-15T15:00:37Z</time>
      </trkpt>
      <trkpt lat="43.38703" lon="-0.57874">
        <ele>105.977725</ele>
        <time>2011-02-15T15:00:41Z</time>
      </trkpt>
      <trkpt lat="43.38704" lon="-0.57858">
        <ele>105.861123</ele>
        <time>2011-02-15T15:00:45Z</time>
      </trkpt>
      <trkpt lat="43.38706" lon="-0.57844">
        <ele>105.703617</ele>
        <time>2011-02-15T15:00:48Z</time>
      </trkpt>
      <trkpt lat="43.38707" lon="-0.57829">
        <ele>105.53093</ele>
        <time>2011-02-15T15:00:51Z</time>
      </trkpt>
      <trkpt lat="43.38708" lon="-0.57815">
        <ele>105.398718</ele>
        <time>2011-02-15T15:00:54Z</time>
      </trkpt>
      <trkpt lat="43.38706" lon="-0.57801">
        <ele>105.210343</ele>
        <time>2011-02-15T15:00:57Z</time>
      </trkpt>
      <trkpt lat="43.38715" lon="-0.57797">
        <ele>104.850447</ele>
        <time>2011-02-15T15:01:14Z</time>
      </trkpt>
      <trkpt lat="43.38724" lon="-0.57781">
        <ele>104.495354</ele>
        <time>2011-02-15T15:01:19Z</time>
      </trkpt>
      <trkpt lat="43.38724" lon="-0.57781">
        <ele>104.330876</ele>
        <time>2011-02-15T15:01:23Z</time>
      </trkpt>
      <trkpt lat="43.38759" lon="-0.57772">
        <ele>104.308363</ele>
        <time>2011-02-15T15:02:14Z</time>
      </trkpt>
      <trkpt lat="43.38769" lon="-0.57768">
        <ele>104.752844</ele>
        <time>2011-02-15T15:02:22Z</time>
      </trkpt>
      <trkpt lat="43.38797" lon="-0.57759">
        <ele>105.999663</ele>
        <time>2011-02-15T15:02:35Z</time>
      </trkpt>
      <trkpt lat="43.3881" lon="-0.57763">
        <ele>107.757549</ele>
        <time>2011-02-15T15:02:38Z</time>
      </trkpt>
      <trkpt lat="43.38821" lon="-0.57769">
        <ele>109.374439</ele>
        <time>2011-02-15T15:02:41Z</time>
      </trkpt>
      <trkpt lat="43.3883" lon="-0.57775">
        <ele>110.365835</ele>
        <time>2011-02-15T15:02:44Z</time>
      </trkpt>
      <trkpt lat="43.38837" lon="-0.57782">
        <ele>110.650643</ele>
        <time>2011-02-15T15:02:47Z</time>
      </trkpt>
      <trkpt lat="43.38845" lon="-0.57793">
        <ele>110.582337</ele>
        <time>2011-02-15T15:02:51Z</time>
      </trkpt>
      <trkpt lat="43.38853" lon="-0.57803">
        <ele>110.449826</ele>
        <time>2011-02-15T15:02:55Z</time>
      </trkpt>
      <trkpt lat="43.38861" lon="-0.57815">
        <ele>110.369648</ele>
        <time>2011-02-15T15:02:59Z</time>
      </trkpt>
      <trkpt lat="43.38868" lon="-0.57823">
        <ele>110.347129</ele>
        <time>2011-02-15T15:03:02Z</time>
      </trkpt>
      <trkpt lat="43.38875" lon="-0.57832">
        <ele>110.491234</ele>
        <time>2011-02-15T15:03:05Z</time>
      </trkpt>
      <trkpt lat="43.38881" lon="-0.57841">
        <ele>110.862003</ele>
        <time>2011-02-15T15:03:08Z</time>
      </trkpt>
      <trkpt lat="43.38888" lon="-0.57849">
        <ele>111.237928</ele>
        <time>2011-02-15T15:03:11Z</time>
      </trkpt>
      <trkpt lat="43.38897" lon="-0.57858">
        <ele>111.691325</ele>
        <time>2011-02-15T15:03:15Z</time>
      </trkpt>
      <trkpt lat="43.38905" lon="-0.57866">
        <ele>112.437128</ele>
        <time>2011-02-15T15:03:19Z</time>
      </trkpt>
      <trkpt lat="43.38914" lon="-0.57873">
        <ele>113.283298</ele>
        <time>2011-02-15T15:03:22Z</time>
      </trkpt>
      <trkpt lat="43.38923" lon="-0.5788">
        <ele>114.239439</ele>
        <time>2011-02-15T15:03:25Z</time>
      </trkpt>
      <trkpt lat="43.38931" lon="-0.57886">
        <ele>115.367487</ele>
        <time>2011-02-15T15:03:28Z</time>
      </trkpt>
      <trkpt lat="43.38941" lon="-0.5789">
        <ele>116.63421</ele>
        <time>2011-02-15T15:03:32Z</time>
      </trkpt>
      <trkpt lat="43.38952" lon="-0.57893">
        <ele>118.171481</ele>
        <time>2011-02-15T15:03:36Z</time>
      </trkpt>
      <trkpt lat="43.38963" lon="-0.57894">
        <ele>119.637065</ele>
        <time>2011-02-15T15:03:40Z</time>
      </trkpt>
      <trkpt lat="43.38972" lon="-0.57892">
        <ele>120.439311</ele>
        <time>2011-02-15T15:03:45Z</time>
      </trkpt>
      <trkpt lat="43.38981" lon="-0.57893">
        <ele>120.624994</ele>
        <time>2011-02-15T15:03:50Z</time>
      </trkpt>
      <trkpt lat="43.38992" lon="-0.57895">
        <ele>120.397883</ele>
        <time>2011-02-15T15:03:54Z</time>
      </trkpt>
      <trkpt lat="43.39002" lon="-0.57896">
        <ele>119.641892</ele>
        <time>2011-02-15T15:03:57Z</time>
      </trkpt>
      <trkpt lat="43.39011" lon="-0.57895">
        <ele>118.211646</ele>
        <time>2011-02-15T15:04:00Z</time>
      </trkpt>
      <trkpt lat="43.3902" lon="-0.57892">
        <ele>116.42506</ele>
        <time>2011-02-15T15:04:03Z</time>
      </trkpt>
      <trkpt lat="43.3903" lon="-0.57893">
        <ele>114.818622</ele>
        <time>2011-02-15T15:04:06Z</time>
      </trkpt>
      <trkpt lat="43.39039" lon="-0.57896">
        <ele>113.725529</ele>
        <time>2011-02-15T15:04:09Z</time>
      </trkpt>
      <trkpt lat="43.3905" lon="-0.579">
        <ele>113.084943</ele>
        <time>2011-02-15T15:04:13Z</time>
      </trkpt>
      <trkpt lat="43.39061" lon="-0.57904">
        <ele>112.65875</ele>
        <time>2011-02-15T15:04:17Z</time>
      </trkpt>
      <trkpt lat="43.39072" lon="-0.57908">
        <ele>112.382633</ele>
        <time>2011-02-15T15:04:21Z</time>
      </trkpt>
      <trkpt lat="43.39081" lon="-0.57912">
        <ele>112.296435</ele>
        <time>2011-02-15T15:04:24Z</time>
      </trkpt>
      <trkpt lat="43.39091" lon="-0.57915">
        <ele>112.310293</ele>
        <time>2011-02-15T15:04:27Z</time>
      </trkpt>
      <trkpt lat="43.39102" lon="-0.57914">
        <ele>112.345293</ele>
        <time>2011-02-15T15:04:31Z</time>
      </trkpt>
      <trkpt lat="43.39113" lon="-0.57912">
        <ele>112.367696</ele>
        <time>2011-02-15T15:04:35Z</time>
      </trkpt>
      <trkpt lat="43.39125" lon="-0.5791">
        <ele>112.512756</ele>
        <time>2011-02-15T15:04:39Z</time>
      </trkpt>
      <trkpt lat="43.39137" lon="-0.57911">
        <ele>112.871423</ele>
        <time>2011-02-15T15:04:42Z</time>
      </trkpt>
      <trkpt lat="43.39147" lon="-0.57913">
        <ele>113.237987</ele>
        <time>2011-02-15T15:04:44Z</time>
      </trkpt>
      <trkpt lat="43.39163" lon="-0.57915">
        <ele>113.411476</ele>
        <time>2011-02-15T15:04:47Z</time>
      </trkpt>
      <trkpt lat="43.39178" lon="-0.57917">
        <ele>113.437509</ele>
        <time>2011-02-15T15:04:50Z</time>
      </trkpt>
      <trkpt lat="43.39188" lon="-0.57917">
        <ele>113.407655</ele>
        <time>2011-02-15T15:04:52Z</time>
      </trkpt>
      <trkpt lat="43.39202" lon="-0.57916">
        <ele>113.23966</ele>
        <time>2011-02-15T15:04:55Z</time>
      </trkpt>
      <trkpt lat="43.39215" lon="-0.57912">
        <ele>112.865947</ele>
        <time>2011-02-15T15:04:58Z</time>
      </trkpt>
      <trkpt lat="43.39225" lon="-0.57907">
        <ele>112.494665</ele>
        <time>2011-02-15T15:05:01Z</time>
      </trkpt>
      <trkpt lat="43.39234" lon="-0.57911">
        <ele>112.321953</ele>
        <time>2011-02-15T15:05:06Z</time>
      </trkpt>
      <trkpt lat="43.39249" lon="-0.57908">
        <ele>112.297875</ele>
        <time>2011-02-15T15:05:12Z</time>
      </trkpt>
      <trkpt lat="43.39259" lon="-0.57902">
        <ele>112.329004</ele>
        <time>2011-02-15T15:05:15Z</time>
      </trkpt>
      <trkpt lat="43.39268" lon="-0.57895">
        <ele>112.359303</ele>
        <time>2011-02-15T15:05:18Z</time>
      </trkpt>
      <trkpt lat="43.39278" lon="-0.57888">
        <ele>112.511419</ele>
        <time>2011-02-15T15:05:21Z</time>
      </trkpt>
      <trkpt lat="43.39288" lon="-0.5788">
        <ele>112.873192</ele>
        <time>2011-02-15T15:05:24Z</time>
      </trkpt>
      <trkpt lat="43.39299" lon="-0.57872">
        <ele>113.378282</ele>
        <time>2011-02-15T15:05:27Z</time>
      </trkpt>
      <trkpt lat="43.39309" lon="-0.57863">
        <ele>113.911036</ele>
        <time>2011-02-15T15:05:30Z</time>
      </trkpt>
      <trkpt lat="43.39317" lon="-0.57853">
        <ele>114.444128</ele>
        <time>2011-02-15T15:05:33Z</time>
      </trkpt>
      <trkpt lat="43.39326" lon="-0.57844">
        <ele>114.949226</ele>
        <time>2011-02-15T15:05:36Z</time>
      </trkpt>
      <trkpt lat="43.39335" lon="-0.57834">
        <ele>115.31536</ele>
        <time>2011-02-15T15:05:39Z</time>
      </trkpt>
      <trkpt lat="43.39344" lon="-0.57825">
        <ele>115.446777</ele>
        <time>2011-02-15T15:05:42Z</time>
      </trkpt>
      <trkpt lat="43.39351" lon="-0.57816">
        <ele>115.441278</ele>
        <time>2011-02-15T15:05:45Z</time>
      </trkpt>
      <trkpt lat="43.3936" lon="-0.57808">
        <ele>115.261587</ele>
        <time>2011-02-15T15:05:48Z</time>
      </trkpt>
      <trkpt lat="43.39369" lon="-0.57799">
        <ele>114.872166</ele>
        <time>2011-02-15T15:05:51Z</time>
      </trkpt>
      <trkpt lat="43.3938" lon="-0.57789">
        <ele>114.49242</ele>
        <time>2011-02-15T15:05:54Z</time>
      </trkpt>
      <trkpt lat="43.39391" lon="-0.57779">
        <ele>114.317819</ele>
        <time>2011-02-15T15:05:57Z</time>
      </trkpt>
      <trkpt lat="43.39399" lon="-0.57771">
        <ele>114.294733</ele>
        <time>2011-02-15T15:05:59Z</time>
      </trkpt>
      <trkpt lat="43.39408" lon="-0.57764">
        <ele>114.465358</ele>
        <time>2011-02-15T15:06:01Z</time>
      </trkpt>
      <trkpt lat="43.39416" lon="-0.57757">
        <ele>114.856318</ele>
        <time>2011-02-15T15:06:03Z</time>
      </trkpt>
      <trkpt lat="43.39428" lon="-0.57747">
        <ele>115.239936</ele>
        <time>2011-02-15T15:06:06Z</time>
      </trkpt>
      <trkpt lat="43.39436" lon="-0.5774">
        <ele>115.417049</ele>
        <time>2011-02-15T15:06:08Z</time>
      </trkpt>
      <trkpt lat="43.39449" lon="-0.57729">
        <ele>115.440958</ele>
        <time>2011-02-15T15:06:11Z</time>
      </trkpt>
      <trkpt lat="43.39461" lon="-0.57719">
        <ele>115.408473</ele>
        <time>2011-02-15T15:06:14Z</time>
      </trkpt>
      <trkpt lat="43.39472" lon="-0.57708">
        <ele>115.377206</ele>
        <time>2011-02-15T15:06:17Z</time>
      </trkpt>
      <trkpt lat="43.3948" lon="-0.57701">
        <ele>115.36292</ele>
        <time>2011-02-15T15:06:19Z</time>
      </trkpt>
      <trkpt lat="43.39492" lon="-0.57691">
        <ele>115.222971</ele>
        <time>2011-02-15T15:06:22Z</time>
      </trkpt>
      <trkpt lat="43.39501" lon="-0.57685">
        <ele>114.865945</ele>
        <time>2011-02-15T15:06:24Z</time>
      </trkpt>
      <trkpt lat="43.39513" lon="-0.57673">
        <ele>114.499223</ele>
        <time>2011-02-15T15:06:27Z</time>
      </trkpt>
      <trkpt lat="43.39521" lon="-0.57665">
        <ele>114.325174</ele>
        <time>2011-02-15T15:06:29Z</time>
      </trkpt>
      <trkpt lat="43.39533" lon="-0.57655">
        <ele>114.298794</ele>
        <time>2011-02-15T15:06:32Z</time>
      </trkpt>
      <trkpt lat="43.39546" lon="-0.57644">
        <ele>114.328591</ele>
        <time>2011-02-15T15:06:35Z</time>
      </trkpt>
      <trkpt lat="43.39554" lon="-0.57638">
        <ele>114.358574</ele>
        <time>2011-02-15T15:06:37Z</time>
      </trkpt>
      <trkpt lat="43.39565" lon="-0.57628">
        <ele>114.372711</ele>
        <time>2011-02-15T15:06:40Z</time>
      </trkpt>
      <trkpt lat="43.39577" lon="-0.57617">
        <ele>114.3749</ele>
        <time>2011-02-15T15:06:43Z</time>
      </trkpt>
      <trkpt lat="43.39585" lon="-0.57611">
        <ele>114.37259</ele>
        <time>2011-02-15T15:06:45Z</time>
      </trkpt>
      <trkpt lat="43.39597" lon="-0.576">
        <ele>114.370268</ele>
        <time>2011-02-15T15:06:48Z</time>
      </trkpt>
      <trkpt lat="43.39606" lon="-0.57592">
        <ele>114.36921</ele>
        <time>2011-02-15T15:06:50Z</time>
      </trkpt>
      <trkpt lat="43.39619" lon="-0.57579">
        <ele>114.369089</ele>
        <time>2011-02-15T15:06:53Z</time>
      </trkpt>
      <trkpt lat="43.39631" lon="-0.57563">
        <ele>114.369299</ele>
        <time>2011-02-15T15:06:56Z</time>
      </trkpt>
      <trkpt lat="43.39642" lon="-0.57547">
        <ele>114.3695</ele>
        <time>2011-02-15T15:06:59Z</time>
      </trkpt>
      <trkpt lat="43.39648" lon="-0.57534">
        <ele>114.507799</ele>
        <time>2011-02-15T15:07:01Z</time>
      </trkpt>
      <trkpt lat="43.39648" lon="-0.5751">
        <ele>114.867773</ele>
        <time>2011-02-15T15:07:04Z</time>
      </trkpt>
      <trkpt lat="43.39645" lon="-0.57493">
        <ele>115.513647</ele>
        <time>2011-02-15T15:07:06Z</time>
      </trkpt>
      <trkpt lat="43.3964" lon="-0.57462">
        <ele>116.408782</ele>
        <time>2011-02-15T15:07:09Z</time>
      </trkpt>
      <trkpt lat="43.39637" lon="-0.57444">
        <ele>117.174293</ele>
        <time>2011-02-15T15:07:11Z</time>
      </trkpt>
      <trkpt lat="43.39634" lon="-0.57426">
        <ele>117.494971</ele>
        <time>2011-02-15T15:07:13Z</time>
      </trkpt>
      <trkpt lat="43.39629" lon="-0.574">
        <ele>117.518056</ele>
        <time>2011-02-15T15:07:16Z</time>
      </trkpt>
      <trkpt lat="43.39625" lon="-0.57375">
        <ele>117.444081</ele>
        <time>2011-02-15T15:07:19Z</time>
      </trkpt>
      <trkpt lat="43.39622" lon="-0.57359">
        <ele>117.381905</ele>
        <time>2011-02-15T15:07:21Z</time>
      </trkpt>
      <trkpt lat="43.39615" lon="-0.57337">
        <ele>117.356227</ele>
        <time>2011-02-15T15:07:24Z</time>
      </trkpt>
      <trkpt lat="43.39611" lon="-0.57324">
        <ele>117.354606</ele>
        <time>2011-02-15T15:07:26Z</time>
      </trkpt>
      <trkpt lat="43.39608" lon="-0.5731">
        <ele>117.360676</ele>
        <time>2011-02-15T15:07:28Z</time>
      </trkpt>
      <trkpt lat="43.39603" lon="-0.57289">
        <ele>117.227549</ele>
        <time>2011-02-15T15:07:31Z</time>
      </trkpt>
      <trkpt lat="43.39599" lon="-0.57269">
        <ele>116.869792</ele>
        <time>2011-02-15T15:07:34Z</time>
      </trkpt>
      <trkpt lat="43.3961" lon="-0.57258">
        <ele>116.500554</ele>
        <time>2011-02-15T15:07:37Z</time>
      </trkpt>
      <trkpt lat="43.39624" lon="-0.5725">
        <ele>116.186694</ele>
        <time>2011-02-15T15:07:40Z</time>
      </trkpt>
      <trkpt lat="43.39638" lon="-0.57243">
        <ele>115.799982</ele>
        <time>2011-02-15T15:07:43Z</time>
      </trkpt>
      <trkpt lat="43.39647" lon="-0.57237">
        <ele>115.460482</ele>
        <time>2011-02-15T15:07:45Z</time>
      </trkpt>
      <trkpt lat="43.39656" lon="-0.5723">
        <ele>115.315383</ele>
        <time>2011-02-15T15:07:47Z</time>
      </trkpt>
      <trkpt lat="43.39669" lon="-0.57224">
        <ele>115.303033</ele>
        <time>2011-02-15T15:07:50Z</time>
      </trkpt>
      <trkpt lat="43.39683" lon="-0.57218">
        <ele>115.335114</ele>
        <time>2011-02-15T15:07:53Z</time>
      </trkpt>
      <trkpt lat="43.39692" lon="-0.57215">
        <ele>115.362773</ele>
        <time>2011-02-15T15:07:55Z</time>
      </trkpt>
      <trkpt lat="43.39705" lon="-0.5721">
        <ele>115.512636</ele>
        <time>2011-02-15T15:07:58Z</time>
      </trkpt>
      <trkpt lat="43.39717" lon="-0.57205">
        <ele>115.873472</ele>
        <time>2011-02-15T15:08:01Z</time>
      </trkpt>
      <trkpt lat="43.3973" lon="-0.57201">
        <ele>116.378503</ele>
        <time>2011-02-15T15:08:04Z</time>
      </trkpt>
      <trkpt lat="43.39739" lon="-0.57198">
        <ele>116.91148</ele>
        <time>2011-02-15T15:08:06Z</time>
      </trkpt>
      <trkpt lat="43.39748" lon="-0.57196">
        <ele>117.306579</ele>
        <time>2011-02-15T15:08:08Z</time>
      </trkpt>
      <trkpt lat="43.39757" lon="-0.5719">
        <ele>117.451861</ele>
        <time>2011-02-15T15:08:10Z</time>
      </trkpt>
      <trkpt lat="43.3977" lon="-0.57174">
        <ele>117.586747</ele>
        <time>2011-02-15T15:08:13Z</time>
      </trkpt>
      <trkpt lat="43.39777" lon="-0.57155">
        <ele>117.902798</ele>
        <time>2011-02-15T15:08:16Z</time>
      </trkpt>
      <trkpt lat="43.39784" lon="-0.57142">
        <ele>118.240269</ele>
        <time>2011-02-15T15:08:19Z</time>
      </trkpt>
      <trkpt lat="43.3979" lon="-0.57132">
        <ele>118.404086</ele>
        <time>2011-02-15T15:08:22Z</time>
      </trkpt>
      <trkpt lat="43.3979" lon="-0.57132">
        <ele>118.431179</ele>
        <time>2011-02-15T15:08:24Z</time>
      </trkpt>
      <trkpt lat="43.3979" lon="-0.57132">
        <ele>118.404884</ele>
        <time>2011-02-15T15:09:20Z</time>
      </trkpt>
      <trkpt lat="43.39794" lon="-0.57101">
        <ele>118.377392</ele>
        <time>2011-02-15T15:09:53Z</time>
      </trkpt>
      <trkpt lat="43.39794" lon="-0.57101">
        <ele>118.364203</ele>
        <time>2011-02-15T15:09:53Z</time>
      </trkpt>
      <trkpt lat="43.39794" lon="-0.57101">
        <ele>118.35209</ele>
        <time>2011-02-15T15:09:54Z</time>
      </trkpt>
      <trkpt lat="43.39794" lon="-0.57101">
        <ele>118.324434</ele>
        <time>2011-02-15T15:09:54Z</time>
      </trkpt>
      <trkpt lat="43.39794" lon="-0.57101">
        <ele>118.286451</ele>
        <time>2011-02-15T15:09:55Z</time>
      </trkpt>
      <trkpt lat="43.39794" lon="-0.57101">
        <ele>118.253369</ele>
        <time>2011-02-15T15:09:55Z</time>
      </trkpt>
    </trkseg>
  </trk>
</gpx>